<?xml version='1.0' encoding='UTF-8'?><gpx version="1.1" creator="JPX - https://github.com/jenetics/jpx" xmlns="http://www.topografix.com/GPX/1/1"><trk><trkseg><trkpt lat="44.58170182728385" lon="8.885727240702543"><ele>798.9999999999999</ele><time>2026-04-12T14:01:03Z</time></trkpt><trkpt lat="44.581758260167476" lon="8.885683975502575"><ele>799.0</ele><time>2026-04-12T14:01:04Z</time></trkpt><trkpt lat="44.58182640269755" lon="8.885610049507772"><ele>799.0</ele><time>2026-04-12T14:01:05Z</time></trkpt><trkpt lat="44.58189060613848" lon="8.885527239535676"><ele>799.0</ele><time>2026-04-12T14:01:06Z</time></trkpt><trkpt lat="44.581949049338085" lon="8.885433355269468"><ele>798.9999999999999</ele><time>2026-04-12T14:01:07Z</time></trkpt><trkpt lat="44.58200017813014" lon="8.885347834594752"><ele>799.0</ele><time>2026-04-12T14:01:08Z</time></trkpt><trkpt lat="44.5820501619469" lon="8.88526093110933"><ele>799.1666666666666</ele><time>2026-04-12T14:01:09Z</time></trkpt><trkpt lat="44.582093333848086" lon="8.885186427194158"><ele>799.3333333333333</ele><time>2026-04-12T14:01:10Z</time></trkpt><trkpt lat="44.58213444176302" lon="8.885113890557673"><ele>799.5</ele><time>2026-04-12T14:01:11Z</time></trkpt><trkpt lat="44.58217796927767" lon="8.885044666060645"><ele>799.6666666666667</ele><time>2026-04-12T14:01:12Z</time></trkpt><trkpt lat="44.582262049030795" lon="8.884919307149508"><ele>799.8333333333334</ele><time>2026-04-12T14:01:14Z</time></trkpt><trkpt lat="44.582313147992906" lon="8.884849871044878"><ele>800.0</ele><time>2026-04-12T14:01:15Z</time></trkpt><trkpt lat="44.58235935549176" lon="8.884778487458362"><ele>800.0000000000001</ele><time>2026-04-12T14:01:16Z</time></trkpt><trkpt lat="44.58240963768148" lon="8.88470189130531"><ele>800.0</ele><time>2026-04-12T14:01:17Z</time></trkpt><trkpt lat="44.58246387975229" lon="8.884623776080751"><ele>800.0</ele><time>2026-04-12T14:01:18Z</time></trkpt><trkpt lat="44.582522323822054" lon="8.884550707564145"><ele>800.0</ele><time>2026-04-12T14:01:19Z</time></trkpt><trkpt lat="44.5825842402204" lon="8.88447974804164"><ele>800.0000000000001</ele><time>2026-04-12T14:01:20Z</time></trkpt><trkpt lat="44.5826516916961" lon="8.884409592068218"><ele>800.0</ele><time>2026-04-12T14:01:21Z</time></trkpt><trkpt lat="44.58272082120012" lon="8.884333739496535"><ele>798.6</ele><time>2026-04-12T14:01:22Z</time></trkpt><trkpt lat="44.58278668385524" lon="8.884249590899051"><ele>797.2</ele><time>2026-04-12T14:01:23Z</time></trkpt><trkpt lat="44.58284222746662" lon="8.884167594676805"><ele>795.8</ele><time>2026-04-12T14:01:24Z</time></trkpt><trkpt lat="44.58291619787474" lon="8.884036019734033"><ele>794.4</ele><time>2026-04-12T14:01:26Z</time></trkpt><trkpt lat="44.58295423433231" lon="8.883953585016823"><ele>793.0</ele><time>2026-04-12T14:01:27Z</time></trkpt><trkpt lat="44.58302806842846" lon="8.883814725175652"><ele>792.4999999999999</ele><time>2026-04-12T14:01:29Z</time></trkpt><trkpt lat="44.583087460784995" lon="8.883665291062217"><ele>792.0</ele><time>2026-04-12T14:01:31Z</time></trkpt><trkpt lat="44.58309044079352" lon="8.883573434842605"><ele>791.5</ele><time>2026-04-12T14:01:32Z</time></trkpt><trkpt lat="44.58307359622028" lon="8.883479819711951"><ele>791.0</ele><time>2026-04-12T14:01:33Z</time></trkpt><trkpt lat="44.583052647127175" lon="8.883387476500767"><ele>790.4999999999999</ele><time>2026-04-12T14:01:34Z</time></trkpt><trkpt lat="44.583024420569004" lon="8.883231222550418"><ele>790.0</ele><time>2026-04-12T14:01:36Z</time></trkpt><trkpt lat="44.58300614587" lon="8.883093157152123"><ele>792.2</ele><time>2026-04-12T14:01:38Z</time></trkpt><trkpt lat="44.58302593904191" lon="8.882965016020178"><ele>794.4</ele><time>2026-04-12T14:01:40Z</time></trkpt><trkpt lat="44.583089213381136" lon="8.882825788222739"><ele>796.5999999999999</ele><time>2026-04-12T14:01:42Z</time></trkpt><trkpt lat="44.58317724052482" lon="8.8827174181261"><ele>798.8</ele><time>2026-04-12T14:01:44Z</time></trkpt><trkpt lat="44.58322785212607" lon="8.882657980175331"><ele>801.0</ele><time>2026-04-12T14:01:45Z</time></trkpt><trkpt lat="44.58327836729454" lon="8.882603775840185"><ele>801.0</ele><time>2026-04-12T14:01:46Z</time></trkpt><trkpt lat="44.58333521314254" lon="8.882556438844457"><ele>801.0</ele><time>2026-04-12T14:01:47Z</time></trkpt><trkpt lat="44.58338776567117" lon="8.882507492078613"><ele>801.0</ele><time>2026-04-12T14:01:48Z</time></trkpt><trkpt lat="44.58347281764718" lon="8.88243822271275"><ele>801.0</ele><time>2026-04-12T14:01:50Z</time></trkpt><trkpt lat="44.58358664313932" lon="8.88243484891007"><ele>801.0</ele><time>2026-04-12T14:01:52Z</time></trkpt><trkpt lat="44.58368026167434" lon="8.882473200075744"><ele>801.0</ele><time>2026-04-12T14:01:54Z</time></trkpt><trkpt lat="44.58375994012926" lon="8.882526984644969"><ele>801.0</ele><time>2026-04-12T14:01:56Z</time></trkpt><trkpt lat="44.58387493521639" lon="8.88257160890743"><ele>801.0</ele><time>2026-04-12T14:01:58Z</time></trkpt><trkpt lat="44.58394142996128" lon="8.882597502711613"><ele>801.0</ele><time>2026-04-12T14:01:59Z</time></trkpt><trkpt lat="44.58400405393763" lon="8.882632100096608"><ele>801.0</ele><time>2026-04-12T14:02:00Z</time></trkpt><trkpt lat="44.5840620045006" lon="8.882667582297646"><ele>801.0</ele><time>2026-04-12T14:02:01Z</time></trkpt><trkpt lat="44.58414452706796" lon="8.882724545953351"><ele>801.0</ele><time>2026-04-12T14:02:03Z</time></trkpt><trkpt lat="44.58420624758583" lon="8.88276146099983"><ele>799.6666666666666</ele><time>2026-04-12T14:02:05Z</time></trkpt><trkpt lat="44.58427238286424" lon="8.882805511749627"><ele>798.3333333333333</ele><time>2026-04-12T14:02:07Z</time></trkpt><trkpt lat="44.58434218270388" lon="8.88284895192172"><ele>797.0</ele><time>2026-04-12T14:02:10Z</time></trkpt><trkpt lat="44.58440149189597" lon="8.882896805887338"><ele>795.6666666666666</ele><time>2026-04-12T14:02:13Z</time></trkpt><trkpt lat="44.584488064939855" lon="8.882968863595194"><ele>794.3333333333333</ele><time>2026-04-12T14:02:16Z</time></trkpt><trkpt lat="44.58456623791229" lon="8.883010297663438"><ele>793.0</ele><time>2026-04-12T14:02:18Z</time></trkpt><trkpt lat="44.58463932268957" lon="8.883044052283102"><ele>790.6666666666666</ele><time>2026-04-12T14:02:20Z</time></trkpt><trkpt lat="44.584701348375994" lon="8.883080512433112"><ele>788.3333333333333</ele><time>2026-04-12T14:02:23Z</time></trkpt><trkpt lat="44.58476180918361" lon="8.883105991882239"><ele>786.0</ele><time>2026-04-12T14:02:25Z</time></trkpt><trkpt lat="44.584829269894335" lon="8.883134975657915"><ele>783.6666666666667</ele><time>2026-04-12T14:02:27Z</time></trkpt><trkpt lat="44.58493686464045" lon="8.883173154917559"><ele>781.3333333333334</ele><time>2026-04-12T14:02:31Z</time></trkpt><trkpt lat="44.58503591096656" lon="8.88321682154572"><ele>779.0</ele><time>2026-04-12T14:02:33Z</time></trkpt><trkpt lat="44.58511413745026" lon="8.883255277337028"><ele>779.0000000000001</ele><time>2026-04-12T14:02:35Z</time></trkpt><trkpt lat="44.58519090060925" lon="8.88331208224768"><ele>779.0</ele><time>2026-04-12T14:02:40Z</time></trkpt><trkpt lat="44.58526981001294" lon="8.88332806598231"><ele>779.0</ele><time>2026-04-12T14:02:42Z</time></trkpt><trkpt lat="44.58535261680447" lon="8.883314703943485"><ele>779.0</ele><time>2026-04-12T14:02:45Z</time></trkpt><trkpt lat="44.58541931237091" lon="8.883235443567724"><ele>779.0000000000001</ele><time>2026-04-12T14:02:55Z</time></trkpt><trkpt lat="44.58547566339409" lon="8.883183327849872"><ele>779.0</ele><time>2026-04-12T14:02:58Z</time></trkpt><trkpt lat="44.58553433699383" lon="8.883127151562876"><ele>773.1666666666667</ele><time>2026-04-12T14:03:01Z</time></trkpt><trkpt lat="44.5855910439304" lon="8.883054958770433"><ele>767.3333333333334</ele><time>2026-04-12T14:03:04Z</time></trkpt><trkpt lat="44.58565879278552" lon="8.882991219511577"><ele>761.5</ele><time>2026-04-12T14:03:07Z</time></trkpt><trkpt lat="44.58573679184477" lon="8.882924438209804"><ele>755.6666666666667</ele><time>2026-04-12T14:03:11Z</time></trkpt><trkpt lat="44.585817900682315" lon="8.882835117806149"><ele>749.8333333333334</ele><time>2026-04-12T14:03:14Z</time></trkpt><trkpt lat="44.58589079072413" lon="8.882764615717273"><ele>744.0</ele><time>2026-04-12T14:03:16Z</time></trkpt><trkpt lat="44.585987074440425" lon="8.88268631968097"><ele>743.0</ele><time>2026-04-12T14:03:18Z</time></trkpt><trkpt lat="44.58607864794579" lon="8.882592058680236"><ele>742.0</ele><time>2026-04-12T14:03:20Z</time></trkpt><trkpt lat="44.58611548751533" lon="8.882517613109504"><ele>741.0</ele><time>2026-04-12T14:03:22Z</time></trkpt><trkpt lat="44.58617518434983" lon="8.88241733249923"><ele>740.0</ele><time>2026-04-12T14:03:24Z</time></trkpt><trkpt lat="44.58621998695267" lon="8.882337363981401"><ele>739.0</ele><time>2026-04-12T14:03:25Z</time></trkpt><trkpt lat="44.58626842426105" lon="8.88225547313198"><ele>738.0</ele><time>2026-04-12T14:03:26Z</time></trkpt><trkpt lat="44.58630710517329" lon="8.882171993489392"><ele>738.0</ele><time>2026-04-12T14:03:27Z</time></trkpt><trkpt lat="44.586325230432095" lon="8.882078282642297"><ele>738.0</ele><time>2026-04-12T14:03:29Z</time></trkpt><trkpt lat="44.586247306424184" lon="8.88212909462996"><ele>738.0</ele><time>2026-04-12T14:05:33Z</time></trkpt><trkpt lat="44.586212529346994" lon="8.882326282472228"><ele>738.0</ele><time>2026-04-12T14:05:35Z</time></trkpt><trkpt lat="44.586163227176485" lon="8.882451663046437"><ele>738.0</ele><time>2026-04-12T14:05:36Z</time></trkpt><trkpt lat="44.58621877433176" lon="8.882659076674829"><ele>739.2</ele><time>2026-04-12T14:05:37Z</time></trkpt><trkpt lat="44.586174146615896" lon="8.88274077169029"><ele>740.4</ele><time>2026-04-12T14:05:38Z</time></trkpt><trkpt lat="44.58610938116826" lon="8.882865761085295"><ele>741.6</ele><time>2026-04-12T14:05:40Z</time></trkpt><trkpt lat="44.58606964202378" lon="8.88297967967208"><ele>742.8000000000001</ele><time>2026-04-12T14:05:42Z</time></trkpt><trkpt lat="44.586041790381216" lon="8.883070900692005"><ele>744.0</ele><time>2026-04-12T14:05:44Z</time></trkpt><trkpt lat="44.58573268927923" lon="8.882919253900543"><ele>744.0</ele><time>2026-04-12T14:05:45Z</time></trkpt><trkpt lat="44.58566166109185" lon="8.882958890231219"><ele>744.0</ele><time>2026-04-12T14:05:48Z</time></trkpt><trkpt lat="44.58575107574209" lon="8.882908742551711"><ele>744.0</ele><time>2026-04-12T14:06:21Z</time></trkpt><trkpt lat="44.58583226726695" lon="8.882835996208804"><ele>744.0</ele><time>2026-04-12T14:06:23Z</time></trkpt><trkpt lat="44.58589878497289" lon="8.88276879605696"><ele>744.0</ele><time>2026-04-12T14:06:25Z</time></trkpt><trkpt lat="44.58597818580357" lon="8.882701955913682"><ele>744.0</ele><time>2026-04-12T14:06:27Z</time></trkpt><trkpt lat="44.58604940691174" lon="8.882633861831161"><ele>743.0</ele><time>2026-04-12T14:06:29Z</time></trkpt><trkpt lat="44.58611001014948" lon="8.882532220087157"><ele>742.0</ele><time>2026-04-12T14:06:31Z</time></trkpt><trkpt lat="44.58617806818818" lon="8.88239452864146"><ele>741.0</ele><time>2026-04-12T14:06:33Z</time></trkpt><trkpt lat="44.58621531954012" lon="8.882309408846082"><ele>740.0</ele><time>2026-04-12T14:06:34Z</time></trkpt><trkpt lat="44.586253322747964" lon="8.882229359884638"><ele>739.0</ele><time>2026-04-12T14:06:35Z</time></trkpt><trkpt lat="44.58630463015467" lon="8.882120609079935"><ele>738.0</ele><time>2026-04-12T14:06:37Z</time></trkpt><trkpt lat="44.58631681700233" lon="8.882016665636316"><ele>738.0</ele><time>2026-04-12T14:06:41Z</time></trkpt><trkpt lat="44.58629930401906" lon="8.882139367827996"><ele>738.0</ele><time>2026-04-12T14:06:53Z</time></trkpt><trkpt lat="44.58626243370542" lon="8.882242287741475"><ele>738.0</ele><time>2026-04-12T14:06:54Z</time></trkpt><trkpt lat="44.58620474727707" lon="8.882361542285773"><ele>738.0</ele><time>2026-04-12T14:06:55Z</time></trkpt><trkpt lat="44.58614354662362" lon="8.882469024883342"><ele>738.0</ele><time>2026-04-12T14:06:56Z</time></trkpt><trkpt lat="44.58608671729696" lon="8.882564948888168"><ele>739.0</ele><time>2026-04-12T14:06:57Z</time></trkpt><trkpt lat="44.58602929996398" lon="8.882645174478476"><ele>740.0</ele><time>2026-04-12T14:06:58Z</time></trkpt><trkpt lat="44.58597392705173" lon="8.88270421182693"><ele>741.0</ele><time>2026-04-12T14:06:59Z</time></trkpt><trkpt lat="44.58591710391059" lon="8.882756099086775"><ele>742.0</ele><time>2026-04-12T14:07:00Z</time></trkpt><trkpt lat="44.58582125274685" lon="8.882838526807335"><ele>743.0</ele><time>2026-04-12T14:07:02Z</time></trkpt><trkpt lat="44.58577041809587" lon="8.88290140653581"><ele>744.0</ele><time>2026-04-12T14:07:05Z</time></trkpt><trkpt lat="44.585833096625976" lon="8.88283505310903"><ele>744.0</ele><time>2026-04-12T14:07:26Z</time></trkpt><trkpt lat="44.58589952127988" lon="8.882770754723362"><ele>744.0</ele><time>2026-04-12T14:07:28Z</time></trkpt><trkpt lat="44.585993530870496" lon="8.882689383950295"><ele>744.0</ele><time>2026-04-12T14:07:30Z</time></trkpt><trkpt lat="44.586081276566986" lon="8.882592908219717"><ele>744.0</ele><time>2026-04-12T14:07:32Z</time></trkpt><trkpt lat="44.586122566164356" lon="8.882523654504642"><ele>744.0</ele><time>2026-04-12T14:07:33Z</time></trkpt><trkpt lat="44.58616635878732" lon="8.882441973878933"><ele>744.0</ele><time>2026-04-12T14:07:34Z</time></trkpt><trkpt lat="44.58639778653727" lon="8.882431630915386"><ele>738.2</ele><time>2026-04-12T14:07:36Z</time></trkpt><trkpt lat="44.58643652869211" lon="8.882338087741532"><ele>732.4000000000001</ele><time>2026-04-12T14:07:37Z</time></trkpt><trkpt lat="44.58646375318954" lon="8.882257916858217"><ele>726.6</ele><time>2026-04-12T14:07:38Z</time></trkpt><trkpt lat="44.58631258085168" lon="8.882131391316662"><ele>720.8</ele><time>2026-04-12T14:07:40Z</time></trkpt><trkpt lat="44.58635098038932" lon="8.882006206836042"><ele>715.0</ele><time>2026-04-12T14:08:38Z</time></trkpt><trkpt lat="44.586375026290106" lon="8.881922009238252"><ele>715.0</ele><time>2026-04-12T14:08:40Z</time></trkpt><trkpt lat="44.58640657492718" lon="8.88181943821286"><ele>715.0</ele><time>2026-04-12T14:08:43Z</time></trkpt><trkpt lat="44.58644250827587" lon="8.881730223012884"><ele>715.0</ele><time>2026-04-12T14:08:45Z</time></trkpt><trkpt lat="44.5864939439067" lon="8.881598116947991"><ele>715.0</ele><time>2026-04-12T14:08:47Z</time></trkpt><trkpt lat="44.58653799677697" lon="8.88141626124064"><ele>715.0</ele><time>2026-04-12T14:08:49Z</time></trkpt><trkpt lat="44.58656507182024" lon="8.88132394215478"><ele>715.0</ele><time>2026-04-12T14:08:50Z</time></trkpt><trkpt lat="44.58659931757177" lon="8.881231602064044"><ele>715.0</ele><time>2026-04-12T14:08:51Z</time></trkpt><trkpt lat="44.586647664489035" lon="8.881134361186371"><ele>715.0</ele><time>2026-04-12T14:08:52Z</time></trkpt><trkpt lat="44.586695592171665" lon="8.881044822596866"><ele>715.0</ele><time>2026-04-12T14:08:53Z</time></trkpt><trkpt lat="44.58673558449982" lon="8.88096131301963"><ele>715.0</ele><time>2026-04-12T14:08:54Z</time></trkpt><trkpt lat="44.58677458551211" lon="8.880879179077997"><ele>715.0</ele><time>2026-04-12T14:08:55Z</time></trkpt><trkpt lat="44.58681737073577" lon="8.880797895423013"><ele>715.0</ele><time>2026-04-12T14:08:56Z</time></trkpt><trkpt lat="44.586861162188775" lon="8.880724056230218"><ele>715.0</ele><time>2026-04-12T14:08:57Z</time></trkpt><trkpt lat="44.58690988035165" lon="8.880660956580751"><ele>715.0</ele><time>2026-04-12T14:08:58Z</time></trkpt><trkpt lat="44.58696438257205" lon="8.880595836709379"><ele>715.0</ele><time>2026-04-12T14:08:59Z</time></trkpt><trkpt lat="44.587021824233894" lon="8.88054295212153"><ele>715.0</ele><time>2026-04-12T14:09:00Z</time></trkpt><trkpt lat="44.58709084437476" lon="8.880494600287125"><ele>715.0</ele><time>2026-04-12T14:09:01Z</time></trkpt><trkpt lat="44.58716923306393" lon="8.88046819632662"><ele>715.0</ele><time>2026-04-12T14:09:02Z</time></trkpt><trkpt lat="44.587264825453836" lon="8.880465770622328"><ele>714.0</ele><time>2026-04-12T14:09:03Z</time></trkpt><trkpt lat="44.5873561617259" lon="8.880457270978102"><ele>713.0</ele><time>2026-04-12T14:09:04Z</time></trkpt><trkpt lat="44.587459663536684" lon="8.880454744991129"><ele>712.0</ele><time>2026-04-12T14:09:05Z</time></trkpt><trkpt lat="44.5875591558743" lon="8.880443134856229"><ele>711.0</ele><time>2026-04-12T14:09:06Z</time></trkpt><trkpt lat="44.58765618408762" lon="8.880423026997605"><ele>710.0</ele><time>2026-04-12T14:09:07Z</time></trkpt><trkpt lat="44.587750680192435" lon="8.88038606728805"><ele>710.0</ele><time>2026-04-12T14:09:08Z</time></trkpt><trkpt lat="44.58783953582261" lon="8.88033034238759"><ele>710.0</ele><time>2026-04-12T14:09:09Z</time></trkpt><trkpt lat="44.587928605689875" lon="8.88026799638726"><ele>710.0</ele><time>2026-04-12T14:09:10Z</time></trkpt><trkpt lat="44.588008563553345" lon="8.880193805949768"><ele>710.0</ele><time>2026-04-12T14:09:11Z</time></trkpt><trkpt lat="44.588097082464955" lon="8.880128897279176"><ele>710.0</ele><time>2026-04-12T14:09:12Z</time></trkpt><trkpt lat="44.58818329335506" lon="8.880077636090377"><ele>709.3333333333333</ele><time>2026-04-12T14:09:13Z</time></trkpt><trkpt lat="44.58826894773356" lon="8.880046015803496"><ele>708.6666666666666</ele><time>2026-04-12T14:09:14Z</time></trkpt><trkpt lat="44.588349823987855" lon="8.880010807240248"><ele>708.0</ele><time>2026-04-12T14:09:15Z</time></trkpt><trkpt lat="44.58843061757128" lon="8.879970699207309"><ele>707.3333333333334</ele><time>2026-04-12T14:09:16Z</time></trkpt><trkpt lat="44.588508117825604" lon="8.879932554285832"><ele>706.6666666666667</ele><time>2026-04-12T14:09:17Z</time></trkpt><trkpt lat="44.588585879162366" lon="8.879892775497437"><ele>706.0</ele><time>2026-04-12T14:09:18Z</time></trkpt><trkpt lat="44.58866561554512" lon="8.879851892360291"><ele>705.3333333333334</ele><time>2026-04-12T14:09:19Z</time></trkpt><trkpt lat="44.58874736236756" lon="8.879812316813949"><ele>704.6666666666667</ele><time>2026-04-12T14:09:20Z</time></trkpt><trkpt lat="44.58882926993038" lon="8.879767478499591"><ele>704.0</ele><time>2026-04-12T14:09:21Z</time></trkpt><trkpt lat="44.5889137323019" lon="8.879719486161758"><ele>703.3333333333334</ele><time>2026-04-12T14:09:22Z</time></trkpt><trkpt lat="44.588997902809474" lon="8.879668401438554"><ele>702.6666666666666</ele><time>2026-04-12T14:09:23Z</time></trkpt><trkpt lat="44.589081112861884" lon="8.879622869657558"><ele>702.0</ele><time>2026-04-12T14:09:24Z</time></trkpt><trkpt lat="44.58916664403864" lon="8.879572633427097"><ele>702.0</ele><time>2026-04-12T14:09:25Z</time></trkpt><trkpt lat="44.589248449769464" lon="8.879518507255908"><ele>702.0</ele><time>2026-04-12T14:09:26Z</time></trkpt><trkpt lat="44.5893267806453" lon="8.879471758229878"><ele>702.0</ele><time>2026-04-12T14:09:27Z</time></trkpt><trkpt lat="44.58941289962131" lon="8.879424323154076"><ele>702.0</ele><time>2026-04-12T14:09:28Z</time></trkpt><trkpt lat="44.58950090631292" lon="8.879372281378425"><ele>702.0</ele><time>2026-04-12T14:09:29Z</time></trkpt><trkpt lat="44.589587203259015" lon="8.879313166211064"><ele>704.6</ele><time>2026-04-12T14:09:30Z</time></trkpt><trkpt lat="44.589670953199004" lon="8.879246900248114"><ele>707.2</ele><time>2026-04-12T14:09:31Z</time></trkpt><trkpt lat="44.5897549486544" lon="8.879181490128268"><ele>709.8</ele><time>2026-04-12T14:09:32Z</time></trkpt><trkpt lat="44.58983683743749" lon="8.879112462449763"><ele>712.4</ele><time>2026-04-12T14:09:33Z</time></trkpt><trkpt lat="44.58991392330497" lon="8.879046026281266"><ele>715.0</ele><time>2026-04-12T14:09:34Z</time></trkpt><trkpt lat="44.58998956594866" lon="8.878982412513327"><ele>715.0</ele><time>2026-04-12T14:09:35Z</time></trkpt><trkpt lat="44.59006552958041" lon="8.878922670223899"><ele>715.0</ele><time>2026-04-12T14:09:36Z</time></trkpt><trkpt lat="44.590140035146526" lon="8.878868649099582"><ele>715.0</ele><time>2026-04-12T14:09:37Z</time></trkpt><trkpt lat="44.590214280517095" lon="8.878818442475295"><ele>715.0</ele><time>2026-04-12T14:09:38Z</time></trkpt><trkpt lat="44.590286735171276" lon="8.878778427305862"><ele>715.0</ele><time>2026-04-12T14:09:39Z</time></trkpt><trkpt lat="44.59036321680659" lon="8.878734918732373"><ele>715.0</ele><time>2026-04-12T14:09:40Z</time></trkpt><trkpt lat="44.59044543238411" lon="8.878695540061715"><ele>716.6666666666667</ele><time>2026-04-12T14:09:41Z</time></trkpt><trkpt lat="44.59052555652363" lon="8.878655807153555"><ele>718.3333333333334</ele><time>2026-04-12T14:09:42Z</time></trkpt><trkpt lat="44.590604875865026" lon="8.878624340263489"><ele>720.0</ele><time>2026-04-12T14:09:43Z</time></trkpt><trkpt lat="44.59068818519357" lon="8.878609450568293"><ele>721.6666666666666</ele><time>2026-04-12T14:09:44Z</time></trkpt><trkpt lat="44.59077562757944" lon="8.87859806421707"><ele>723.3333333333333</ele><time>2026-04-12T14:09:45Z</time></trkpt><trkpt lat="44.590857416020754" lon="8.87857996230157"><ele>725.0</ele><time>2026-04-12T14:09:46Z</time></trkpt><trkpt lat="44.590939919928005" lon="8.87856704543845"><ele>725.0</ele><time>2026-04-12T14:09:47Z</time></trkpt><trkpt lat="44.591017058628154" lon="8.878558523956888"><ele>725.0</ele><time>2026-04-12T14:09:48Z</time></trkpt><trkpt lat="44.591084888023815" lon="8.878426407425996"><ele>725.0</ele><time>2026-04-12T14:09:49Z</time></trkpt><trkpt lat="44.59115302812492" lon="8.878373497501885"><ele>725.0</ele><time>2026-04-12T14:09:50Z</time></trkpt><trkpt lat="44.591229309852814" lon="8.878326490907488"><ele>725.0</ele><time>2026-04-12T14:09:51Z</time></trkpt><trkpt lat="44.59130453701086" lon="8.878279053033479"><ele>725.0</ele><time>2026-04-12T14:09:52Z</time></trkpt><trkpt lat="44.59138991419564" lon="8.878233226447588"><ele>724.2</ele><time>2026-04-12T14:09:53Z</time></trkpt><trkpt lat="44.59146759876799" lon="8.8781975335805"><ele>723.4</ele><time>2026-04-12T14:09:54Z</time></trkpt><trkpt lat="44.591536978658695" lon="8.878150625819746"><ele>722.5999999999999</ele><time>2026-04-12T14:09:55Z</time></trkpt><trkpt lat="44.591604242555974" lon="8.878132490277203"><ele>721.8</ele><time>2026-04-12T14:09:56Z</time></trkpt><trkpt lat="44.591611551573166" lon="8.877870147631223"><ele>721.0</ele><time>2026-04-12T14:09:58Z</time></trkpt><trkpt lat="44.59166580880903" lon="8.877740238514477"><ele>721.0</ele><time>2026-04-12T14:10:00Z</time></trkpt><trkpt lat="44.59174366231801" lon="8.87769845860519"><ele>721.0</ele><time>2026-04-12T14:10:01Z</time></trkpt><trkpt lat="44.59179334003222" lon="8.87759090718747"><ele>721.0</ele><time>2026-04-12T14:10:02Z</time></trkpt><trkpt lat="44.591849998589005" lon="8.877476333159109"><ele>721.0</ele><time>2026-04-12T14:10:03Z</time></trkpt><trkpt lat="44.591873259028944" lon="8.877326572592397"><ele>721.0</ele><time>2026-04-12T14:10:04Z</time></trkpt><trkpt lat="44.591889397873636" lon="8.877193445599268"><ele>719.1999999999999</ele><time>2026-04-12T14:10:05Z</time></trkpt><trkpt lat="44.59190324206631" lon="8.877053471356021"><ele>717.4</ele><time>2026-04-12T14:10:06Z</time></trkpt><trkpt lat="44.591909191754155" lon="8.876912582614432"><ele>715.6</ele><time>2026-04-12T14:10:07Z</time></trkpt><trkpt lat="44.59191001176398" lon="8.876776917663156"><ele>713.8</ele><time>2026-04-12T14:10:08Z</time></trkpt><trkpt lat="44.59189026801518" lon="8.876640142300621"><ele>712.0</ele><time>2026-04-12T14:10:09Z</time></trkpt><trkpt lat="44.59188495151839" lon="8.876499322347907"><ele>709.6</ele><time>2026-04-12T14:10:10Z</time></trkpt><trkpt lat="44.591880093203486" lon="8.87635464772298"><ele>707.2</ele><time>2026-04-12T14:10:11Z</time></trkpt><trkpt lat="44.591881251597805" lon="8.876207555954695"><ele>704.8</ele><time>2026-04-12T14:10:12Z</time></trkpt><trkpt lat="44.59189243604155" lon="8.876062733464076"><ele>702.4</ele><time>2026-04-12T14:10:13Z</time></trkpt><trkpt lat="44.59190576137093" lon="8.875918578117028"><ele>700.0</ele><time>2026-04-12T14:10:14Z</time></trkpt><trkpt lat="44.59191018042327" lon="8.875779851873991"><ele>698.4</ele><time>2026-04-12T14:10:15Z</time></trkpt><trkpt lat="44.591885332015494" lon="8.875652034966206"><ele>696.8</ele><time>2026-04-12T14:10:16Z</time></trkpt><trkpt lat="44.591837278303245" lon="8.87553936519248"><ele>695.2</ele><time>2026-04-12T14:10:17Z</time></trkpt><trkpt lat="44.591771498781206" lon="8.87543790453003"><ele>693.6</ele><time>2026-04-12T14:10:18Z</time></trkpt><trkpt lat="44.591692777236226" lon="8.875357014228925"><ele>692.0</ele><time>2026-04-12T14:10:19Z</time></trkpt><trkpt lat="44.591609189103906" lon="8.875301311047961"><ele>692.0</ele><time>2026-04-12T14:10:20Z</time></trkpt><trkpt lat="44.59151809560224" lon="8.875261706904071"><ele>692.0</ele><time>2026-04-12T14:10:21Z</time></trkpt><trkpt lat="44.591436160621775" lon="8.875225433781702"><ele>692.0</ele><time>2026-04-12T14:10:22Z</time></trkpt><trkpt lat="44.59135696586703" lon="8.875170206068866"><ele>692.0</ele><time>2026-04-12T14:10:23Z</time></trkpt><trkpt lat="44.59131518956486" lon="8.87507416456429"><ele>692.0</ele><time>2026-04-12T14:10:24Z</time></trkpt><trkpt lat="44.59130548553086" lon="8.874952368168119"><ele>692.0</ele><time>2026-04-12T14:10:25Z</time></trkpt><trkpt lat="44.59131739964912" lon="8.874826006503946"><ele>691.4000000000001</ele><time>2026-04-12T14:10:26Z</time></trkpt><trkpt lat="44.59133772762941" lon="8.874689850303033"><ele>690.8000000000001</ele><time>2026-04-12T14:10:27Z</time></trkpt><trkpt lat="44.59134241122031" lon="8.874558515627113"><ele>690.2</ele><time>2026-04-12T14:10:28Z</time></trkpt><trkpt lat="44.59133135202288" lon="8.874431272406607"><ele>689.6</ele><time>2026-04-12T14:10:29Z</time></trkpt><trkpt lat="44.591309694246476" lon="8.874308975978455"><ele>689.0</ele><time>2026-04-12T14:10:30Z</time></trkpt><trkpt lat="44.59128110338577" lon="8.874191479750033"><ele>688.0</ele><time>2026-04-12T14:10:31Z</time></trkpt><trkpt lat="44.59123741673037" lon="8.874079591442985"><ele>687.0</ele><time>2026-04-12T14:10:32Z</time></trkpt><trkpt lat="44.59119139618719" lon="8.873972847046765"><ele>686.0</ele><time>2026-04-12T14:10:33Z</time></trkpt><trkpt lat="44.59115071201503" lon="8.873861208283934"><ele>685.0</ele><time>2026-04-12T14:10:34Z</time></trkpt><trkpt lat="44.591116464585134" lon="8.873744246077692"><ele>684.0</ele><time>2026-04-12T14:10:35Z</time></trkpt><trkpt lat="44.591089823493235" lon="8.873619210060353"><ele>682.2</ele><time>2026-04-12T14:10:36Z</time></trkpt><trkpt lat="44.59107378848884" lon="8.873489944732741"><ele>680.4000000000001</ele><time>2026-04-12T14:10:37Z</time></trkpt><trkpt lat="44.59105642160735" lon="8.873362184781584"><ele>678.6</ele><time>2026-04-12T14:10:38Z</time></trkpt><trkpt lat="44.59101647044715" lon="8.873246398608064"><ele>676.8</ele><time>2026-04-12T14:10:39Z</time></trkpt><trkpt lat="44.59095284319236" lon="8.873148953343389"><ele>675.0</ele><time>2026-04-12T14:10:40Z</time></trkpt><trkpt lat="44.590882533818956" lon="8.8730655693576"><ele>675.0</ele><time>2026-04-12T14:10:41Z</time></trkpt><trkpt lat="44.59081337247462" lon="8.872999163552818"><ele>675.0</ele><time>2026-04-12T14:10:42Z</time></trkpt><trkpt lat="44.59075277419288" lon="8.872935208786457"><ele>675.0</ele><time>2026-04-12T14:10:43Z</time></trkpt><trkpt lat="44.590739273849174" lon="8.872774703352256"><ele>675.0</ele><time>2026-04-12T14:10:45Z</time></trkpt><trkpt lat="44.590794454786895" lon="8.872695665103722"><ele>675.0</ele><time>2026-04-12T14:10:46Z</time></trkpt><trkpt lat="44.590888084568824" lon="8.872643027902187"><ele>675.0</ele><time>2026-04-12T14:10:47Z</time></trkpt><trkpt lat="44.59098262253883" lon="8.87262605387201"><ele>675.0</ele><time>2026-04-12T14:10:48Z</time></trkpt><trkpt lat="44.5910753110422" lon="8.872635817898166"><ele>675.0</ele><time>2026-04-12T14:10:49Z</time></trkpt><trkpt lat="44.59116746362409" lon="8.872666684611358"><ele>675.0</ele><time>2026-04-12T14:10:50Z</time></trkpt><trkpt lat="44.59126726022298" lon="8.872676790589649"><ele>675.0</ele><time>2026-04-12T14:10:51Z</time></trkpt><trkpt lat="44.59136027717339" lon="8.872637636601855"><ele>674.4</ele><time>2026-04-12T14:10:52Z</time></trkpt><trkpt lat="44.59145231845275" lon="8.872572530991786"><ele>673.8</ele><time>2026-04-12T14:10:53Z</time></trkpt><trkpt lat="44.5915310123005" lon="8.872484350678622"><ele>673.2</ele><time>2026-04-12T14:10:54Z</time></trkpt><trkpt lat="44.591596420770976" lon="8.872382562286361"><ele>672.6</ele><time>2026-04-12T14:10:55Z</time></trkpt><trkpt lat="44.5916476528788" lon="8.872262470999608"><ele>672.0</ele><time>2026-04-12T14:10:56Z</time></trkpt><trkpt lat="44.591694688492446" lon="8.872139850114488"><ele>672.0</ele><time>2026-04-12T14:10:57Z</time></trkpt><trkpt lat="44.59174106911402" lon="8.87200793401733"><ele>672.0</ele><time>2026-04-12T14:10:58Z</time></trkpt><trkpt lat="44.591790514192084" lon="8.871880265760623"><ele>672.0</ele><time>2026-04-12T14:10:59Z</time></trkpt><trkpt lat="44.59184324268871" lon="8.871763356783227"><ele>672.0</ele><time>2026-04-12T14:11:00Z</time></trkpt><trkpt lat="44.591886114454546" lon="8.871684005452765"><ele>672.0</ele><time>2026-04-12T14:11:01Z</time></trkpt><trkpt lat="44.59199295974099" lon="8.871638456685542"><ele>669.8333333333334</ele><time>2026-04-12T14:11:03Z</time></trkpt><trkpt lat="44.59206834713279" lon="8.871681652801445"><ele>667.6666666666666</ele><time>2026-04-12T14:11:04Z</time></trkpt><trkpt lat="44.59214871980344" lon="8.871754875649223"><ele>665.5</ele><time>2026-04-12T14:11:05Z</time></trkpt><trkpt lat="44.592231804638836" lon="8.871814170729813"><ele>663.3333333333333</ele><time>2026-04-12T14:11:06Z</time></trkpt><trkpt lat="44.592308693703785" lon="8.871860732525274"><ele>661.1666666666666</ele><time>2026-04-12T14:11:07Z</time></trkpt><trkpt lat="44.59238382713178" lon="8.871909224606288"><ele>659.0</ele><time>2026-04-12T14:11:08Z</time></trkpt><trkpt lat="44.59245716264905" lon="8.871962131367285"><ele>659.0</ele><time>2026-04-12T14:11:09Z</time></trkpt><trkpt lat="44.59252917219262" lon="8.872033302207418"><ele>659.0</ele><time>2026-04-12T14:11:10Z</time></trkpt><trkpt lat="44.592602731183526" lon="8.872115094666716"><ele>659.0</ele><time>2026-04-12T14:11:11Z</time></trkpt><trkpt lat="44.59267658615792" lon="8.872203227431246"><ele>659.0</ele><time>2026-04-12T14:11:12Z</time></trkpt><trkpt lat="44.592745245715946" lon="8.872297453162417"><ele>659.0</ele><time>2026-04-12T14:11:13Z</time></trkpt><trkpt lat="44.59280607936188" lon="8.872400827034818"><ele>656.2</ele><time>2026-04-12T14:11:14Z</time></trkpt><trkpt lat="44.59286459559315" lon="8.87250587965522"><ele>653.4000000000001</ele><time>2026-04-12T14:11:15Z</time></trkpt><trkpt lat="44.592918892868624" lon="8.872613963592208"><ele>650.6</ele><time>2026-04-12T14:11:16Z</time></trkpt><trkpt lat="44.59297061354188" lon="8.872718332729256"><ele>647.8</ele><time>2026-04-12T14:11:17Z</time></trkpt><trkpt lat="44.59302101625646" lon="8.872817407050016"><ele>645.0</ele><time>2026-04-12T14:11:18Z</time></trkpt><trkpt lat="44.59307083513945" lon="8.872926698915082"><ele>645.0</ele><time>2026-04-12T14:11:19Z</time></trkpt><trkpt lat="44.59308492347633" lon="8.873049322557383"><ele>645.0</ele><time>2026-04-12T14:11:20Z</time></trkpt><trkpt lat="44.59311070650626" lon="8.873164170249096"><ele>645.0</ele><time>2026-04-12T14:11:21Z</time></trkpt><trkpt lat="44.59315130383252" lon="8.873269190788825"><ele>645.0</ele><time>2026-04-12T14:11:22Z</time></trkpt><trkpt lat="44.59320092975526" lon="8.873349337867282"><ele>645.0</ele><time>2026-04-12T14:11:23Z</time></trkpt><trkpt lat="44.593257473433795" lon="8.87342009310457"><ele>645.0</ele><time>2026-04-12T14:11:24Z</time></trkpt><trkpt lat="44.59332178135855" lon="8.873469866245543"><ele>645.8333333333334</ele><time>2026-04-12T14:11:25Z</time></trkpt><trkpt lat="44.593399487510645" lon="8.87351607294882"><ele>646.6666666666666</ele><time>2026-04-12T14:11:26Z</time></trkpt><trkpt lat="44.593495114441495" lon="8.873533297512337"><ele>647.5</ele><time>2026-04-12T14:11:27Z</time></trkpt><trkpt lat="44.593580710432576" lon="8.873540185153566"><ele>648.3333333333333</ele><time>2026-04-12T14:11:28Z</time></trkpt><trkpt lat="44.59365997695872" lon="8.873531209281492"><ele>649.1666666666666</ele><time>2026-04-12T14:11:29Z</time></trkpt><trkpt lat="44.59374077886223" lon="8.87353407587051"><ele>650.0</ele><time>2026-04-12T14:11:30Z</time></trkpt><trkpt lat="44.593813914134344" lon="8.873531389029838"><ele>650.0</ele><time>2026-04-12T14:11:31Z</time></trkpt><trkpt lat="44.593888377365865" lon="8.873532371652407"><ele>650.0</ele><time>2026-04-12T14:11:32Z</time></trkpt><trkpt lat="44.59396156637925" lon="8.873539343296525"><ele>650.0</ele><time>2026-04-12T14:11:33Z</time></trkpt><trkpt lat="44.594033484724804" lon="8.873548316341434"><ele>650.0</ele><time>2026-04-12T14:11:34Z</time></trkpt><trkpt lat="44.594104525504235" lon="8.87355672451797"><ele>650.0</ele><time>2026-04-12T14:11:35Z</time></trkpt><trkpt lat="44.59417367257674" lon="8.87356328442466"><ele>650.0</ele><time>2026-04-12T14:11:36Z</time></trkpt><trkpt lat="44.594238616614206" lon="8.873564015941383"><ele>650.0</ele><time>2026-04-12T14:11:37Z</time></trkpt><trkpt lat="44.59435729290883" lon="8.873571243205093"><ele>650.0</ele><time>2026-04-12T14:11:39Z</time></trkpt><trkpt lat="44.594468573048374" lon="8.873600828008934"><ele>650.0</ele><time>2026-04-12T14:11:41Z</time></trkpt><trkpt lat="44.59454204085953" lon="8.87374248246782"><ele>650.0</ele><time>2026-04-12T14:11:43Z</time></trkpt><trkpt lat="44.59455877355786" lon="8.873837583165523"><ele>650.0</ele><time>2026-04-12T14:11:44Z</time></trkpt><trkpt lat="44.594589553994396" lon="8.873931394701703"><ele>650.0</ele><time>2026-04-12T14:11:45Z</time></trkpt><trkpt lat="44.59464229196745" lon="8.874013391465915"><ele>646.6666666666666</ele><time>2026-04-12T14:11:46Z</time></trkpt><trkpt lat="44.594711891353704" lon="8.874074555532871"><ele>643.3333333333333</ele><time>2026-04-12T14:11:47Z</time></trkpt><trkpt lat="44.59479535363847" lon="8.874103405000792"><ele>640.0</ele><time>2026-04-12T14:11:48Z</time></trkpt><trkpt lat="44.594883078758684" lon="8.87411612576026"><ele>636.6666666666666</ele><time>2026-04-12T14:11:49Z</time></trkpt><trkpt lat="44.59496956206455" lon="8.874127763555407"><ele>633.3333333333334</ele><time>2026-04-12T14:11:50Z</time></trkpt><trkpt lat="44.595052043527346" lon="8.874141445887107"><ele>630.0</ele><time>2026-04-12T14:11:51Z</time></trkpt><trkpt lat="44.595136051766715" lon="8.874142436396028"><ele>630.0</ele><time>2026-04-12T14:11:52Z</time></trkpt><trkpt lat="44.595219120265725" lon="8.874125276023365"><ele>630.0</ele><time>2026-04-12T14:11:53Z</time></trkpt><trkpt lat="44.5952987971906" lon="8.874090309602988"><ele>630.0</ele><time>2026-04-12T14:11:54Z</time></trkpt><trkpt lat="44.59537876955364" lon="8.874045875219029"><ele>630.0</ele><time>2026-04-12T14:11:55Z</time></trkpt><trkpt lat="44.595458278982825" lon="8.87399578221342"><ele>630.0</ele><time>2026-04-12T14:11:56Z</time></trkpt><trkpt lat="44.595529317673616" lon="8.87393857910066"><ele>630.0</ele><time>2026-04-12T14:11:57Z</time></trkpt><trkpt lat="44.59558851959092" lon="8.873870242675645"><ele>629.1666666666666</ele><time>2026-04-12T14:11:58Z</time></trkpt><trkpt lat="44.59565130362885" lon="8.873810230678709"><ele>628.3333333333334</ele><time>2026-04-12T14:11:59Z</time></trkpt><trkpt lat="44.59574931623084" lon="8.873755075550653"><ele>627.5</ele><time>2026-04-12T14:12:01Z</time></trkpt><trkpt lat="44.59583528228745" lon="8.873742593681465"><ele>626.6666666666667</ele><time>2026-04-12T14:12:03Z</time></trkpt><trkpt lat="44.595915440665465" lon="8.873749582290444"><ele>625.8333333333334</ele><time>2026-04-12T14:12:05Z</time></trkpt><trkpt lat="44.59600352656178" lon="8.873747996474568"><ele>625.0</ele><time>2026-04-12T14:12:08Z</time></trkpt><trkpt lat="44.5961065906326" lon="8.873741681489651"><ele>620.3333333333334</ele><time>2026-04-12T14:12:10Z</time></trkpt><trkpt lat="44.59618065624243" lon="8.873761817122267"><ele>615.6666666666666</ele><time>2026-04-12T14:12:13Z</time></trkpt><trkpt lat="44.59627563149363" lon="8.873945939557233"><ele>611.0</ele><time>2026-04-12T14:12:14Z</time></trkpt><trkpt lat="44.59650601720427" lon="8.873757967602291"><ele>608.5</ele><time>2026-04-12T14:12:15Z</time></trkpt><trkpt lat="44.596441388304896" lon="8.873309726172685"><ele>606.0</ele><time>2026-04-12T14:12:21Z</time></trkpt><trkpt lat="44.596208767990426" lon="8.873009171870544"><ele>606.0</ele><time>2026-04-12T14:12:23Z</time></trkpt><trkpt lat="44.596444952266964" lon="8.873202232602624"><ele>606.0</ele><time>2026-04-12T14:12:25Z</time></trkpt><trkpt lat="44.59639103625641" lon="8.873308865695192"><ele>606.0</ele><time>2026-04-12T14:13:29Z</time></trkpt><trkpt lat="44.59633370917565" lon="8.873408481856362"><ele>606.0</ele><time>2026-04-12T14:13:33Z</time></trkpt><trkpt lat="44.596275242419736" lon="8.873480897770433"><ele>606.0</ele><time>2026-04-12T14:13:35Z</time></trkpt><trkpt lat="44.59633538534501" lon="8.873426001640494"><ele>606.0</ele><time>2026-04-12T14:13:42Z</time></trkpt><trkpt lat="44.59638241968549" lon="8.873322335746423"><ele>606.0</ele><time>2026-04-12T14:13:48Z</time></trkpt><trkpt lat="44.59641961271973" lon="8.873233688736583"><ele>606.0</ele><time>2026-04-12T14:13:52Z</time></trkpt><trkpt lat="44.59646891448296" lon="8.873168439554854"><ele>606.0</ele><time>2026-04-12T14:18:42Z</time></trkpt><trkpt lat="44.59651478283352" lon="8.87310115810983"><ele>606.0</ele><time>2026-04-12T14:18:46Z</time></trkpt><trkpt lat="44.59656157227273" lon="8.873030593883545"><ele>606.0</ele><time>2026-04-12T14:18:50Z</time></trkpt><trkpt lat="44.59659795489151" lon="8.872945337630751"><ele>606.0</ele><time>2026-04-12T14:18:53Z</time></trkpt><trkpt lat="44.596644878790244" lon="8.872852290096773"><ele>606.0</ele><time>2026-04-12T14:18:55Z</time></trkpt><trkpt lat="44.596714755563376" lon="8.872731989287958"><ele>606.0</ele><time>2026-04-12T14:18:57Z</time></trkpt><trkpt lat="44.59677075463751" lon="8.872614350329147"><ele>606.0</ele><time>2026-04-12T14:18:59Z</time></trkpt><trkpt lat="44.59684712304319" lon="8.872472766148853"><ele>604.0</ele><time>2026-04-12T14:19:01Z</time></trkpt><trkpt lat="44.59679116956302" lon="8.872263333551809"><ele>602.0</ele><time>2026-04-12T14:19:03Z</time></trkpt><trkpt lat="44.596821046705536" lon="8.872126946498241"><ele>600.0</ele><time>2026-04-12T14:19:06Z</time></trkpt><trkpt lat="44.5968167474443" lon="8.871999219521172"><ele>598.0</ele><time>2026-04-12T14:19:08Z</time></trkpt><trkpt lat="44.59713006121343" lon="8.87193362800089"><ele>596.1999999999999</ele><time>2026-04-12T14:19:09Z</time></trkpt><trkpt lat="44.597195584952765" lon="8.871808540271664"><ele>594.4</ele><time>2026-04-12T14:19:10Z</time></trkpt><trkpt lat="44.59726118732231" lon="8.871699169377216"><ele>592.5999999999999</ele><time>2026-04-12T14:19:11Z</time></trkpt><trkpt lat="44.597316015662464" lon="8.871602601675994"><ele>590.8</ele><time>2026-04-12T14:19:12Z</time></trkpt><trkpt lat="44.597352863312985" lon="8.871487764785428"><ele>589.0</ele><time>2026-04-12T14:19:14Z</time></trkpt><trkpt lat="44.59740897324438" lon="8.871335594656172"><ele>589.0</ele><time>2026-04-12T14:19:16Z</time></trkpt><trkpt lat="44.597450029103385" lon="8.871249923190732"><ele>589.0</ele><time>2026-04-12T14:19:17Z</time></trkpt><trkpt lat="44.59750459574249" lon="8.87117076129513"><ele>589.0</ele><time>2026-04-12T14:19:18Z</time></trkpt><trkpt lat="44.59755440493533" lon="8.871074972652877"><ele>589.0</ele><time>2026-04-12T14:19:19Z</time></trkpt><trkpt lat="44.597596066219474" lon="8.87099917168767"><ele>589.0</ele><time>2026-04-12T14:19:20Z</time></trkpt><trkpt lat="44.597632714840685" lon="8.87091048831653"><ele>589.0</ele><time>2026-04-12T14:19:21Z</time></trkpt><trkpt lat="44.597671888149925" lon="8.870832831320135"><ele>589.0</ele><time>2026-04-12T14:19:22Z</time></trkpt><trkpt lat="44.59770857903475" lon="8.870759654843297"><ele>588.0</ele><time>2026-04-12T14:19:23Z</time></trkpt><trkpt lat="44.597748782990124" lon="8.87068014531681"><ele>587.0</ele><time>2026-04-12T14:19:24Z</time></trkpt><trkpt lat="44.597790043241424" lon="8.870587795137475"><ele>586.0</ele><time>2026-04-12T14:19:25Z</time></trkpt><trkpt lat="44.597837949353256" lon="8.870491721315442"><ele>585.0</ele><time>2026-04-12T14:19:26Z</time></trkpt><trkpt lat="44.59788390302772" lon="8.87041002788595"><ele>584.0</ele><time>2026-04-12T14:19:27Z</time></trkpt><trkpt lat="44.59793027827447" lon="8.870346032167994"><ele>583.0</ele><time>2026-04-12T14:19:28Z</time></trkpt><trkpt lat="44.59797586632533" lon="8.870251964606785"><ele>581.1999999999999</ele><time>2026-04-12T14:19:30Z</time></trkpt><trkpt lat="44.59801760352838" lon="8.870170674948683"><ele>579.4</ele><time>2026-04-12T14:19:36Z</time></trkpt><trkpt lat="44.598107986597405" lon="8.86997115028543"><ele>577.5999999999999</ele><time>2026-04-12T14:19:38Z</time></trkpt><trkpt lat="44.59815370660211" lon="8.869894678057705"><ele>575.8</ele><time>2026-04-12T14:19:39Z</time></trkpt><trkpt lat="44.5982124616502" lon="8.869794170930414"><ele>574.0</ele><time>2026-04-12T14:19:40Z</time></trkpt><trkpt lat="44.59826539086151" lon="8.869704838772394"><ele>574.0</ele><time>2026-04-12T14:19:41Z</time></trkpt><trkpt lat="44.5983044083097" lon="8.86962967520829"><ele>574.0</ele><time>2026-04-12T14:19:42Z</time></trkpt><trkpt lat="44.598339927996136" lon="8.869549508933332"><ele>574.0</ele><time>2026-04-12T14:19:43Z</time></trkpt><trkpt lat="44.59835887832711" lon="8.869450829972276"><ele>574.0</ele><time>2026-04-12T14:19:44Z</time></trkpt><trkpt lat="44.59841327231807" lon="8.869365269935768"><ele>574.0</ele><time>2026-04-12T14:19:45Z</time></trkpt><trkpt lat="44.59846948460128" lon="8.869269402500992"><ele>574.0</ele><time>2026-04-12T14:19:46Z</time></trkpt><trkpt lat="44.59850969043353" lon="8.869193874857782"><ele>574.0</ele><time>2026-04-12T14:19:47Z</time></trkpt><trkpt lat="44.59854743617904" lon="8.869107678551245"><ele>574.3333333333334</ele><time>2026-04-12T14:19:48Z</time></trkpt><trkpt lat="44.59858665642945" lon="8.869033461843125"><ele>574.6666666666667</ele><time>2026-04-12T14:19:49Z</time></trkpt><trkpt lat="44.59865265687973" lon="8.86892095670317"><ele>575.0</ele><time>2026-04-12T14:19:51Z</time></trkpt><trkpt lat="44.59868254844882" lon="8.868828480972748"><ele>575.3333333333334</ele><time>2026-04-12T14:19:52Z</time></trkpt><trkpt lat="44.59872403099587" lon="8.868759266507638"><ele>575.6666666666666</ele><time>2026-04-12T14:19:53Z</time></trkpt><trkpt lat="44.59877092093263" lon="8.868686374066694"><ele>576.0</ele><time>2026-04-12T14:19:55Z</time></trkpt><trkpt lat="44.5988324599231" lon="8.868525399629894"><ele>573.0</ele><time>2026-04-12T14:19:57Z</time></trkpt><trkpt lat="44.59887555684692" lon="8.868437951826312"><ele>570.0</ele><time>2026-04-12T14:19:58Z</time></trkpt><trkpt lat="44.598917992945346" lon="8.868355684284932"><ele>567.0</ele><time>2026-04-12T14:19:59Z</time></trkpt><trkpt lat="44.59895541104962" lon="8.868280558910211"><ele>564.0</ele><time>2026-04-12T14:20:00Z</time></trkpt><trkpt lat="44.599007181597536" lon="8.868210792294922"><ele>561.0</ele><time>2026-04-12T14:20:01Z</time></trkpt><trkpt lat="44.599067495716156" lon="8.868083444318767"><ele>558.0</ele><time>2026-04-12T14:20:03Z</time></trkpt><trkpt lat="44.599143683988146" lon="8.867951777002084"><ele>558.0</ele><time>2026-04-12T14:20:05Z</time></trkpt><trkpt lat="44.59921218268959" lon="8.867867735750647"><ele>558.0</ele><time>2026-04-12T14:20:07Z</time></trkpt><trkpt lat="44.59924088491068" lon="8.867717282263776"><ele>558.0</ele><time>2026-04-12T14:20:09Z</time></trkpt><trkpt lat="44.599326056666435" lon="8.867601996331702"><ele>558.0</ele><time>2026-04-12T14:20:11Z</time></trkpt><trkpt lat="44.599384884076755" lon="8.867547925045216"><ele>558.0</ele><time>2026-04-12T14:20:12Z</time></trkpt><trkpt lat="44.59950704549656" lon="8.867500970391003"><ele>558.1428571428571</ele><time>2026-04-12T14:20:14Z</time></trkpt><trkpt lat="44.59957253239106" lon="8.86747528279021"><ele>558.2857142857142</ele><time>2026-04-12T14:20:15Z</time></trkpt><trkpt lat="44.59963559452572" lon="8.867445516452474"><ele>558.4285714285714</ele><time>2026-04-12T14:20:16Z</time></trkpt><trkpt lat="44.599741066948596" lon="8.867392393777166"><ele>558.5714285714286</ele><time>2026-04-12T14:20:18Z</time></trkpt><trkpt lat="44.59980234113682" lon="8.867365542636685"><ele>558.7142857142858</ele><time>2026-04-12T14:20:19Z</time></trkpt><trkpt lat="44.59986551307657" lon="8.867334423140502"><ele>558.8571428571429</ele><time>2026-04-12T14:20:20Z</time></trkpt><trkpt lat="44.59993144120512" lon="8.867310465584838"><ele>559.0</ele><time>2026-04-12T14:20:21Z</time></trkpt><trkpt lat="44.59999893375461" lon="8.86727742885263"><ele>559.0</ele><time>2026-04-12T14:20:22Z</time></trkpt><trkpt lat="44.60006919192411" lon="8.867237886449644"><ele>559.0</ele><time>2026-04-12T14:20:23Z</time></trkpt><trkpt lat="44.600147981573386" lon="8.867224156323234"><ele>559.0</ele><time>2026-04-12T14:20:24Z</time></trkpt><trkpt lat="44.60022590169928" lon="8.8672290041109"><ele>559.0</ele><time>2026-04-12T14:20:25Z</time></trkpt><trkpt lat="44.60033305664987" lon="8.867175597602534"><ele>559.0</ele><time>2026-04-12T14:20:27Z</time></trkpt><trkpt lat="44.60046848426116" lon="8.86711331269266"><ele>557.5</ele><time>2026-04-12T14:20:29Z</time></trkpt><trkpt lat="44.600544361448506" lon="8.867087876439436"><ele>556.0</ele><time>2026-04-12T14:20:30Z</time></trkpt><trkpt lat="44.600615301078925" lon="8.867061873859244"><ele>554.5</ele><time>2026-04-12T14:20:31Z</time></trkpt><trkpt lat="44.600680909473645" lon="8.867042217521563"><ele>553.0</ele><time>2026-04-12T14:20:32Z</time></trkpt><trkpt lat="44.60079562262311" lon="8.866991828524652"><ele>551.5</ele><time>2026-04-12T14:20:34Z</time></trkpt><trkpt lat="44.60086625490067" lon="8.866959061498092"><ele>550.0</ele><time>2026-04-12T14:20:35Z</time></trkpt><trkpt lat="44.60094563050526" lon="8.866944232611406"><ele>550.0</ele><time>2026-04-12T14:20:36Z</time></trkpt><trkpt lat="44.60103169263362" lon="8.866919460203817"><ele>550.0</ele><time>2026-04-12T14:20:37Z</time></trkpt><trkpt lat="44.6011437882881" lon="8.866843027834307"><ele>550.0</ele><time>2026-04-12T14:20:39Z</time></trkpt><trkpt lat="44.60122252620408" lon="8.866819554632537"><ele>550.0</ele><time>2026-04-12T14:20:40Z</time></trkpt><trkpt lat="44.601304484447965" lon="8.866816264237169"><ele>550.0</ele><time>2026-04-12T14:20:41Z</time></trkpt><trkpt lat="44.60136978195404" lon="8.86680242429427"><ele>550.0</ele><time>2026-04-12T14:20:42Z</time></trkpt><trkpt lat="44.601477797022234" lon="8.86677410325434"><ele>549.4</ele><time>2026-04-12T14:20:44Z</time></trkpt><trkpt lat="44.60161243995101" lon="8.86673458119225"><ele>548.8</ele><time>2026-04-12T14:20:46Z</time></trkpt><trkpt lat="44.601692390803215" lon="8.866736475307482"><ele>548.2</ele><time>2026-04-12T14:20:47Z</time></trkpt><trkpt lat="44.60176376900689" lon="8.866702874622899"><ele>547.6</ele><time>2026-04-12T14:20:48Z</time></trkpt><trkpt lat="44.60182760064198" lon="8.866646708252182"><ele>547.0</ele><time>2026-04-12T14:20:49Z</time></trkpt><trkpt lat="44.601928516485096" lon="8.866596575096288"><ele>545.1428571428571</ele><time>2026-04-12T14:20:51Z</time></trkpt><trkpt lat="44.60200084437546" lon="8.86661111696153"><ele>543.2857142857142</ele><time>2026-04-12T14:20:54Z</time></trkpt><trkpt lat="44.60206418286972" lon="8.86657002562633"><ele>541.4285714285714</ele><time>2026-04-12T14:20:59Z</time></trkpt><trkpt lat="44.602148405003945" lon="8.866580787801297"><ele>539.5714285714286</ele><time>2026-04-12T14:21:07Z</time></trkpt><trkpt lat="44.60217472477341" lon="8.866476134734118"><ele>537.7142857142858</ele><time>2026-04-12T14:21:30Z</time></trkpt><trkpt lat="44.602238755665695" lon="8.866416925277719"><ele>535.8571428571429</ele><time>2026-04-12T14:21:31Z</time></trkpt><trkpt lat="44.60228846107859" lon="8.866361656242308"><ele>534.0</ele><time>2026-04-12T14:21:32Z</time></trkpt><trkpt lat="44.60238307617981" lon="8.866251614906153"><ele>534.0</ele><time>2026-04-12T14:21:34Z</time></trkpt><trkpt lat="44.60247719680547" lon="8.866159670871703"><ele>534.0</ele><time>2026-04-12T14:21:36Z</time></trkpt><trkpt lat="44.60257216093846" lon="8.866068650009286"><ele>534.0</ele><time>2026-04-12T14:21:38Z</time></trkpt><trkpt lat="44.602643957544494" lon="8.866007033590847"><ele>534.0</ele><time>2026-04-12T14:21:40Z</time></trkpt><trkpt lat="44.60271149202812" lon="8.865980597281768"><ele>534.0</ele><time>2026-04-12T14:21:43Z</time></trkpt><trkpt lat="44.602780378772316" lon="8.86594679429264"><ele>533.6666666666666</ele><time>2026-04-12T14:21:44Z</time></trkpt><trkpt lat="44.60286327951341" lon="8.865956180284604"><ele>533.3333333333334</ele><time>2026-04-12T14:22:08Z</time></trkpt><trkpt lat="44.60291590156453" lon="8.866014850947481"><ele>533.0</ele><time>2026-04-12T14:22:35Z</time></trkpt><trkpt lat="44.60297505130594" lon="8.86605698240897"><ele>532.6666666666667</ele><time>2026-04-12T14:22:43Z</time></trkpt><trkpt lat="44.60305402290446" lon="8.866052169859248"><ele>532.3333333333334</ele><time>2026-04-12T14:22:45Z</time></trkpt><trkpt lat="44.60313691054022" lon="8.866001773414236"><ele>532.0</ele><time>2026-04-12T14:22:55Z</time></trkpt><trkpt lat="44.603250142427605" lon="8.865910626506329"><ele>532.0</ele><time>2026-04-12T14:22:57Z</time></trkpt><trkpt lat="44.603349257721085" lon="8.865828974150395"><ele>532.0</ele><time>2026-04-12T14:22:59Z</time></trkpt><trkpt lat="44.60345072738488" lon="8.865784994830557"><ele>532.0</ele><time>2026-04-12T14:23:01Z</time></trkpt><trkpt lat="44.6035269381823" lon="8.865747750581447"><ele>532.0</ele><time>2026-04-12T14:23:03Z</time></trkpt><trkpt lat="44.60360390868704" lon="8.865679336529176"><ele>532.0</ele><time>2026-04-12T14:23:05Z</time></trkpt><trkpt lat="44.603674327248385" lon="8.86561749001017"><ele>531.8333333333334</ele><time>2026-04-12T14:23:06Z</time></trkpt><trkpt lat="44.603731135321354" lon="8.865566986193432"><ele>531.6666666666667</ele><time>2026-04-12T14:23:07Z</time></trkpt><trkpt lat="44.60379232145003" lon="8.865511940782833"><ele>531.5</ele><time>2026-04-12T14:23:08Z</time></trkpt><trkpt lat="44.603857542487226" lon="8.865442070514632"><ele>531.3333333333334</ele><time>2026-04-12T14:23:09Z</time></trkpt><trkpt lat="44.60389300520663" lon="8.865368905939"><ele>531.1666666666666</ele><time>2026-04-12T14:23:10Z</time></trkpt><trkpt lat="44.603963118464726" lon="8.865247123292376"><ele>531.0</ele><time>2026-04-12T14:23:12Z</time></trkpt><trkpt lat="44.603995950335054" lon="8.865160679692794"><ele>532.5714285714286</ele><time>2026-04-12T14:23:14Z</time></trkpt><trkpt lat="44.603986260094956" lon="8.865064790830676"><ele>534.1428571428572</ele><time>2026-04-12T14:23:16Z</time></trkpt><trkpt lat="44.60401943967753" lon="8.86494551890053"><ele>535.7142857142858</ele><time>2026-04-12T14:23:19Z</time></trkpt><trkpt lat="44.604039368068676" lon="8.864852306011894"><ele>537.2857142857143</ele><time>2026-04-12T14:23:21Z</time></trkpt><trkpt lat="44.60406761441935" lon="8.864759821902858"><ele>538.8571428571429</ele><time>2026-04-12T14:23:23Z</time></trkpt><trkpt lat="44.60412498637637" lon="8.864714950579941"><ele>540.4285714285714</ele><time>2026-04-12T14:23:25Z</time></trkpt><trkpt lat="44.604186485295244" lon="8.864672213943985"><ele>542.0</ele><time>2026-04-12T14:23:28Z</time></trkpt><trkpt lat="44.6042496806585" lon="8.864624219379362"><ele>542.0</ele><time>2026-04-12T14:23:31Z</time></trkpt><trkpt lat="44.60431340121223" lon="8.864584966760454"><ele>542.0</ele><time>2026-04-12T14:23:36Z</time></trkpt><trkpt lat="44.60436789208634" lon="8.864501018846234"><ele>542.0</ele><time>2026-04-12T14:23:39Z</time></trkpt><trkpt lat="44.60439970123728" lon="8.864412492180168"><ele>542.0</ele><time>2026-04-12T14:23:41Z</time></trkpt><trkpt lat="44.604447990599944" lon="8.864333932237694"><ele>542.0</ele><time>2026-04-12T14:24:01Z</time></trkpt><trkpt lat="44.60448372263188" lon="8.864226837866745"><ele>542.0</ele><time>2026-04-12T14:24:04Z</time></trkpt><trkpt lat="44.60451904185257" lon="8.864111855327142"><ele>542.3333333333333</ele><time>2026-04-12T14:24:06Z</time></trkpt><trkpt lat="44.60455115897584" lon="8.864018953314508"><ele>542.6666666666666</ele><time>2026-04-12T14:24:08Z</time></trkpt><trkpt lat="44.604593539293006" lon="8.863902532721779"><ele>543.0</ele><time>2026-04-12T14:24:10Z</time></trkpt><trkpt lat="44.60463870237227" lon="8.863784317062985"><ele>543.3333333333334</ele><time>2026-04-12T14:24:12Z</time></trkpt><trkpt lat="44.60468400383823" lon="8.863697417501431"><ele>543.6666666666667</ele><time>2026-04-12T14:24:14Z</time></trkpt><trkpt lat="44.60473382776674" lon="8.86360204032774"><ele>544.0</ele><time>2026-04-12T14:24:17Z</time></trkpt><trkpt lat="44.60477777758068" lon="8.86350521987668"><ele>545.4</ele><time>2026-04-12T14:24:24Z</time></trkpt><trkpt lat="44.60481255695522" lon="8.863429202447605"><ele>546.8</ele><time>2026-04-12T14:24:46Z</time></trkpt><trkpt lat="44.60485797027143" lon="8.863333450095043"><ele>548.2</ele><time>2026-04-12T14:24:47Z</time></trkpt><trkpt lat="44.60492670869626" lon="8.863247165207088"><ele>549.6</ele><time>2026-04-12T14:24:48Z</time></trkpt><trkpt lat="44.60500255063999" lon="8.863169216605078"><ele>551.0</ele><time>2026-04-12T14:24:50Z</time></trkpt><trkpt lat="44.605109320918594" lon="8.863060271923176"><ele>551.0</ele><time>2026-04-12T14:24:52Z</time></trkpt><trkpt lat="44.60515417166588" lon="8.862997701983591"><ele>551.0</ele><time>2026-04-12T14:24:53Z</time></trkpt><trkpt lat="44.60522445381498" lon="8.862872709692411"><ele>551.0</ele><time>2026-04-12T14:24:55Z</time></trkpt><trkpt lat="44.60526984907917" lon="8.86280855940492"><ele>551.0</ele><time>2026-04-12T14:24:56Z</time></trkpt><trkpt lat="44.605337550875895" lon="8.862710550193292"><ele>551.0</ele><time>2026-04-12T14:24:58Z</time></trkpt><trkpt lat="44.60539393310071" lon="8.862636264629405"><ele>551.0</ele><time>2026-04-12T14:25:02Z</time></trkpt><trkpt lat="44.605415470818784" lon="8.862529468485002"><ele>550.3333333333333</ele><time>2026-04-12T14:25:04Z</time></trkpt><trkpt lat="44.605427921454186" lon="8.862438383552236"><ele>549.6666666666666</ele><time>2026-04-12T14:25:07Z</time></trkpt><trkpt lat="44.60543790765338" lon="8.862344528695557"><ele>549.0</ele><time>2026-04-12T14:25:09Z</time></trkpt><trkpt lat="44.605449788303176" lon="8.862244921758494"><ele>548.3333333333334</ele><time>2026-04-12T14:25:11Z</time></trkpt><trkpt lat="44.60546003075666" lon="8.862109594563254"><ele>547.6666666666667</ele><time>2026-04-12T14:25:48Z</time></trkpt><trkpt lat="44.605497841543716" lon="8.861983123687033"><ele>547.0</ele><time>2026-04-12T14:25:50Z</time></trkpt><trkpt lat="44.60554083999423" lon="8.86187037243584"><ele>548.2</ele><time>2026-04-12T14:25:52Z</time></trkpt><trkpt lat="44.60556355153964" lon="8.861763150681071"><ele>549.4000000000001</ele><time>2026-04-12T14:25:54Z</time></trkpt><trkpt lat="44.60559874299486" lon="8.86163867542729"><ele>550.5999999999999</ele><time>2026-04-12T14:25:56Z</time></trkpt><trkpt lat="44.605623135553145" lon="8.861499269959822"><ele>551.8</ele><time>2026-04-12T14:25:58Z</time></trkpt><trkpt lat="44.60565097587022" lon="8.861370672407801"><ele>553.0</ele><time>2026-04-12T14:26:00Z</time></trkpt><trkpt lat="44.60568594519126" lon="8.86123983898366"><ele>553.0</ele><time>2026-04-12T14:26:02Z</time></trkpt><trkpt lat="44.60570895825056" lon="8.861110992081235"><ele>553.0</ele><time>2026-04-12T14:26:04Z</time></trkpt><trkpt lat="44.60574792983037" lon="8.860987754668264"><ele>553.0</ele><time>2026-04-12T14:26:06Z</time></trkpt><trkpt lat="44.60578244101436" lon="8.860909219447267"><ele>553.0</ele><time>2026-04-12T14:26:08Z</time></trkpt><trkpt lat="44.605818995158884" lon="8.86081955723868"><ele>553.0</ele><time>2026-04-12T14:26:10Z</time></trkpt><trkpt lat="44.6058569368305" lon="8.860722409785685"><ele>553.0</ele><time>2026-04-12T14:26:13Z</time></trkpt><trkpt lat="44.60588536184741" lon="8.860642254382554"><ele>552.5</ele><time>2026-04-12T14:26:16Z</time></trkpt><trkpt lat="44.605938968480636" lon="8.860536096281724"><ele>552.0</ele><time>2026-04-12T14:26:19Z</time></trkpt><trkpt lat="44.60599272667315" lon="8.860451041150636"><ele>551.5</ele><time>2026-04-12T14:26:33Z</time></trkpt><trkpt lat="44.60604076445123" lon="8.860383681300059"><ele>551.0</ele><time>2026-04-12T14:26:35Z</time></trkpt><trkpt lat="44.606091021043646" lon="8.860302406955173"><ele>550.5</ele><time>2026-04-12T14:26:38Z</time></trkpt><trkpt lat="44.606142753645344" lon="8.8602187871576"><ele>550.0</ele><time>2026-04-12T14:26:52Z</time></trkpt><trkpt lat="44.60618121929493" lon="8.860145451763657"><ele>547.7142857142858</ele><time>2026-04-12T14:26:54Z</time></trkpt><trkpt lat="44.60622550594361" lon="8.860080552446725"><ele>545.4285714285714</ele><time>2026-04-12T14:26:56Z</time></trkpt><trkpt lat="44.60628557034833" lon="8.860002913668508"><ele>543.1428571428571</ele><time>2026-04-12T14:26:59Z</time></trkpt><trkpt lat="44.60631367041364" lon="8.859919874646161"><ele>540.8571428571429</ele><time>2026-04-12T14:27:03Z</time></trkpt><trkpt lat="44.606315593305176" lon="8.859830532416327"><ele>538.5714285714286</ele><time>2026-04-12T14:27:13Z</time></trkpt><trkpt lat="44.60632174315814" lon="8.85973689219003"><ele>536.2857142857143</ele><time>2026-04-12T14:27:17Z</time></trkpt><trkpt lat="44.606378386865906" lon="8.859665189869744"><ele>534.0</ele><time>2026-04-12T14:28:01Z</time></trkpt><trkpt lat="44.60635730049617" lon="8.859558654229552"><ele>534.0</ele><time>2026-04-12T14:28:06Z</time></trkpt><trkpt lat="44.60636790054256" lon="8.85940037181886"><ele>534.0</ele><time>2026-04-12T14:28:08Z</time></trkpt><trkpt lat="44.60636230099252" lon="8.859290320040294"><ele>534.0</ele><time>2026-04-12T14:28:18Z</time></trkpt><trkpt lat="44.606375987254516" lon="8.859152054281854"><ele>534.0</ele><time>2026-04-12T14:28:20Z</time></trkpt><trkpt lat="44.60637566569127" lon="8.859051506659435"><ele>534.0</ele><time>2026-04-12T14:28:22Z</time></trkpt><trkpt lat="44.606390983341434" lon="8.858942044704314"><ele>534.0</ele><time>2026-04-12T14:28:24Z</time></trkpt><trkpt lat="44.60639906363489" lon="8.858824052960212"><ele>531.8333333333334</ele><time>2026-04-12T14:28:26Z</time></trkpt><trkpt lat="44.60643186989292" lon="8.858719216221333"><ele>529.6666666666666</ele><time>2026-04-12T14:28:47Z</time></trkpt><trkpt lat="44.60649256421141" lon="8.85862739437054"><ele>527.5</ele><time>2026-04-12T14:28:49Z</time></trkpt><trkpt lat="44.606548761349885" lon="8.858546314852445"><ele>525.3333333333333</ele><time>2026-04-12T14:28:51Z</time></trkpt><trkpt lat="44.60661313468512" lon="8.85845469999757"><ele>523.1666666666666</ele><time>2026-04-12T14:28:53Z</time></trkpt><trkpt lat="44.60668827372512" lon="8.858376088841734"><ele>521.0</ele><time>2026-04-12T14:28:55Z</time></trkpt><trkpt lat="44.60675521085965" lon="8.858285140482403"><ele>519.2</ele><time>2026-04-12T14:28:57Z</time></trkpt><trkpt lat="44.606829687953294" lon="8.858203880696987"><ele>517.4000000000001</ele><time>2026-04-12T14:28:59Z</time></trkpt><trkpt lat="44.6068984387703" lon="8.858110396919338"><ele>515.6</ele><time>2026-04-12T14:29:01Z</time></trkpt><trkpt lat="44.60697111377659" lon="8.858027278234962"><ele>513.8000000000001</ele><time>2026-04-12T14:29:03Z</time></trkpt><trkpt lat="44.60702889685842" lon="8.857936210002816"><ele>512.0</ele><time>2026-04-12T14:29:05Z</time></trkpt><trkpt lat="44.60708969277442" lon="8.857852143924873"><ele>509.16666666666663</ele><time>2026-04-12T14:29:08Z</time></trkpt><trkpt lat="44.607131041714716" lon="8.857780182827934"><ele>506.3333333333333</ele><time>2026-04-12T14:29:10Z</time></trkpt><trkpt lat="44.60720984637517" lon="8.857636009363443"><ele>503.5</ele><time>2026-04-12T14:29:12Z</time></trkpt><trkpt lat="44.60725773767805" lon="8.857552650288698"><ele>500.66666666666663</ele><time>2026-04-12T14:29:14Z</time></trkpt><trkpt lat="44.60730202262603" lon="8.857476070984665"><ele>497.8333333333333</ele><time>2026-04-12T14:29:16Z</time></trkpt><trkpt lat="44.60736166299162" lon="8.857386418874018"><ele>495.0</ele><time>2026-04-12T14:29:19Z</time></trkpt><trkpt lat="44.607418526253156" lon="8.857325029988663"><ele>495.0</ele><time>2026-04-12T14:29:21Z</time></trkpt><trkpt lat="44.607468732205255" lon="8.857245282219663"><ele>495.0</ele><time>2026-04-12T14:29:23Z</time></trkpt><trkpt lat="44.60752392779049" lon="8.857152118835009"><ele>495.0</ele><time>2026-04-12T14:29:25Z</time></trkpt><trkpt lat="44.6075758313114" lon="8.857066158096371"><ele>495.0</ele><time>2026-04-12T14:29:27Z</time></trkpt><trkpt lat="44.607609305206566" lon="8.856987377004778"><ele>495.0</ele><time>2026-04-12T14:29:29Z</time></trkpt><trkpt lat="44.607674256773194" lon="8.856887696356425"><ele>495.0</ele><time>2026-04-12T14:29:32Z</time></trkpt><trkpt lat="44.60771854856239" lon="8.856814421248773"><ele>492.2857142857142</ele><time>2026-04-12T14:29:34Z</time></trkpt><trkpt lat="44.607766391189415" lon="8.856756484267626"><ele>489.57142857142856</ele><time>2026-04-12T14:29:36Z</time></trkpt><trkpt lat="44.60781770426399" lon="8.856701376560418"><ele>486.85714285714283</ele><time>2026-04-12T14:29:38Z</time></trkpt><trkpt lat="44.60786117189276" lon="8.856626900981997"><ele>484.1428571428571</ele><time>2026-04-12T14:29:40Z</time></trkpt><trkpt lat="44.607901252889945" lon="8.856547304985503"><ele>481.42857142857144</ele><time>2026-04-12T14:29:42Z</time></trkpt><trkpt lat="44.607964452600996" lon="8.85652755866541"><ele>478.7142857142857</ele><time>2026-04-12T14:30:44Z</time></trkpt><trkpt lat="44.608035023735574" lon="8.856553438752409"><ele>476.0</ele><time>2026-04-12T14:30:51Z</time></trkpt><trkpt lat="44.6081014757283" lon="8.85656856566257"><ele>473.8333333333333</ele><time>2026-04-12T14:30:54Z</time></trkpt><trkpt lat="44.60812834424215" lon="8.856485835947822"><ele>471.66666666666663</ele><time>2026-04-12T14:31:12Z</time></trkpt><trkpt lat="44.60811279727309" lon="8.856379380951733"><ele>469.5</ele><time>2026-04-12T14:31:17Z</time></trkpt><trkpt lat="44.60810416718527" lon="8.856289589745193"><ele>467.33333333333337</ele><time>2026-04-12T14:31:21Z</time></trkpt><trkpt lat="44.60813479888517" lon="8.856200614068504"><ele>465.1666666666667</ele><time>2026-04-12T14:32:17Z</time></trkpt><trkpt lat="44.6081826141028" lon="8.85610983691126"><ele>463.0</ele><time>2026-04-12T14:32:19Z</time></trkpt><trkpt lat="44.6082447532565" lon="8.855981664862048"><ele>462.0</ele><time>2026-04-12T14:32:21Z</time></trkpt><trkpt lat="44.60831179210614" lon="8.855877348083217"><ele>461.0</ele><time>2026-04-12T14:32:23Z</time></trkpt><trkpt lat="44.60826176327846" lon="8.855654327212475"><ele>460.0</ele><time>2026-04-12T14:32:25Z</time></trkpt><trkpt lat="44.60833057139459" lon="8.855545769795993"><ele>459.0</ele><time>2026-04-12T14:32:30Z</time></trkpt><trkpt lat="44.60839313952204" lon="8.855466265860708"><ele>459.0</ele><time>2026-04-12T14:32:33Z</time></trkpt><trkpt lat="44.60863730260312" lon="8.855716998187416"><ele>459.0</ele><time>2026-04-12T14:32:37Z</time></trkpt><trkpt lat="44.60871788316503" lon="8.855732706165954"><ele>459.0</ele><time>2026-04-12T14:32:40Z</time></trkpt><trkpt lat="44.608763093486566" lon="8.855633521164053"><ele>459.0</ele><time>2026-04-12T14:45:35Z</time></trkpt><trkpt lat="44.60873447359762" lon="8.85554504812404"><ele>459.0</ele><time>2026-04-12T14:45:39Z</time></trkpt><trkpt lat="44.60870873850115" lon="8.855445018391276"><ele>459.0</ele><time>2026-04-12T14:45:42Z</time></trkpt><trkpt lat="44.60865438915185" lon="8.855351937486818"><ele>459.0</ele><time>2026-04-12T14:45:50Z</time></trkpt><trkpt lat="44.608611322601284" lon="8.855283491023922"><ele>459.0</ele><time>2026-04-12T14:45:55Z</time></trkpt><trkpt lat="44.60866843608938" lon="8.855366303821341"><ele>459.0</ele><time>2026-04-12T14:46:01Z</time></trkpt><trkpt lat="44.608735178743586" lon="8.855429520672338"><ele>456.5</ele><time>2026-04-12T14:46:07Z</time></trkpt><trkpt lat="44.60874922777234" lon="8.85554630444593"><ele>454.0</ele><time>2026-04-12T14:46:11Z</time></trkpt><trkpt lat="44.60878226303975" lon="8.855634769054467"><ele>451.5</ele><time>2026-04-12T14:46:15Z</time></trkpt><trkpt lat="44.60886251520654" lon="8.855777128440739"><ele>449.0</ele><time>2026-04-12T14:47:21Z</time></trkpt><trkpt lat="44.608892070051915" lon="8.855866113077099"><ele>446.5</ele><time>2026-04-12T14:51:50Z</time></trkpt><trkpt lat="44.608951915730366" lon="8.855894987425097"><ele>444.0</ele><time>2026-04-12T14:52:28Z</time></trkpt><trkpt lat="44.60901299242781" lon="8.855926873427464"><ele>442.7142857142857</ele><time>2026-04-12T14:52:34Z</time></trkpt><trkpt lat="44.609082173625026" lon="8.855969379853743"><ele>441.42857142857144</ele><time>2026-04-12T14:52:43Z</time></trkpt><trkpt lat="44.60914631817483" lon="8.855994091945972"><ele>440.14285714285717</ele><time>2026-04-12T14:52:46Z</time></trkpt><trkpt lat="44.609208101764665" lon="8.856066947560354"><ele>438.8571428571429</ele><time>2026-04-12T14:53:27Z</time></trkpt><trkpt lat="44.60928739641535" lon="8.856098423045683"><ele>437.57142857142856</ele><time>2026-04-12T14:53:33Z</time></trkpt><trkpt lat="44.60935481680034" lon="8.856128142038107"><ele>436.28571428571433</ele><time>2026-04-12T14:53:45Z</time></trkpt><trkpt lat="44.60941798079816" lon="8.856174386041848"><ele>435.0</ele><time>2026-04-12T14:53:48Z</time></trkpt><trkpt lat="44.60948872371194" lon="8.856209073096576"><ele>430.0</ele><time>2026-04-12T14:54:15Z</time></trkpt><trkpt lat="44.609546047385834" lon="8.85624824556005"><ele>425.0</ele><time>2026-04-12T14:54:18Z</time></trkpt><trkpt lat="44.6096220450095" lon="8.856277567142548"><ele>420.0</ele><time>2026-04-12T14:54:22Z</time></trkpt><trkpt lat="44.60969733010155" lon="8.856304932072707"><ele>415.0</ele><time>2026-04-12T15:00:06Z</time></trkpt><trkpt lat="44.609659894330186" lon="8.85645632472899"><ele>410.0</ele><time>2026-04-12T15:00:09Z</time></trkpt><trkpt lat="44.60962750243323" lon="8.856534333482085"><ele>405.0</ele><time>2026-04-12T15:00:10Z</time></trkpt><trkpt lat="44.609595327036075" lon="8.856613548766921"><ele>405.0</ele><time>2026-04-12T15:00:37Z</time></trkpt><trkpt lat="44.60963964183079" lon="8.856481604423145"><ele>405.0</ele><time>2026-04-12T15:01:24Z</time></trkpt><trkpt lat="44.60967700914018" lon="8.856372148343713"><ele>405.0</ele><time>2026-04-12T15:01:26Z</time></trkpt><trkpt lat="44.60966428589272" lon="8.856270144301675"><ele>405.0</ele><time>2026-04-12T15:01:28Z</time></trkpt><trkpt lat="44.60961981766499" lon="8.856189671568078"><ele>405.0</ele><time>2026-04-12T15:01:29Z</time></trkpt><trkpt lat="44.6095839680659" lon="8.856103480093045"><ele>405.0</ele><time>2026-04-12T15:01:30Z</time></trkpt><trkpt lat="44.60955076778982" lon="8.85598259646022"><ele>406.3333333333333</ele><time>2026-04-12T15:01:33Z</time></trkpt><trkpt lat="44.60954228696293" lon="8.85583536475093"><ele>407.66666666666663</ele><time>2026-04-12T15:01:35Z</time></trkpt><trkpt lat="44.60954514966952" lon="8.855702485697478"><ele>409.0</ele><time>2026-04-12T15:01:37Z</time></trkpt><trkpt lat="44.60956296230154" lon="8.855596772198435"><ele>410.3333333333333</ele><time>2026-04-12T15:01:54Z</time></trkpt><trkpt lat="44.60954957590638" lon="8.855495733013909"><ele>411.66666666666663</ele><time>2026-04-12T15:02:41Z</time></trkpt><trkpt lat="44.60961085187109" lon="8.855531842304968"><ele>413.0</ele><time>2026-04-12T15:03:19Z</time></trkpt><trkpt lat="44.60967474775314" lon="8.855413697887862"><ele>412.99999999999994</ele><time>2026-04-12T15:04:27Z</time></trkpt><trkpt lat="44.60974137062334" lon="8.855483894274338"><ele>413.0</ele><time>2026-04-12T15:04:35Z</time></trkpt><trkpt lat="44.60981959605967" lon="8.855436181296835"><ele>413.0</ele><time>2026-04-12T15:04:39Z</time></trkpt><trkpt lat="44.60974617436882" lon="8.855487669076023"><ele>413.0</ele><time>2026-04-12T15:04:49Z</time></trkpt><trkpt lat="44.60965364249041" lon="8.85553570747884"><ele>412.99999999999994</ele><time>2026-04-12T15:04:52Z</time></trkpt><trkpt lat="44.60960771921454" lon="8.855630031995245"><ele>413.0</ele><time>2026-04-12T15:04:55Z</time></trkpt><trkpt lat="44.60958088605161" lon="8.855732155063443"><ele>413.0</ele><time>2026-04-12T15:04:56Z</time></trkpt><trkpt lat="44.60954823978281" lon="8.85587168333819"><ele>413.0</ele><time>2026-04-12T15:04:57Z</time></trkpt><trkpt lat="44.60953461952487" lon="8.856035936197221"><ele>413.0</ele><time>2026-04-12T15:04:59Z</time></trkpt><trkpt lat="44.6095902303342" lon="8.856158916371438"><ele>413.0</ele><time>2026-04-12T15:05:01Z</time></trkpt><trkpt lat="44.609632878055315" lon="8.856225485468181"><ele>413.0</ele><time>2026-04-12T15:05:02Z</time></trkpt><trkpt lat="44.60968358618404" lon="8.856303438801923"><ele>411.85714285714283</ele><time>2026-04-12T15:05:04Z</time></trkpt><trkpt lat="44.60966421672889" lon="8.85641054409765"><ele>410.7142857142857</ele><time>2026-04-12T15:09:10Z</time></trkpt><trkpt lat="44.609623141277815" lon="8.856530783356554"><ele>409.57142857142856</ele><time>2026-04-12T15:09:12Z</time></trkpt><trkpt lat="44.60960268119621" lon="8.856620665474368"><ele>408.42857142857144</ele><time>2026-04-12T15:09:22Z</time></trkpt><trkpt lat="44.60961235502701" lon="8.8567102021785"><ele>407.2857142857143</ele><time>2026-04-12T15:09:30Z</time></trkpt><trkpt lat="44.60966617229545" lon="8.856766638426892"><ele>406.1428571428571</ele><time>2026-04-12T15:09:33Z</time></trkpt><trkpt lat="44.6097187096924" lon="8.856819832046666"><ele>405.0</ele><time>2026-04-12T15:09:48Z</time></trkpt><trkpt lat="44.609775883497406" lon="8.85685982942118"><ele>403.57142857142856</ele><time>2026-04-12T15:09:58Z</time></trkpt><trkpt lat="44.60983252888154" lon="8.856905932549607"><ele>402.1428571428571</ele><time>2026-04-12T15:10:07Z</time></trkpt><trkpt lat="44.60990465478183" lon="8.856931715144317"><ele>400.71428571428567</ele><time>2026-04-12T15:10:35Z</time></trkpt><trkpt lat="44.609970933376204" lon="8.856970594093701"><ele>399.2857142857143</ele><time>2026-04-12T15:10:47Z</time></trkpt><trkpt lat="44.610018975048845" lon="8.857032055071276"><ele>397.8571428571429</ele><time>2026-04-12T15:11:37Z</time></trkpt><trkpt lat="44.6100829740681" lon="8.856988003350777"><ele>396.4285714285714</ele><time>2026-04-12T15:11:58Z</time></trkpt><trkpt lat="44.610146929132284" lon="8.856944803397546"><ele>395.0</ele><time>2026-04-12T15:12:03Z</time></trkpt><trkpt lat="44.61014179628111" lon="8.857044689279048"><ele>395.0</ele><time>2026-04-12T15:12:15Z</time></trkpt><trkpt lat="44.61014467556055" lon="8.857193819230977"><ele>395.0</ele><time>2026-04-12T15:12:17Z</time></trkpt><trkpt lat="44.610243461955214" lon="8.857215098152558"><ele>395.0</ele><time>2026-04-12T15:12:21Z</time></trkpt><trkpt lat="44.61033060562262" lon="8.85718347043087"><ele>395.0</ele><time>2026-04-12T15:12:25Z</time></trkpt><trkpt lat="44.610361393372564" lon="8.857079709547738"><ele>395.0</ele><time>2026-04-12T15:12:27Z</time></trkpt><trkpt lat="44.61040906544712" lon="8.856990196717733"><ele>391.49999999999994</ele><time>2026-04-12T15:12:31Z</time></trkpt><trkpt lat="44.610430136449956" lon="8.856903803742078"><ele>388.0</ele><time>2026-04-12T15:12:34Z</time></trkpt><trkpt lat="44.610478233726134" lon="8.856831046403133"><ele>384.5</ele><time>2026-04-12T15:12:37Z</time></trkpt><trkpt lat="44.61053222404273" lon="8.856735748412135"><ele>381.0</ele><time>2026-04-12T15:13:03Z</time></trkpt><trkpt lat="44.6105808221314" lon="8.856669034379825"><ele>377.5</ele><time>2026-04-12T15:13:06Z</time></trkpt><trkpt lat="44.61062988004422" lon="8.856763288300288"><ele>374.0</ele><time>2026-04-12T15:13:10Z</time></trkpt><trkpt lat="44.61070439109226" lon="8.856814112125623"><ele>372.33333333333337</ele><time>2026-04-12T15:13:14Z</time></trkpt><trkpt lat="44.61076800076063" lon="8.856815316162313"><ele>370.6666666666667</ele><time>2026-04-12T15:13:15Z</time></trkpt><trkpt lat="44.61082723653624" lon="8.856886307767322"><ele>369.0</ele><time>2026-04-12T15:13:16Z</time></trkpt><trkpt lat="44.61090141522509" lon="8.856925070479209"><ele>367.3333333333333</ele><time>2026-04-12T15:13:19Z</time></trkpt><trkpt lat="44.6109787413324" lon="8.85697546467356"><ele>365.66666666666663</ele><time>2026-04-12T15:13:22Z</time></trkpt><trkpt lat="44.611055561940965" lon="8.857024498772176"><ele>364.0</ele><time>2026-04-12T15:13:24Z</time></trkpt><trkpt lat="44.61114565816438" lon="8.85709709634215"><ele>364.0</ele><time>2026-04-12T15:13:26Z</time></trkpt><trkpt lat="44.61122418603142" lon="8.857152144624845"><ele>364.0</ele><time>2026-04-12T15:13:28Z</time></trkpt><trkpt lat="44.61130664758979" lon="8.857193305241516"><ele>364.0</ele><time>2026-04-12T15:13:30Z</time></trkpt><trkpt lat="44.611286783503225" lon="8.857296320539097"><ele>364.0</ele><time>2026-04-12T15:14:02Z</time></trkpt><trkpt lat="44.61125011830514" lon="8.857382702501686"><ele>364.0</ele><time>2026-04-12T15:14:04Z</time></trkpt><trkpt lat="44.611170566711834" lon="8.857372359398846"><ele>364.0</ele><time>2026-04-12T15:14:08Z</time></trkpt><trkpt lat="44.611107355883355" lon="8.85737926540445"><ele>364.0</ele><time>2026-04-12T15:14:13Z</time></trkpt><trkpt lat="44.61103159411862" lon="8.857447202305167"><ele>364.0</ele><time>2026-04-12T15:14:16Z</time></trkpt><trkpt lat="44.61094357114064" lon="8.857546175829231"><ele>364.0</ele><time>2026-04-12T15:14:20Z</time></trkpt><trkpt lat="44.61089582399067" lon="8.8576418538262"><ele>364.0</ele><time>2026-04-12T15:14:23Z</time></trkpt><trkpt lat="44.61085769379851" lon="8.857726132892479"><ele>364.0</ele><time>2026-04-12T15:14:26Z</time></trkpt><trkpt lat="44.61082149035765" lon="8.857804850807208"><ele>364.0</ele><time>2026-04-12T15:14:30Z</time></trkpt><trkpt lat="44.61079250662175" lon="8.857895584685595"><ele>363.3333333333333</ele><time>2026-04-12T15:14:36Z</time></trkpt><trkpt lat="44.610743404177335" lon="8.857989521793503"><ele>362.66666666666663</ele><time>2026-04-12T15:14:40Z</time></trkpt><trkpt lat="44.610701144257035" lon="8.858087283580497"><ele>362.0</ele><time>2026-04-12T15:14:50Z</time></trkpt><trkpt lat="44.61064393870346" lon="8.858147874350957"><ele>361.3333333333333</ele><time>2026-04-12T15:14:52Z</time></trkpt><trkpt lat="44.61059070097799" lon="8.858195819991055"><ele>360.6666666666667</ele><time>2026-04-12T15:15:07Z</time></trkpt><trkpt lat="44.61052343147521" lon="8.858247921180766"><ele>360.0</ele><time>2026-04-12T15:17:14Z</time></trkpt><trkpt lat="44.61045764761919" lon="8.858293786333954"><ele>360.0</ele><time>2026-04-12T15:17:43Z</time></trkpt><trkpt lat="44.610423094565704" lon="8.858393586406244"><ele>360.0</ele><time>2026-04-12T15:17:45Z</time></trkpt><trkpt lat="44.61035922378136" lon="8.858486297911746"><ele>360.0</ele><time>2026-04-12T15:17:47Z</time></trkpt><trkpt lat="44.61032374159708" lon="8.858567384118379"><ele>360.0</ele><time>2026-04-12T15:18:02Z</time></trkpt><trkpt lat="44.61031873206692" lon="8.858674180321586"><ele>360.0</ele><time>2026-04-12T15:18:10Z</time></trkpt><trkpt lat="44.61034509699968" lon="8.858785905092018"><ele>360.0</ele><time>2026-04-12T15:19:35Z</time></trkpt><trkpt lat="44.61031014064762" lon="8.858701425884824"><ele>360.0</ele><time>2026-04-12T15:19:44Z</time></trkpt><trkpt lat="44.61032495673125" lon="8.85860268816486"><ele>360.0</ele><time>2026-04-12T15:28:49Z</time></trkpt><trkpt lat="44.61036513071893" lon="8.858515288091807"><ele>360.0</ele><time>2026-04-12T15:29:42Z</time></trkpt><trkpt lat="44.61039006882539" lon="8.85842922181405"><ele>360.0</ele><time>2026-04-12T15:29:45Z</time></trkpt><trkpt lat="44.61040728505034" lon="8.858330294742927"><ele>360.0</ele><time>2026-04-12T15:29:51Z</time></trkpt><trkpt lat="44.61046536875107" lon="8.858253801397492"><ele>360.0</ele><time>2026-04-12T15:29:56Z</time></trkpt><trkpt lat="44.61052202566356" lon="8.858201165579487"><ele>360.0</ele><time>2026-04-12T15:30:00Z</time></trkpt><trkpt lat="44.61059405061767" lon="8.858127944257822"><ele>360.0</ele><time>2026-04-12T15:30:03Z</time></trkpt><trkpt lat="44.6106659602007" lon="8.858097104063063"><ele>360.0</ele><time>2026-04-12T15:30:07Z</time></trkpt><trkpt lat="44.61070646538865" lon="8.858184963401657"><ele>360.0</ele><time>2026-04-12T15:30:16Z</time></trkpt><trkpt lat="44.610769220477906" lon="8.858163886560282"><ele>360.0</ele><time>2026-04-12T15:30:38Z</time></trkpt><trkpt lat="44.61083406257693" lon="8.858138438697285"><ele>360.0</ele><time>2026-04-12T15:32:01Z</time></trkpt><trkpt lat="44.610918967114905" lon="8.858133526157653"><ele>360.0</ele><time>2026-04-12T15:36:16Z</time></trkpt><trkpt lat="44.61100125422811" lon="8.858182517946373"><ele>360.0</ele><time>2026-04-12T15:38:51Z</time></trkpt><trkpt lat="44.611048582883356" lon="8.8582816825506"><ele>360.0</ele><time>2026-04-12T15:44:44Z</time></trkpt><trkpt lat="44.61098428333432" lon="8.858246334745823"><ele>360.0</ele><time>2026-04-12T15:44:56Z</time></trkpt><trkpt lat="44.61093961941916" lon="8.858180171102344"><ele>360.0</ele><time>2026-04-12T15:45:09Z</time></trkpt><trkpt lat="44.61100774118291" lon="8.85821928377619"><ele>360.0</ele><time>2026-04-12T15:45:40Z</time></trkpt><trkpt lat="44.611053394893084" lon="8.858292428022233"><ele>360.0</ele><time>2026-04-12T15:46:57Z</time></trkpt><trkpt lat="44.611103622883256" lon="8.858391386996281"><ele>360.0</ele><time>2026-04-12T15:47:52Z</time></trkpt><trkpt lat="44.61111586723551" lon="8.858492315023968"><ele>359.57142857142856</ele><time>2026-04-12T15:54:21Z</time></trkpt><trkpt lat="44.6110696375104" lon="8.858565408555338"><ele>359.14285714285717</ele><time>2026-04-12T15:54:22Z</time></trkpt><trkpt lat="44.61103246856118" lon="8.858643050941643"><ele>358.7142857142857</ele><time>2026-04-12T15:54:23Z</time></trkpt><trkpt lat="44.61099965788999" lon="8.85873356973611"><ele>358.2857142857143</ele><time>2026-04-12T15:54:24Z</time></trkpt><trkpt lat="44.610961180827296" lon="8.858826796252954"><ele>357.8571428571429</ele><time>2026-04-12T15:54:25Z</time></trkpt><trkpt lat="44.6109215807951" lon="8.85891402769397"><ele>357.42857142857144</ele><time>2026-04-12T15:54:26Z</time></trkpt><trkpt lat="44.610875627501095" lon="8.859003304698625"><ele>357.0</ele><time>2026-04-12T15:54:27Z</time></trkpt><trkpt lat="44.61083036903692" lon="8.859093709912583"><ele>357.0</ele><time>2026-04-12T15:54:28Z</time></trkpt><trkpt lat="44.61078973159631" lon="8.859180888531467"><ele>357.0</ele><time>2026-04-12T15:54:29Z</time></trkpt><trkpt lat="44.610751235525555" lon="8.859264583692399"><ele>357.0</ele><time>2026-04-12T15:54:30Z</time></trkpt><trkpt lat="44.6107088352293" lon="8.859349557245034"><ele>357.0</ele><time>2026-04-12T15:54:31Z</time></trkpt><trkpt lat="44.610670089665184" lon="8.859438513334897"><ele>357.0</ele><time>2026-04-12T15:54:32Z</time></trkpt><trkpt lat="44.61063429424217" lon="8.859531376324506"><ele>357.0</ele><time>2026-04-12T15:54:33Z</time></trkpt><trkpt lat="44.610597563413435" lon="8.859616472071288"><ele>357.0</ele><time>2026-04-12T15:54:34Z</time></trkpt><trkpt lat="44.61052559800531" lon="8.859764685482576"><ele>357.8333333333333</ele><time>2026-04-12T15:54:36Z</time></trkpt><trkpt lat="44.61048704910465" lon="8.859844377250356"><ele>358.6666666666667</ele><time>2026-04-12T15:54:37Z</time></trkpt><trkpt lat="44.61043060405318" lon="8.860011725236124"><ele>359.5</ele><time>2026-04-12T15:54:39Z</time></trkpt><trkpt lat="44.61040699034726" lon="8.860097995883134"><ele>360.33333333333337</ele><time>2026-04-12T15:54:40Z</time></trkpt><trkpt lat="44.61038275618293" lon="8.860184472068141"><ele>361.1666666666667</ele><time>2026-04-12T15:54:41Z</time></trkpt><trkpt lat="44.61036456922974" lon="8.86026967523753"><ele>362.0</ele><time>2026-04-12T15:54:42Z</time></trkpt><trkpt lat="44.610377590050476" lon="8.860436814829631"><ele>362.8</ele><time>2026-04-12T15:54:44Z</time></trkpt><trkpt lat="44.610452928269304" lon="8.860575045120296"><ele>363.6</ele><time>2026-04-12T15:54:46Z</time></trkpt><trkpt lat="44.61045132259249" lon="8.860680898014358"><ele>364.40000000000003</ele><time>2026-04-12T15:55:01Z</time></trkpt><trkpt lat="44.61034362601598" lon="8.86062637052449"><ele>365.20000000000005</ele><time>2026-04-12T15:55:03Z</time></trkpt><trkpt lat="44.61023162461597" lon="8.86060808361571"><ele>366.0</ele><time>2026-04-12T15:55:05Z</time></trkpt><trkpt lat="44.61013027315282" lon="8.860720580412131"><ele>366.6666666666667</ele><time>2026-04-12T15:55:07Z</time></trkpt><trkpt lat="44.610085265740494" lon="8.860801965793845"><ele>367.3333333333333</ele><time>2026-04-12T15:55:08Z</time></trkpt><trkpt lat="44.61004202502249" lon="8.860902753895301"><ele>368.0</ele><time>2026-04-12T15:55:09Z</time></trkpt><trkpt lat="44.61000739244167" lon="8.861010258541588"><ele>368.66666666666663</ele><time>2026-04-12T15:55:10Z</time></trkpt><trkpt lat="44.60998094762713" lon="8.861118644408162"><ele>369.3333333333333</ele><time>2026-04-12T15:55:11Z</time></trkpt><trkpt lat="44.60996315065439" lon="8.861232427915384"><ele>370.0</ele><time>2026-04-12T15:55:12Z</time></trkpt><trkpt lat="44.609952973355576" lon="8.861357112207411"><ele>370.0</ele><time>2026-04-12T15:55:13Z</time></trkpt><trkpt lat="44.60992931947851" lon="8.861494762239632"><ele>370.0</ele><time>2026-04-12T15:55:14Z</time></trkpt><trkpt lat="44.609902351649104" lon="8.861640843756296"><ele>370.0</ele><time>2026-04-12T15:55:15Z</time></trkpt><trkpt lat="44.60986792577734" lon="8.861769317532655"><ele>370.0</ele><time>2026-04-12T15:55:16Z</time></trkpt><trkpt lat="44.6098349662505" lon="8.861881910393778"><ele>370.0</ele><time>2026-04-12T15:55:17Z</time></trkpt><trkpt lat="44.60980771183815" lon="8.861995199799853"><ele>370.0</ele><time>2026-04-12T15:55:18Z</time></trkpt><trkpt lat="44.609798127183495" lon="8.86210875438975"><ele>370.0</ele><time>2026-04-12T15:55:19Z</time></trkpt><trkpt lat="44.60981628273999" lon="8.862225003277288"><ele>370.0</ele><time>2026-04-12T15:55:20Z</time></trkpt><trkpt lat="44.60984784334666" lon="8.862338989495894"><ele>370.0</ele><time>2026-04-12T15:55:21Z</time></trkpt><trkpt lat="44.609870895363215" lon="8.862467332784654"><ele>370.0</ele><time>2026-04-12T15:55:22Z</time></trkpt><trkpt lat="44.60988380293865" lon="8.862579247235418"><ele>370.0</ele><time>2026-04-12T15:55:23Z</time></trkpt><trkpt lat="44.60987055102001" lon="8.862712569987488"><ele>370.8</ele><time>2026-04-12T15:55:25Z</time></trkpt><trkpt lat="44.609792050986286" lon="8.862762243615652"><ele>371.6</ele><time>2026-04-12T15:55:27Z</time></trkpt><trkpt lat="44.609695269823625" lon="8.86267871355321"><ele>372.4</ele><time>2026-04-12T15:55:29Z</time></trkpt><trkpt lat="44.60958634215588" lon="8.862630138583345"><ele>373.2</ele><time>2026-04-12T15:55:31Z</time></trkpt><trkpt lat="44.609476961096334" lon="8.862711261366039"><ele>374.0</ele><time>2026-04-12T15:55:33Z</time></trkpt><trkpt lat="44.609402890597316" lon="8.86273250593648"><ele>377.0</ele><time>2026-04-12T15:55:35Z</time></trkpt><trkpt lat="44.6093450356204" lon="8.862641398863428"><ele>380.0</ele><time>2026-04-12T15:55:37Z</time></trkpt><trkpt lat="44.60934612840274" lon="8.862476433498275"><ele>383.0</ele><time>2026-04-12T15:55:39Z</time></trkpt><trkpt lat="44.60938221641242" lon="8.862389976157026"><ele>386.0</ele><time>2026-04-12T15:55:40Z</time></trkpt><trkpt lat="44.60943107796356" lon="8.862266511236129"><ele>389.0</ele><time>2026-04-12T15:55:42Z</time></trkpt><trkpt lat="44.60935515347681" lon="8.862266690886301"><ele>389.0</ele><time>2026-04-12T15:55:45Z</time></trkpt><trkpt lat="44.6092900752547" lon="8.862373239080789"><ele>389.0</ele><time>2026-04-12T15:55:47Z</time></trkpt><trkpt lat="44.6092351268967" lon="8.86243875678596"><ele>389.0</ele><time>2026-04-12T15:55:48Z</time></trkpt><trkpt lat="44.609158179101634" lon="8.862520245625783"><ele>389.0</ele><time>2026-04-12T15:55:49Z</time></trkpt><trkpt lat="44.609077106299736" lon="8.862589870767302"><ele>389.0</ele><time>2026-04-12T15:55:50Z</time></trkpt><trkpt lat="44.60900602974847" lon="8.862702802716603"><ele>388.99999999999994</ele><time>2026-04-12T15:55:51Z</time></trkpt><trkpt lat="44.60893890755543" lon="8.86277985900985"><ele>389.0</ele><time>2026-04-12T15:55:52Z</time></trkpt><trkpt lat="44.60888745962329" lon="8.862861123698059"><ele>389.0</ele><time>2026-04-12T15:55:53Z</time></trkpt><trkpt lat="44.608858948759455" lon="8.862947848996802"><ele>389.0</ele><time>2026-04-12T15:55:54Z</time></trkpt><trkpt lat="44.6088221754752" lon="8.863052539263009"><ele>388.99999999999994</ele><time>2026-04-12T15:55:55Z</time></trkpt><trkpt lat="44.60877967339654" lon="8.863151659235728"><ele>389.0</ele><time>2026-04-12T15:55:56Z</time></trkpt><trkpt lat="44.60873849418659" lon="8.863241449385818"><ele>388.99999999999994</ele><time>2026-04-12T15:55:57Z</time></trkpt><trkpt lat="44.60872074802513" lon="8.863338030827354"><ele>389.0</ele><time>2026-04-12T15:55:58Z</time></trkpt><trkpt lat="44.608708296001296" lon="8.863437811730515"><ele>389.0</ele><time>2026-04-12T15:55:59Z</time></trkpt><trkpt lat="44.60866350540218" lon="8.863597507360794"><ele>389.0</ele><time>2026-04-12T15:56:01Z</time></trkpt><trkpt lat="44.60862089915278" lon="8.863676957954793"><ele>388.99999999999994</ele><time>2026-04-12T15:56:02Z</time></trkpt><trkpt lat="44.608574014298895" lon="8.863755242245599"><ele>389.0</ele><time>2026-04-12T15:56:03Z</time></trkpt><trkpt lat="44.60851864364272" lon="8.863834658554666"><ele>392.4</ele><time>2026-04-12T15:56:04Z</time></trkpt><trkpt lat="44.608465449543516" lon="8.863941133342387"><ele>395.79999999999995</ele><time>2026-04-12T15:56:05Z</time></trkpt><trkpt lat="44.60840596394005" lon="8.864039228968853"><ele>399.20000000000005</ele><time>2026-04-12T15:56:06Z</time></trkpt><trkpt lat="44.60832811956916" lon="8.864116646173207"><ele>402.6</ele><time>2026-04-12T15:56:07Z</time></trkpt><trkpt lat="44.608251743473396" lon="8.864169217399827"><ele>406.0</ele><time>2026-04-12T15:56:08Z</time></trkpt><trkpt lat="44.60816957227721" lon="8.86421558310824"><ele>406.0</ele><time>2026-04-12T15:56:09Z</time></trkpt><trkpt lat="44.60808362345065" lon="8.86424476857187"><ele>406.0</ele><time>2026-04-12T15:56:10Z</time></trkpt><trkpt lat="44.60800698143069" lon="8.864281340276213"><ele>406.0</ele><time>2026-04-12T15:56:11Z</time></trkpt><trkpt lat="44.607912499905645" lon="8.864336864763143"><ele>406.0</ele><time>2026-04-12T15:56:12Z</time></trkpt><trkpt lat="44.607813302360945" lon="8.864344587814145"><ele>406.0</ele><time>2026-04-12T15:56:14Z</time></trkpt><trkpt lat="44.60774535604466" lon="8.864280575279388"><ele>410.00000000000006</ele><time>2026-04-12T15:56:16Z</time></trkpt><trkpt lat="44.60768028598386" lon="8.864231438117072"><ele>414.0</ele><time>2026-04-12T15:56:35Z</time></trkpt><trkpt lat="44.607646339298896" lon="8.864109799161742"><ele>418.0</ele><time>2026-04-12T15:56:38Z</time></trkpt><trkpt lat="44.607589356668505" lon="8.864046229248963"><ele>422.0</ele><time>2026-04-12T15:56:41Z</time></trkpt><trkpt lat="44.6075383227616" lon="8.864154840058136"><ele>426.00000000000006</ele><time>2026-04-12T15:56:44Z</time></trkpt><trkpt lat="44.60751724559594" lon="8.864260922920135"><ele>430.0</ele><time>2026-04-12T15:56:46Z</time></trkpt><trkpt lat="44.607449089569045" lon="8.864335662831051"><ele>430.0</ele><time>2026-04-12T15:56:48Z</time></trkpt><trkpt lat="44.60745034618002" lon="8.864476334815167"><ele>430.0</ele><time>2026-04-12T15:56:51Z</time></trkpt><trkpt lat="44.60745391139447" lon="8.864606551089485"><ele>430.0</ele><time>2026-04-12T15:56:53Z</time></trkpt><trkpt lat="44.60744787647656" lon="8.864747517342387"><ele>430.0</ele><time>2026-04-12T15:56:56Z</time></trkpt><trkpt lat="44.60739559123545" lon="8.864860043650728"><ele>430.0</ele><time>2026-04-12T15:56:58Z</time></trkpt><trkpt lat="44.60732580415758" lon="8.864962894603423"><ele>430.0</ele><time>2026-04-12T15:57:00Z</time></trkpt><trkpt lat="44.607279511349105" lon="8.86509160269138"><ele>430.0</ele><time>2026-04-12T15:57:02Z</time></trkpt><trkpt lat="44.607210158560676" lon="8.865224564850541"><ele>430.0</ele><time>2026-04-12T15:57:04Z</time></trkpt><trkpt lat="44.60715737827275" lon="8.865326006222373"><ele>430.0</ele><time>2026-04-12T15:57:06Z</time></trkpt><trkpt lat="44.607158496616826" lon="8.865453013194236"><ele>430.0</ele><time>2026-04-12T15:57:08Z</time></trkpt><trkpt lat="44.607236735085216" lon="8.8655622206783"><ele>429.85714285714283</ele><time>2026-04-12T15:57:10Z</time></trkpt><trkpt lat="44.60726262446034" lon="8.86564435032217"><ele>429.7142857142857</ele><time>2026-04-12T15:57:12Z</time></trkpt><trkpt lat="44.60726632013981" lon="8.865737656457524"><ele>429.57142857142856</ele><time>2026-04-12T15:57:31Z</time></trkpt><trkpt lat="44.60721546990463" lon="8.865807662209292"><ele>429.42857142857144</ele><time>2026-04-12T15:57:51Z</time></trkpt><trkpt lat="44.607150686846296" lon="8.8658023814726"><ele>429.28571428571433</ele><time>2026-04-12T15:57:55Z</time></trkpt><trkpt lat="44.60708259168346" lon="8.865789252971902"><ele>429.14285714285717</ele><time>2026-04-12T15:57:59Z</time></trkpt><trkpt lat="44.607009674144095" lon="8.865805984540534"><ele>429.0</ele><time>2026-04-12T15:58:04Z</time></trkpt><trkpt lat="44.606957866795426" lon="8.865891081681164"><ele>431.1666666666667</ele><time>2026-04-12T15:58:08Z</time></trkpt><trkpt lat="44.60690418954537" lon="8.865946535053025"><ele>433.33333333333337</ele><time>2026-04-12T15:58:14Z</time></trkpt><trkpt lat="44.60682491091299" lon="8.866023326100006"><ele>435.5</ele><time>2026-04-12T15:58:17Z</time></trkpt><trkpt lat="44.60676797833051" lon="8.866070970630721"><ele>437.6666666666667</ele><time>2026-04-12T15:58:18Z</time></trkpt><trkpt lat="44.6066964967241" lon="8.866071498865464"><ele>439.83333333333337</ele><time>2026-04-12T15:58:20Z</time></trkpt><trkpt lat="44.60663132725367" lon="8.866053076818401"><ele>442.0</ele><time>2026-04-12T15:58:22Z</time></trkpt><trkpt lat="44.606411931031516" lon="8.866045513727194"><ele>442.00000000000006</ele><time>2026-04-12T15:58:25Z</time></trkpt><trkpt lat="44.60633864535717" lon="8.866038195380055"><ele>442.0</ele><time>2026-04-12T15:58:26Z</time></trkpt><trkpt lat="44.60625948015321" lon="8.866041770369884"><ele>442.0</ele><time>2026-04-12T15:58:27Z</time></trkpt><trkpt lat="44.60618924269765" lon="8.866060489481217"><ele>442.0</ele><time>2026-04-12T15:58:28Z</time></trkpt><trkpt lat="44.60612662666398" lon="8.866082455509575"><ele>442.00000000000006</ele><time>2026-04-12T15:58:29Z</time></trkpt><trkpt lat="44.606044488817886" lon="8.866096223771494"><ele>442.0</ele><time>2026-04-12T15:58:31Z</time></trkpt><trkpt lat="44.60600085420918" lon="8.86591935435505"><ele>446.0</ele><time>2026-04-12T15:58:33Z</time></trkpt><trkpt lat="44.60604470952776" lon="8.865790986862356"><ele>450.00000000000006</ele><time>2026-04-12T15:58:34Z</time></trkpt><trkpt lat="44.606112470005186" lon="8.865655986406265"><ele>454.00000000000006</ele><time>2026-04-12T15:58:35Z</time></trkpt><trkpt lat="44.60619531174313" lon="8.865572181200944"><ele>458.0</ele><time>2026-04-12T15:58:36Z</time></trkpt><trkpt lat="44.606266127038076" lon="8.86551009423178"><ele>462.0</ele><time>2026-04-12T15:58:37Z</time></trkpt><trkpt lat="44.60624699178606" lon="8.865385629382152"><ele>468.0</ele><time>2026-04-12T15:58:39Z</time></trkpt><trkpt lat="44.606131077478075" lon="8.865372350174791"><ele>474.0</ele><time>2026-04-12T15:58:40Z</time></trkpt><trkpt lat="44.6060160743549" lon="8.865461443060775"><ele>480.0</ele><time>2026-04-12T15:58:41Z</time></trkpt><trkpt lat="44.605933277900576" lon="8.865574625800367"><ele>486.0</ele><time>2026-04-12T15:58:42Z</time></trkpt><trkpt lat="44.60586367975601" lon="8.865672162845044"><ele>486.0</ele><time>2026-04-12T15:58:43Z</time></trkpt><trkpt lat="44.60579405008607" lon="8.865800991449179"><ele>486.0</ele><time>2026-04-12T15:58:44Z</time></trkpt><trkpt lat="44.605687255902126" lon="8.86581907633665"><ele>486.0</ele><time>2026-04-12T15:58:45Z</time></trkpt><trkpt lat="44.60558919386523" lon="8.865809712564086"><ele>486.0</ele><time>2026-04-12T15:58:46Z</time></trkpt><trkpt lat="44.605549300014694" lon="8.865716366629577"><ele>486.0</ele><time>2026-04-12T15:58:47Z</time></trkpt><trkpt lat="44.605482890591794" lon="8.865642814049584"><ele>486.0</ele><time>2026-04-12T15:58:48Z</time></trkpt><trkpt lat="44.60546174655347" lon="8.865554030165068"><ele>486.0</ele><time>2026-04-12T15:58:49Z</time></trkpt><trkpt lat="44.60555047353497" lon="8.865488429985321"><ele>486.0</ele><time>2026-04-12T15:58:51Z</time></trkpt><trkpt lat="44.60561902954306" lon="8.865505782135989"><ele>486.0</ele><time>2026-04-12T15:58:52Z</time></trkpt><trkpt lat="44.60569142318718" lon="8.865480384368524"><ele>486.0</ele><time>2026-04-12T15:58:53Z</time></trkpt><trkpt lat="44.6057431795988" lon="8.865406725824654"><ele>486.0</ele><time>2026-04-12T15:58:54Z</time></trkpt><trkpt lat="44.60573398089785" lon="8.86531403662902"><ele>486.0</ele><time>2026-04-12T15:58:55Z</time></trkpt><trkpt lat="44.60566872757716" lon="8.865272925967945"><ele>486.0</ele><time>2026-04-12T15:58:56Z</time></trkpt><trkpt lat="44.60557919305882" lon="8.865252936616073"><ele>486.0</ele><time>2026-04-12T15:58:57Z</time></trkpt><trkpt lat="44.60551094158216" lon="8.865240845745467"><ele>486.0</ele><time>2026-04-12T15:58:58Z</time></trkpt><trkpt lat="44.60535268241571" lon="8.865212199439355"><ele>486.0</ele><time>2026-04-12T15:59:00Z</time></trkpt><trkpt lat="44.60524405318613" lon="8.865180620356707"><ele>492.5</ele><time>2026-04-12T15:59:01Z</time></trkpt><trkpt lat="44.60515695122408" lon="8.865133313081586"><ele>499.0</ele><time>2026-04-12T15:59:02Z</time></trkpt><trkpt lat="44.60505675769282" lon="8.865079926983677"><ele>505.5</ele><time>2026-04-12T15:59:03Z</time></trkpt><trkpt lat="44.604914005221794" lon="8.8651113821644"><ele>512.0</ele><time>2026-04-12T15:59:04Z</time></trkpt><trkpt lat="44.6047731220929" lon="8.86509053787098"><ele>512.0</ele><time>2026-04-12T15:59:05Z</time></trkpt><trkpt lat="44.60466861968807" lon="8.865058803918979"><ele>512.0</ele><time>2026-04-12T15:59:06Z</time></trkpt><trkpt lat="44.6046010378653" lon="8.865067139596508"><ele>512.0</ele><time>2026-04-12T15:59:07Z</time></trkpt><trkpt lat="44.604511394637434" lon="8.86520810941196"><ele>512.0</ele><time>2026-04-12T15:59:09Z</time></trkpt><trkpt lat="44.60441909514754" lon="8.865296114170091"><ele>512.0</ele><time>2026-04-12T15:59:10Z</time></trkpt><trkpt lat="44.60436207871931" lon="8.865356107948095"><ele>515.1666666666666</ele><time>2026-04-12T15:59:11Z</time></trkpt><trkpt lat="44.6043393310473" lon="8.86547194737887"><ele>518.3333333333333</ele><time>2026-04-12T15:59:13Z</time></trkpt><trkpt lat="44.60430192839697" lon="8.86559182747522"><ele>521.5</ele><time>2026-04-12T15:59:58Z</time></trkpt><trkpt lat="44.604242254819894" lon="8.865674026969753"><ele>524.6666666666666</ele><time>2026-04-12T16:00:00Z</time></trkpt><trkpt lat="44.60416138697732" lon="8.865769940956591"><ele>527.8333333333334</ele><time>2026-04-12T16:00:02Z</time></trkpt><trkpt lat="44.60410709310672" lon="8.865815081121633"><ele>531.0</ele><time>2026-04-12T16:00:03Z</time></trkpt><trkpt lat="44.60404218746166" lon="8.865828996797372"><ele>531.0</ele><time>2026-04-12T16:00:04Z</time></trkpt><trkpt lat="44.60397414885097" lon="8.865820421306271"><ele>531.0</ele><time>2026-04-12T16:00:05Z</time></trkpt><trkpt lat="44.603907720845356" lon="8.865808025017275"><ele>531.0</ele><time>2026-04-12T16:00:06Z</time></trkpt><trkpt lat="44.6038437400845" lon="8.865799645688858"><ele>531.0</ele><time>2026-04-12T16:00:07Z</time></trkpt><trkpt lat="44.603780562008104" lon="8.865803046120362"><ele>531.0</ele><time>2026-04-12T16:00:08Z</time></trkpt><trkpt lat="44.60371837356042" lon="8.865824021274161"><ele>531.0</ele><time>2026-04-12T16:00:09Z</time></trkpt><trkpt lat="44.603605677304536" lon="8.865892329303634"><ele>531.0</ele><time>2026-04-12T16:00:11Z</time></trkpt><trkpt lat="44.60348813637337" lon="8.865949811066171"><ele>528.8</ele><time>2026-04-12T16:00:13Z</time></trkpt><trkpt lat="44.60337173372644" lon="8.865978934818457"><ele>526.6</ele><time>2026-04-12T16:00:15Z</time></trkpt><trkpt lat="44.60325355281119" lon="8.866016167497719"><ele>524.4</ele><time>2026-04-12T16:00:17Z</time></trkpt><trkpt lat="44.603185486661644" lon="8.866039928182033"><ele>522.2</ele><time>2026-04-12T16:00:18Z</time></trkpt><trkpt lat="44.60311787823398" lon="8.866050428182175"><ele>520.0</ele><time>2026-04-12T16:00:19Z</time></trkpt><trkpt lat="44.6030110011147" lon="8.866037292798442"><ele>520.0</ele><time>2026-04-12T16:00:21Z</time></trkpt><trkpt lat="44.60293811408733" lon="8.866011983999874"><ele>520.0</ele><time>2026-04-12T16:00:23Z</time></trkpt><trkpt lat="44.60281507850081" lon="8.866047428744755"><ele>520.0</ele><time>2026-04-12T16:00:25Z</time></trkpt><trkpt lat="44.602734471766155" lon="8.866124103002505"><ele>520.0</ele><time>2026-04-12T16:00:26Z</time></trkpt><trkpt lat="44.602638646743976" lon="8.866216579374765"><ele>520.0</ele><time>2026-04-12T16:00:27Z</time></trkpt><trkpt lat="44.60254467766576" lon="8.866313877325524"><ele>520.1666666666667</ele><time>2026-04-12T16:00:28Z</time></trkpt><trkpt lat="44.602471280637765" lon="8.866401402945082"><ele>520.3333333333334</ele><time>2026-04-12T16:00:29Z</time></trkpt><trkpt lat="44.602404606247326" lon="8.866480989775638"><ele>520.5</ele><time>2026-04-12T16:00:30Z</time></trkpt><trkpt lat="44.60233876456928" lon="8.86655620485391"><ele>520.6666666666666</ele><time>2026-04-12T16:00:31Z</time></trkpt><trkpt lat="44.60227814070366" lon="8.866633839553478"><ele>520.8333333333333</ele><time>2026-04-12T16:00:32Z</time></trkpt><trkpt lat="44.602217456852664" lon="8.86671098983674"><ele>521.0</ele><time>2026-04-12T16:00:33Z</time></trkpt><trkpt lat="44.60215705761059" lon="8.866787479736855"><ele>521.0</ele><time>2026-04-12T16:00:34Z</time></trkpt><trkpt lat="44.60210217161647" lon="8.866861074840592"><ele>521.0</ele><time>2026-04-12T16:00:35Z</time></trkpt><trkpt lat="44.6020522510144" lon="8.86692219144821"><ele>521.0</ele><time>2026-04-12T16:00:36Z</time></trkpt><trkpt lat="44.60196448586035" lon="8.866986150505166"><ele>521.0</ele><time>2026-04-12T16:00:38Z</time></trkpt><trkpt lat="44.60186747943511" lon="8.866999515904588"><ele>521.0</ele><time>2026-04-12T16:00:40Z</time></trkpt><trkpt lat="44.60180042765113" lon="8.86701338195885"><ele>521.0</ele><time>2026-04-12T16:00:41Z</time></trkpt><trkpt lat="44.601735067137014" lon="8.867001625549104"><ele>524.3333333333333</ele><time>2026-04-12T16:00:48Z</time></trkpt><trkpt lat="44.601661052427204" lon="8.866987661139497"><ele>527.6666666666666</ele><time>2026-04-12T16:00:50Z</time></trkpt><trkpt lat="44.60157943539575" lon="8.867000393567684"><ele>531.0</ele><time>2026-04-12T16:00:52Z</time></trkpt><trkpt lat="44.60150521441598" lon="8.8670258977194"><ele>534.3333333333334</ele><time>2026-04-12T16:00:53Z</time></trkpt><trkpt lat="44.60140748065138" lon="8.867087061905357"><ele>537.6666666666667</ele><time>2026-04-12T16:00:55Z</time></trkpt><trkpt lat="44.601326822896965" lon="8.867126834389278"><ele>541.0</ele><time>2026-04-12T16:00:57Z</time></trkpt><trkpt lat="44.60124899328962" lon="8.86715554984775"><ele>542.8</ele><time>2026-04-12T16:00:59Z</time></trkpt><trkpt lat="44.601154993498945" lon="8.867196290829648"><ele>544.6</ele><time>2026-04-12T16:01:01Z</time></trkpt><trkpt lat="44.601057743321604" lon="8.867227289670874"><ele>546.4</ele><time>2026-04-12T16:01:03Z</time></trkpt><trkpt lat="44.60095855986934" lon="8.867246288361212"><ele>548.2</ele><time>2026-04-12T16:01:05Z</time></trkpt><trkpt lat="44.60085105836837" lon="8.867263090149192"><ele>550.0</ele><time>2026-04-12T16:01:07Z</time></trkpt><trkpt lat="44.600744149754256" lon="8.867270010347394"><ele>550.0</ele><time>2026-04-12T16:01:09Z</time></trkpt><trkpt lat="44.600644674722545" lon="8.867280713769203"><ele>550.0</ele><time>2026-04-12T16:01:11Z</time></trkpt><trkpt lat="44.60056580970801" lon="8.867273869054246"><ele>550.0</ele><time>2026-04-12T16:01:13Z</time></trkpt><trkpt lat="44.6005132223734" lon="8.867211190850607"><ele>550.0</ele><time>2026-04-12T16:01:15Z</time></trkpt><trkpt lat="44.60047784414142" lon="8.867133136817523"><ele>550.0</ele><time>2026-04-12T16:01:17Z</time></trkpt><trkpt lat="44.60039406500662" lon="8.867135761368717"><ele>550.0</ele><time>2026-04-12T16:01:20Z</time></trkpt><trkpt lat="44.600336636815214" lon="8.867179012519864"><ele>551.2857142857143</ele><time>2026-04-12T16:01:21Z</time></trkpt><trkpt lat="44.600276482829365" lon="8.867212682957446"><ele>552.5714285714286</ele><time>2026-04-12T16:01:22Z</time></trkpt><trkpt lat="44.60020659564194" lon="8.867211436634319"><ele>553.8571428571429</ele><time>2026-04-12T16:01:23Z</time></trkpt><trkpt lat="44.60012597200874" lon="8.867201837012757"><ele>555.1428571428571</ele><time>2026-04-12T16:01:24Z</time></trkpt><trkpt lat="44.60004612684649" lon="8.867209933865018"><ele>556.4285714285714</ele><time>2026-04-12T16:01:25Z</time></trkpt><trkpt lat="44.599978614496145" lon="8.867252780377939"><ele>557.7142857142858</ele><time>2026-04-12T16:01:26Z</time></trkpt><trkpt lat="44.59990867478961" lon="8.867290313382538"><ele>559.0</ele><time>2026-04-12T16:01:27Z</time></trkpt><trkpt lat="44.59984114888408" lon="8.867334410208958"><ele>559.0</ele><time>2026-04-12T16:01:28Z</time></trkpt><trkpt lat="44.59971759342559" lon="8.867371523733427"><ele>559.0</ele><time>2026-04-12T16:01:30Z</time></trkpt><trkpt lat="44.59964928993847" lon="8.867393918831668"><ele>559.0</ele><time>2026-04-12T16:01:31Z</time></trkpt><trkpt lat="44.59956333593132" lon="8.867410856217317"><ele>559.0</ele><time>2026-04-12T16:01:33Z</time></trkpt><trkpt lat="44.59946346641618" lon="8.867448454754022"><ele>559.0</ele><time>2026-04-12T16:01:36Z</time></trkpt><trkpt lat="44.59936893974195" lon="8.867483243202578"><ele>558.8</ele><time>2026-04-12T16:01:38Z</time></trkpt><trkpt lat="44.59930807942483" lon="8.867567831291343"><ele>558.5999999999999</ele><time>2026-04-12T16:01:40Z</time></trkpt><trkpt lat="44.59925398864714" lon="8.867697367758383"><ele>558.4</ele><time>2026-04-12T16:01:42Z</time></trkpt><trkpt lat="44.59921269095396" lon="8.867850649318981"><ele>558.1999999999999</ele><time>2026-04-12T16:01:44Z</time></trkpt><trkpt lat="44.59916929868726" lon="8.867917180045026"><ele>558.0</ele><time>2026-04-12T16:01:45Z</time></trkpt><trkpt lat="44.59911630654192" lon="8.867998250191077"><ele>558.0</ele><time>2026-04-12T16:01:46Z</time></trkpt><trkpt lat="44.599076644555375" lon="8.868083921668372"><ele>558.0</ele><time>2026-04-12T16:01:47Z</time></trkpt><trkpt lat="44.59900995090313" lon="8.868237213248188"><ele>558.0</ele><time>2026-04-12T16:01:49Z</time></trkpt><trkpt lat="44.59896201672086" lon="8.86831334371715"><ele>558.0</ele><time>2026-04-12T16:01:50Z</time></trkpt><trkpt lat="44.59889579760883" lon="8.868410212919724"><ele>558.0</ele><time>2026-04-12T16:01:51Z</time></trkpt><trkpt lat="44.598844647869036" lon="8.868547511754517"><ele>557.4</ele><time>2026-04-12T16:01:52Z</time></trkpt><trkpt lat="44.59877840667914" lon="8.868686588884636"><ele>556.8</ele><time>2026-04-12T16:01:53Z</time></trkpt><trkpt lat="44.59872220760155" lon="8.868782770019388"><ele>556.2</ele><time>2026-04-12T16:01:55Z</time></trkpt><trkpt lat="44.59865542793923" lon="8.868916708818666"><ele>555.6</ele><time>2026-04-12T16:01:58Z</time></trkpt><trkpt lat="44.59861430232415" lon="8.86900901384262"><ele>555.0</ele><time>2026-04-12T16:01:59Z</time></trkpt><trkpt lat="44.59856760544855" lon="8.869114434314275"><ele>558.8</ele><time>2026-04-12T16:02:00Z</time></trkpt><trkpt lat="44.59851295875372" lon="8.869229853445521"><ele>562.6</ele><time>2026-04-12T16:02:01Z</time></trkpt><trkpt lat="44.59845786716566" lon="8.86933913855693"><ele>566.4</ele><time>2026-04-12T16:02:02Z</time></trkpt><trkpt lat="44.59838702860397" lon="8.869441100770283"><ele>570.2</ele><time>2026-04-12T16:02:03Z</time></trkpt><trkpt lat="44.598324173983485" lon="8.869530903336736"><ele>574.0</ele><time>2026-04-12T16:02:04Z</time></trkpt><trkpt lat="44.5982726066971" lon="8.86968778138637"><ele>574.0</ele><time>2026-04-12T16:02:06Z</time></trkpt><trkpt lat="44.5982433311764" lon="8.869772043345275"><ele>574.0</ele><time>2026-04-12T16:02:07Z</time></trkpt><trkpt lat="44.598181622905386" lon="8.869863304047554"><ele>574.0</ele><time>2026-04-12T16:02:08Z</time></trkpt><trkpt lat="44.598121251878105" lon="8.869942944299833"><ele>574.0</ele><time>2026-04-12T16:02:09Z</time></trkpt><trkpt lat="44.59805387443809" lon="8.870055826513232"><ele>574.0</ele><time>2026-04-12T16:02:11Z</time></trkpt><trkpt lat="44.598012762546944" lon="8.870162031891267"><ele>574.0</ele><time>2026-04-12T16:02:13Z</time></trkpt><trkpt lat="44.59793402767293" lon="8.870323358001027"><ele>572.25</ele><time>2026-04-12T16:02:16Z</time></trkpt><trkpt lat="44.597876758928656" lon="8.870428722534168"><ele>570.5</ele><time>2026-04-12T16:02:17Z</time></trkpt><trkpt lat="44.597815621434975" lon="8.870558204426255"><ele>568.75</ele><time>2026-04-12T16:02:18Z</time></trkpt><trkpt lat="44.59773882279753" lon="8.870724380909316"><ele>567.0</ele><time>2026-04-12T16:02:19Z</time></trkpt><trkpt lat="44.597665341783" lon="8.870879902852556"><ele>571.4</ele><time>2026-04-12T16:02:20Z</time></trkpt><trkpt lat="44.597601402732955" lon="8.871018250036009"><ele>575.8000000000001</ele><time>2026-04-12T16:02:21Z</time></trkpt><trkpt lat="44.597536944843675" lon="8.871150409268372"><ele>580.2</ele><time>2026-04-12T16:02:22Z</time></trkpt><trkpt lat="44.59748403858918" lon="8.871242526820371"><ele>584.6</ele><time>2026-04-12T16:02:23Z</time></trkpt><trkpt lat="44.59743189374548" lon="8.871317288739958"><ele>589.0</ele><time>2026-04-12T16:02:24Z</time></trkpt><trkpt lat="44.5973962683853" lon="8.87139692475518"><ele>589.0</ele><time>2026-04-12T16:02:25Z</time></trkpt><trkpt lat="44.59737079681187" lon="8.871490792877358"><ele>589.0</ele><time>2026-04-12T16:02:26Z</time></trkpt><trkpt lat="44.59733819300814" lon="8.871576732220152"><ele>589.0</ele><time>2026-04-12T16:02:27Z</time></trkpt><trkpt lat="44.59729917437362" lon="8.871669569951905"><ele>589.0</ele><time>2026-04-12T16:02:28Z</time></trkpt><trkpt lat="44.5972396476706" lon="8.871776646941708"><ele>589.0</ele><time>2026-04-12T16:02:29Z</time></trkpt><trkpt lat="44.597180149620385" lon="8.871872218968392"><ele>589.0</ele><time>2026-04-12T16:02:30Z</time></trkpt><trkpt lat="44.597129666974844" lon="8.87196104546949"><ele>589.0</ele><time>2026-04-12T16:02:31Z</time></trkpt><trkpt lat="44.59708802545602" lon="8.872048261089002"><ele>589.0</ele><time>2026-04-12T16:02:32Z</time></trkpt><trkpt lat="44.59704802110453" lon="8.872149746142604"><ele>589.0</ele><time>2026-04-12T16:02:33Z</time></trkpt><trkpt lat="44.59701322302318" lon="8.872226650589495"><ele>589.0</ele><time>2026-04-12T16:02:34Z</time></trkpt><trkpt lat="44.596936904271494" lon="8.872308398536322"><ele>589.0</ele><time>2026-04-12T16:02:36Z</time></trkpt><trkpt lat="44.59688470358449" lon="8.872436036718653"><ele>589.0</ele><time>2026-04-12T16:02:41Z</time></trkpt><trkpt lat="44.59680787147373" lon="8.872576464769649"><ele>591.8333333333334</ele><time>2026-04-12T16:02:43Z</time></trkpt><trkpt lat="44.59675381219507" lon="8.872652674607304"><ele>594.6666666666667</ele><time>2026-04-12T16:02:44Z</time></trkpt><trkpt lat="44.596677836801526" lon="8.872774401247936"><ele>597.5</ele><time>2026-04-12T16:02:46Z</time></trkpt><trkpt lat="44.59663494327867" lon="8.872852681726863"><ele>600.3333333333334</ele><time>2026-04-12T16:02:47Z</time></trkpt><trkpt lat="44.5966053102998" lon="8.872941888285762"><ele>603.1666666666666</ele><time>2026-04-12T16:02:49Z</time></trkpt><trkpt lat="44.596561001786625" lon="8.873061480510612"><ele>606.0</ele><time>2026-04-12T16:02:51Z</time></trkpt><trkpt lat="44.596520344771136" lon="8.873140604456086"><ele>606.0</ele><time>2026-04-12T16:02:52Z</time></trkpt><trkpt lat="44.59644701991915" lon="8.873217236122459"><ele>606.0</ele><time>2026-04-12T16:02:54Z</time></trkpt><trkpt lat="44.59639667367685" lon="8.873315644491306"><ele>606.0</ele><time>2026-04-12T16:03:37Z</time></trkpt><trkpt lat="44.596351898243206" lon="8.873403054959574"><ele>606.0</ele><time>2026-04-12T16:03:40Z</time></trkpt><trkpt lat="44.59627099814116" lon="8.87354372914024"><ele>606.0</ele><time>2026-04-12T16:03:42Z</time></trkpt><trkpt lat="44.59622882957113" lon="8.873624499402391"><ele>606.8333333333334</ele><time>2026-04-12T16:03:43Z</time></trkpt><trkpt lat="44.596194572940334" lon="8.873702572638237"><ele>607.6666666666666</ele><time>2026-04-12T16:03:44Z</time></trkpt><trkpt lat="44.59612811746175" lon="8.873758524237518"><ele>608.5</ele><time>2026-04-12T16:03:46Z</time></trkpt><trkpt lat="44.59599714502634" lon="8.873723437274327"><ele>609.3333333333333</ele><time>2026-04-12T16:03:48Z</time></trkpt><trkpt lat="44.59592266147782" lon="8.873713690741265"><ele>610.1666666666666</ele><time>2026-04-12T16:03:49Z</time></trkpt><trkpt lat="44.59585846566777" lon="8.873716645945958"><ele>611.0</ele><time>2026-04-12T16:03:50Z</time></trkpt><trkpt lat="44.595757021733654" lon="8.873732803788778"><ele>613.8</ele><time>2026-04-12T16:03:52Z</time></trkpt><trkpt lat="44.59564016324211" lon="8.873770012681733"><ele>616.6</ele><time>2026-04-12T16:03:54Z</time></trkpt><trkpt lat="44.59557935789723" lon="8.873837044185775"><ele>619.4</ele><time>2026-04-12T16:03:55Z</time></trkpt><trkpt lat="44.595522642139635" lon="8.87389889875135"><ele>622.2</ele><time>2026-04-12T16:03:56Z</time></trkpt><trkpt lat="44.5954507572979" lon="8.873959007238435"><ele>625.0</ele><time>2026-04-12T16:03:57Z</time></trkpt><trkpt lat="44.59536279570235" lon="8.874017745528151"><ele>625.8333333333334</ele><time>2026-04-12T16:03:58Z</time></trkpt><trkpt lat="44.59527096569385" lon="8.874063712561586"><ele>626.6666666666667</ele><time>2026-04-12T16:03:59Z</time></trkpt><trkpt lat="44.59517956231348" lon="8.874094112375792"><ele>627.5</ele><time>2026-04-12T16:04:00Z</time></trkpt><trkpt lat="44.59508581983228" lon="8.874132736136499"><ele>628.3333333333334</ele><time>2026-04-12T16:04:01Z</time></trkpt><trkpt lat="44.594998381606096" lon="8.874118766910742"><ele>629.1666666666666</ele><time>2026-04-12T16:04:02Z</time></trkpt><trkpt lat="44.59493360294245" lon="8.874099825429136"><ele>630.0</ele><time>2026-04-12T16:04:03Z</time></trkpt><trkpt lat="44.59482975062042" lon="8.874088214136295"><ele>630.0</ele><time>2026-04-12T16:04:05Z</time></trkpt><trkpt lat="44.59470686176439" lon="8.8740467550597"><ele>630.0</ele><time>2026-04-12T16:04:07Z</time></trkpt><trkpt lat="44.594649316326944" lon="8.873986978095123"><ele>630.0</ele><time>2026-04-12T16:04:08Z</time></trkpt><trkpt lat="44.59460514179849" lon="8.873893445869827"><ele>630.0</ele><time>2026-04-12T16:04:09Z</time></trkpt><trkpt lat="44.59457612527496" lon="8.873784040969161"><ele>630.0</ele><time>2026-04-12T16:04:10Z</time></trkpt><trkpt lat="44.5945609813285" lon="8.873677541848734"><ele>630.0</ele><time>2026-04-12T16:04:11Z</time></trkpt><trkpt lat="44.594532119758334" lon="8.873594322164937"><ele>634.0</ele><time>2026-04-12T16:04:12Z</time></trkpt><trkpt lat="44.59441716344978" lon="8.873524571794386"><ele>638.0</ele><time>2026-04-12T16:04:14Z</time></trkpt><trkpt lat="44.59433634422938" lon="8.873536402364325"><ele>642.0</ele><time>2026-04-12T16:04:15Z</time></trkpt><trkpt lat="44.59424930730513" lon="8.873546813514167"><ele>646.0</ele><time>2026-04-12T16:04:16Z</time></trkpt><trkpt lat="44.594149960560934" lon="8.873543419884841"><ele>650.0</ele><time>2026-04-12T16:04:17Z</time></trkpt><trkpt lat="44.59405422028148" lon="8.873494286552322"><ele>650.0</ele><time>2026-04-12T16:04:18Z</time></trkpt><trkpt lat="44.59396036300817" lon="8.873485299839162"><ele>650.0</ele><time>2026-04-12T16:04:19Z</time></trkpt><trkpt lat="44.59387354296723" lon="8.873481000285205"><ele>650.0</ele><time>2026-04-12T16:04:20Z</time></trkpt><trkpt lat="44.59379134810823" lon="8.873478367491144"><ele>650.0</ele><time>2026-04-12T16:04:21Z</time></trkpt><trkpt lat="44.593710010441185" lon="8.873483662596545"><ele>650.0</ele><time>2026-04-12T16:04:22Z</time></trkpt><trkpt lat="44.59362885853728" lon="8.873488073474203"><ele>650.0</ele><time>2026-04-12T16:04:23Z</time></trkpt><trkpt lat="44.593544097167545" lon="8.873489501971342"><ele>649.1666666666666</ele><time>2026-04-12T16:04:24Z</time></trkpt><trkpt lat="44.59345996871778" lon="8.873478215662534"><ele>648.3333333333333</ele><time>2026-04-12T16:04:25Z</time></trkpt><trkpt lat="44.59337963644856" lon="8.87345869377195"><ele>647.5</ele><time>2026-04-12T16:04:26Z</time></trkpt><trkpt lat="44.593301762880294" lon="8.873445218154792"><ele>646.6666666666666</ele><time>2026-04-12T16:04:27Z</time></trkpt><trkpt lat="44.593235424014914" lon="8.873372805680562"><ele>645.8333333333334</ele><time>2026-04-12T16:04:28Z</time></trkpt><trkpt lat="44.593180934980204" lon="8.873272520880779"><ele>645.0</ele><time>2026-04-12T16:04:29Z</time></trkpt><trkpt lat="44.593132794679235" lon="8.873159772315065"><ele>645.0</ele><time>2026-04-12T16:04:30Z</time></trkpt><trkpt lat="44.593100359266074" lon="8.873040329837362"><ele>645.0</ele><time>2026-04-12T16:04:31Z</time></trkpt><trkpt lat="44.59307989005801" lon="8.872919759016092"><ele>645.0</ele><time>2026-04-12T16:04:32Z</time></trkpt><trkpt lat="44.59305688423955" lon="8.872802236084738"><ele>645.0</ele><time>2026-04-12T16:04:33Z</time></trkpt><trkpt lat="44.59301166174285" lon="8.872697127629428"><ele>645.0</ele><time>2026-04-12T16:04:34Z</time></trkpt><trkpt lat="44.59295005041319" lon="8.872595425829783"><ele>645.0</ele><time>2026-04-12T16:04:35Z</time></trkpt><trkpt lat="44.5928914736692" lon="8.872490387111686"><ele>647.8</ele><time>2026-04-12T16:04:36Z</time></trkpt><trkpt lat="44.592834250122" lon="8.87238035435045"><ele>650.6</ele><time>2026-04-12T16:04:37Z</time></trkpt><trkpt lat="44.59277164853393" lon="8.872274146456192"><ele>653.4000000000001</ele><time>2026-04-12T16:04:38Z</time></trkpt><trkpt lat="44.59269622131363" lon="8.87217602998394"><ele>656.2</ele><time>2026-04-12T16:04:39Z</time></trkpt><trkpt lat="44.592622288401905" lon="8.872087299388921"><ele>659.0</ele><time>2026-04-12T16:04:40Z</time></trkpt><trkpt lat="44.59254781217632" lon="8.872002627144807"><ele>659.0</ele><time>2026-04-12T16:04:41Z</time></trkpt><trkpt lat="44.59246976489269" lon="8.871927745203735"><ele>659.0</ele><time>2026-04-12T16:04:42Z</time></trkpt><trkpt lat="44.592389887228" lon="8.871869131445289"><ele>659.0</ele><time>2026-04-12T16:04:43Z</time></trkpt><trkpt lat="44.59230861980094" lon="8.871809444902553"><ele>659.0</ele><time>2026-04-12T16:04:44Z</time></trkpt><trkpt lat="44.59222336477134" lon="8.871756927926551"><ele>659.0</ele><time>2026-04-12T16:04:45Z</time></trkpt><trkpt lat="44.59214188157659" lon="8.871703904081835"><ele>658.3333333333333</ele><time>2026-04-12T16:04:46Z</time></trkpt><trkpt lat="44.59206563980165" lon="8.871655211472907"><ele>657.6666666666666</ele><time>2026-04-12T16:04:47Z</time></trkpt><trkpt lat="44.59199649184402" lon="8.871617253074252"><ele>657.0</ele><time>2026-04-12T16:04:48Z</time></trkpt><trkpt lat="44.59192637736336" lon="8.871585996924157"><ele>656.3333333333334</ele><time>2026-04-12T16:04:49Z</time></trkpt><trkpt lat="44.59184897836484" lon="8.871641908327506"><ele>655.6666666666667</ele><time>2026-04-12T16:04:50Z</time></trkpt><trkpt lat="44.591798180300486" lon="8.871759537489122"><ele>655.0</ele><time>2026-04-12T16:04:51Z</time></trkpt><trkpt lat="44.59175265060703" lon="8.871872923421034"><ele>658.4</ele><time>2026-04-12T16:04:52Z</time></trkpt><trkpt lat="44.59170690234419" lon="8.871985823212794"><ele>661.8</ele><time>2026-04-12T16:04:53Z</time></trkpt><trkpt lat="44.59166126093554" lon="8.87209621650031"><ele>665.2</ele><time>2026-04-12T16:04:54Z</time></trkpt><trkpt lat="44.59161331092274" lon="8.872208228406372"><ele>668.6</ele><time>2026-04-12T16:04:55Z</time></trkpt><trkpt lat="44.59156309141938" lon="8.872322183019724"><ele>672.0</ele><time>2026-04-12T16:04:56Z</time></trkpt><trkpt lat="44.591504647407426" lon="8.872426095307512"><ele>672.0</ele><time>2026-04-12T16:04:57Z</time></trkpt><trkpt lat="44.5914292868802" lon="8.872505898392694"><ele>672.0</ele><time>2026-04-12T16:04:58Z</time></trkpt><trkpt lat="44.591341500440784" lon="8.872565740772414"><ele>672.0</ele><time>2026-04-12T16:04:59Z</time></trkpt><trkpt lat="44.59125010519282" lon="8.872606315373663"><ele>672.0</ele><time>2026-04-12T16:05:00Z</time></trkpt><trkpt lat="44.59115693180997" lon="8.872635287503144"><ele>672.0</ele><time>2026-04-12T16:05:01Z</time></trkpt><trkpt lat="44.59106756752372" lon="8.872585566873953"><ele>672.5</ele><time>2026-04-12T16:05:02Z</time></trkpt><trkpt lat="44.59097659037893" lon="8.872595809919575"><ele>673.0</ele><time>2026-04-12T16:05:03Z</time></trkpt><trkpt lat="44.59089072129617" lon="8.872613242600634"><ele>673.5</ele><time>2026-04-12T16:05:04Z</time></trkpt><trkpt lat="44.59080896678498" lon="8.872638863421335"><ele>674.0</ele><time>2026-04-12T16:05:05Z</time></trkpt><trkpt lat="44.590745230295184" lon="8.872686778025368"><ele>674.5</ele><time>2026-04-12T16:05:06Z</time></trkpt><trkpt lat="44.59069527895334" lon="8.872758571367557"><ele>675.0</ele><time>2026-04-12T16:05:07Z</time></trkpt><trkpt lat="44.59068329046203" lon="8.872886418993758"><ele>675.0</ele><time>2026-04-12T16:05:08Z</time></trkpt><trkpt lat="44.59073231199805" lon="8.87301104030262"><ele>675.0</ele><time>2026-04-12T16:05:09Z</time></trkpt><trkpt lat="44.59083964582714" lon="8.87306270199812"><ele>675.0</ele><time>2026-04-12T16:05:10Z</time></trkpt><trkpt lat="44.59090627705516" lon="8.873154469047577"><ele>675.0</ele><time>2026-04-12T16:05:11Z</time></trkpt><trkpt lat="44.590969554504056" lon="8.873251431505032"><ele>675.0</ele><time>2026-04-12T16:05:12Z</time></trkpt><trkpt lat="44.59102004145281" lon="8.873377197480183"><ele>673.0</ele><time>2026-04-12T16:05:13Z</time></trkpt><trkpt lat="44.591044750352175" lon="8.87353355623699"><ele>671.0</ele><time>2026-04-12T16:05:14Z</time></trkpt><trkpt lat="44.591072010692976" lon="8.873695598792775"><ele>669.0</ele><time>2026-04-12T16:05:15Z</time></trkpt><trkpt lat="44.591112060176116" lon="8.873862682342173"><ele>667.0</ele><time>2026-04-12T16:05:16Z</time></trkpt><trkpt lat="44.591178731914425" lon="8.87402493054199"><ele>671.25</ele><time>2026-04-12T16:05:17Z</time></trkpt><trkpt lat="44.59123900252031" lon="8.874196092631792"><ele>675.5</ele><time>2026-04-12T16:05:18Z</time></trkpt><trkpt lat="44.59128958862463" lon="8.87437490433501"><ele>679.75</ele><time>2026-04-12T16:05:19Z</time></trkpt><trkpt lat="44.59130748808725" lon="8.874561099604936"><ele>684.0</ele><time>2026-04-12T16:05:20Z</time></trkpt><trkpt lat="44.59130316095996" lon="8.874743277005214"><ele>685.0</ele><time>2026-04-12T16:05:21Z</time></trkpt><trkpt lat="44.59128654547284" lon="8.874895830808324"><ele>686.0</ele><time>2026-04-12T16:05:22Z</time></trkpt><trkpt lat="44.59129752958128" lon="8.875035246078829"><ele>687.0</ele><time>2026-04-12T16:05:23Z</time></trkpt><trkpt lat="44.591306933596904" lon="8.875156043466504"><ele>688.0</ele><time>2026-04-12T16:05:24Z</time></trkpt><trkpt lat="44.59138207417565" lon="8.875250592249207"><ele>689.0</ele><time>2026-04-12T16:05:25Z</time></trkpt><trkpt lat="44.59150740711399" lon="8.875297865014778"><ele>689.75</ele><time>2026-04-12T16:05:26Z</time></trkpt><trkpt lat="44.591633694245" lon="8.875345751249226"><ele>690.5</ele><time>2026-04-12T16:05:27Z</time></trkpt><trkpt lat="44.59173314816225" lon="8.875434218900661"><ele>691.25</ele><time>2026-04-12T16:05:28Z</time></trkpt><trkpt lat="44.59179904941408" lon="8.875552490230655"><ele>692.0</ele><time>2026-04-12T16:05:29Z</time></trkpt><trkpt lat="44.5918592726444" lon="8.875670196735445"><ele>692.0</ele><time>2026-04-12T16:05:30Z</time></trkpt><trkpt lat="44.59189960155843" lon="8.875793341334989"><ele>692.0</ele><time>2026-04-12T16:05:31Z</time></trkpt><trkpt lat="44.59187536984042" lon="8.875933404499998"><ele>692.0</ele><time>2026-04-12T16:05:32Z</time></trkpt><trkpt lat="44.59186399971697" lon="8.876073116190486"><ele>692.0</ele><time>2026-04-12T16:05:33Z</time></trkpt><trkpt lat="44.591853228934916" lon="8.87621344210205"><ele>692.0</ele><time>2026-04-12T16:05:34Z</time></trkpt><trkpt lat="44.59185276331041" lon="8.876350144932237"><ele>693.6</ele><time>2026-04-12T16:05:35Z</time></trkpt><trkpt lat="44.591878623685865" lon="8.876487931839682"><ele>695.2</ele><time>2026-04-12T16:05:36Z</time></trkpt><trkpt lat="44.59188141420336" lon="8.87663305221726"><ele>696.8</ele><time>2026-04-12T16:05:37Z</time></trkpt><trkpt lat="44.59188605886456" lon="8.876788052293776"><ele>698.4</ele><time>2026-04-12T16:05:38Z</time></trkpt><trkpt lat="44.591889073020624" lon="8.876947345461462"><ele>700.0</ele><time>2026-04-12T16:05:39Z</time></trkpt><trkpt lat="44.59186608010849" lon="8.87710852066268"><ele>702.4</ele><time>2026-04-12T16:05:40Z</time></trkpt><trkpt lat="44.591846195011435" lon="8.877269819186104"><ele>704.8</ele><time>2026-04-12T16:05:41Z</time></trkpt><trkpt lat="44.59182773161274" lon="8.87740656620056"><ele>707.2</ele><time>2026-04-12T16:05:42Z</time></trkpt><trkpt lat="44.59179876102825" lon="8.87752720815037"><ele>709.6</ele><time>2026-04-12T16:05:43Z</time></trkpt><trkpt lat="44.59174801210485" lon="8.877627683213504"><ele>712.0</ele><time>2026-04-12T16:05:44Z</time></trkpt><trkpt lat="44.59169731861037" lon="8.877712635512825"><ele>713.5</ele><time>2026-04-12T16:05:45Z</time></trkpt><trkpt lat="44.591635118142236" lon="8.877757126853101"><ele>715.0</ele><time>2026-04-12T16:05:46Z</time></trkpt><trkpt lat="44.59160018505652" lon="8.877838382037716"><ele>716.5</ele><time>2026-04-12T16:05:47Z</time></trkpt><trkpt lat="44.59159848056913" lon="8.87795180194589"><ele>718.0</ele><time>2026-04-12T16:05:48Z</time></trkpt><trkpt lat="44.5915944117437" lon="8.878063575850387"><ele>719.5</ele><time>2026-04-12T16:05:49Z</time></trkpt><trkpt lat="44.59154408933037" lon="8.878145141879612"><ele>721.0</ele><time>2026-04-12T16:05:50Z</time></trkpt><trkpt lat="44.59145554548239" lon="8.878146176392512"><ele>721.0</ele><time>2026-04-12T16:05:51Z</time></trkpt><trkpt lat="44.59138009171022" lon="8.87818755434895"><ele>721.0</ele><time>2026-04-12T16:05:52Z</time></trkpt><trkpt lat="44.59130699026356" lon="8.878233935177136"><ele>721.0</ele><time>2026-04-12T16:05:53Z</time></trkpt><trkpt lat="44.591234370899514" lon="8.878284983115815"><ele>721.0</ele><time>2026-04-12T16:05:54Z</time></trkpt><trkpt lat="44.59117421539779" lon="8.878328892532071"><ele>721.0</ele><time>2026-04-12T16:05:55Z</time></trkpt><trkpt lat="44.59109550905416" lon="8.8784133493528"><ele>721.0</ele><time>2026-04-12T16:05:57Z</time></trkpt><trkpt lat="44.591028079861964" lon="8.878476802208432"><ele>721.8</ele><time>2026-04-12T16:05:59Z</time></trkpt><trkpt lat="44.59091841637372" lon="8.878556523255895"><ele>722.5999999999999</ele><time>2026-04-12T16:07:45Z</time></trkpt><trkpt lat="44.5908352186062" lon="8.878587981531096"><ele>723.4</ele><time>2026-04-12T16:07:46Z</time></trkpt><trkpt lat="44.5907526817221" lon="8.878604688056486"><ele>724.2</ele><time>2026-04-12T16:07:47Z</time></trkpt><trkpt lat="44.5906723361952" lon="8.878571416024215"><ele>725.0</ele><time>2026-04-12T16:07:48Z</time></trkpt><trkpt lat="44.590598847211034" lon="8.878594181562068"><ele>725.0</ele><time>2026-04-12T16:07:49Z</time></trkpt><trkpt lat="44.59052257745428" lon="8.878646411704084"><ele>725.0</ele><time>2026-04-12T16:07:50Z</time></trkpt><trkpt lat="44.590425483343374" lon="8.878663338156697"><ele>725.0</ele><time>2026-04-12T16:07:51Z</time></trkpt><trkpt lat="44.5903383487253" lon="8.878704508126646"><ele>725.0</ele><time>2026-04-12T16:07:52Z</time></trkpt><trkpt lat="44.590249763267" lon="8.878754109981141"><ele>725.0</ele><time>2026-04-12T16:07:53Z</time></trkpt><trkpt lat="44.59016692365997" lon="8.878806405426287"><ele>723.0</ele><time>2026-04-12T16:07:54Z</time></trkpt><trkpt lat="44.590095382343016" lon="8.878897410216554"><ele>721.0</ele><time>2026-04-12T16:07:55Z</time></trkpt><trkpt lat="44.59001030150416" lon="8.878966964757264"><ele>719.0</ele><time>2026-04-12T16:07:56Z</time></trkpt><trkpt lat="44.58992683864201" lon="8.879038312105095"><ele>717.0</ele><time>2026-04-12T16:07:57Z</time></trkpt><trkpt lat="44.58984027880552" lon="8.879108107732097"><ele>715.0</ele><time>2026-04-12T16:07:58Z</time></trkpt><trkpt lat="44.58975566307558" lon="8.879179455772544"><ele>715.0</ele><time>2026-04-12T16:07:59Z</time></trkpt><trkpt lat="44.58966944928219" lon="8.879246802990869"><ele>715.0</ele><time>2026-04-12T16:08:00Z</time></trkpt><trkpt lat="44.58958042968945" lon="8.879311901092406"><ele>715.0</ele><time>2026-04-12T16:08:01Z</time></trkpt><trkpt lat="44.58949033211139" lon="8.87937440313775"><ele>715.0</ele><time>2026-04-12T16:08:02Z</time></trkpt><trkpt lat="44.589398495610745" lon="8.879432038112904"><ele>715.0</ele><time>2026-04-12T16:08:03Z</time></trkpt><trkpt lat="44.589306515287326" lon="8.87948608662566"><ele>712.4</ele><time>2026-04-12T16:08:04Z</time></trkpt><trkpt lat="44.589215335551884" lon="8.879544190894126"><ele>709.8</ele><time>2026-04-12T16:08:05Z</time></trkpt><trkpt lat="44.58912465327011" lon="8.879593472127185"><ele>707.2</ele><time>2026-04-12T16:08:06Z</time></trkpt><trkpt lat="44.58903313357577" lon="8.879643447637427"><ele>704.6</ele><time>2026-04-12T16:08:07Z</time></trkpt><trkpt lat="44.58894375293383" lon="8.879692408783365"><ele>702.0</ele><time>2026-04-12T16:08:08Z</time></trkpt><trkpt lat="44.588856701692485" lon="8.879742820947262"><ele>702.0</ele><time>2026-04-12T16:08:09Z</time></trkpt><trkpt lat="44.58875931556253" lon="8.879755981603402"><ele>702.0</ele><time>2026-04-12T16:08:10Z</time></trkpt><trkpt lat="44.58867217905132" lon="8.879801102384763"><ele>702.0</ele><time>2026-04-12T16:08:11Z</time></trkpt><trkpt lat="44.58858563359662" lon="8.879845473195724"><ele>702.0</ele><time>2026-04-12T16:08:12Z</time></trkpt><trkpt lat="44.58849915088852" lon="8.87988841795883"><ele>702.0</ele><time>2026-04-12T16:08:13Z</time></trkpt><trkpt lat="44.58841762044975" lon="8.879928903614628"><ele>702.6666666666666</ele><time>2026-04-12T16:08:14Z</time></trkpt><trkpt lat="44.58833449160979" lon="8.879969245808212"><ele>703.3333333333334</ele><time>2026-04-12T16:08:15Z</time></trkpt><trkpt lat="44.58825849627645" lon="8.880005652437957"><ele>704.0</ele><time>2026-04-12T16:08:16Z</time></trkpt><trkpt lat="44.588184067008164" lon="8.880042850248255"><ele>704.6666666666667</ele><time>2026-04-12T16:08:17Z</time></trkpt><trkpt lat="44.58810076992105" lon="8.880089285595426"><ele>705.3333333333334</ele><time>2026-04-12T16:08:18Z</time></trkpt><trkpt lat="44.58802029258968" lon="8.880147403133705"><ele>706.0</ele><time>2026-04-12T16:08:19Z</time></trkpt><trkpt lat="44.587940698809604" lon="8.88021317230409"><ele>705.6666666666667</ele><time>2026-04-12T16:08:20Z</time></trkpt><trkpt lat="44.58787226235694" lon="8.880272032211975"><ele>705.3333333333334</ele><time>2026-04-12T16:08:21Z</time></trkpt><trkpt lat="44.58781178666381" lon="8.880306535748169"><ele>705.0</ele><time>2026-04-12T16:08:22Z</time></trkpt><trkpt lat="44.58774502198734" lon="8.880337993702758"><ele>704.6666666666666</ele><time>2026-04-12T16:08:23Z</time></trkpt><trkpt lat="44.58762882358818" lon="8.880369987153646"><ele>704.3333333333333</ele><time>2026-04-12T16:08:25Z</time></trkpt><trkpt lat="44.58756445348246" lon="8.88042793540122"><ele>704.0</ele><time>2026-04-12T16:08:27Z</time></trkpt><trkpt lat="44.58756310919467" lon="8.880945995253864"><ele>704.0</ele><time>2026-04-12T16:08:28Z</time></trkpt><trkpt lat="44.58751209846124" lon="8.8810488833504"><ele>704.0</ele><time>2026-04-12T16:08:29Z</time></trkpt><trkpt lat="44.58747754838999" lon="8.88115349929651"><ele>704.0</ele><time>2026-04-12T16:08:30Z</time></trkpt><trkpt lat="44.58746157935393" lon="8.88127600331282"><ele>704.0</ele><time>2026-04-12T16:08:31Z</time></trkpt><trkpt lat="44.587467371391" lon="8.881407109700609"><ele>704.0</ele><time>2026-04-12T16:08:32Z</time></trkpt><trkpt lat="44.58745120018891" lon="8.881616439856787"><ele>704.0</ele><time>2026-04-12T16:08:34Z</time></trkpt><trkpt lat="44.58743788281346" lon="8.8817154912117"><ele>704.0</ele><time>2026-04-12T16:08:35Z</time></trkpt><trkpt lat="44.58741108111733" lon="8.881830756132201"><ele>704.0</ele><time>2026-04-12T16:08:36Z</time></trkpt><trkpt lat="44.58738221407744" lon="8.881930352338891"><ele>704.0</ele><time>2026-04-12T16:08:37Z</time></trkpt><trkpt lat="44.58733972735684" lon="8.882027598887547"><ele>704.0</ele><time>2026-04-12T16:08:38Z</time></trkpt><trkpt lat="44.587255668516924" lon="8.88212066753132"><ele>704.0</ele><time>2026-04-12T16:08:40Z</time></trkpt><trkpt lat="44.58719452206576" lon="8.882145651671165"><ele>702.8333333333333</ele><time>2026-04-12T16:08:41Z</time></trkpt><trkpt lat="44.587129313278936" lon="8.882165057602267"><ele>701.6666666666666</ele><time>2026-04-12T16:08:42Z</time></trkpt><trkpt lat="44.58705566237073" lon="8.882298497807913"><ele>700.5</ele><time>2026-04-12T16:08:44Z</time></trkpt><trkpt lat="44.58702966661742" lon="8.882405037252676"><ele>699.3333333333334</ele><time>2026-04-12T16:08:45Z</time></trkpt><trkpt lat="44.587012388559714" lon="8.882511271751262"><ele>698.1666666666667</ele><time>2026-04-12T16:08:46Z</time></trkpt><trkpt lat="44.586982479102375" lon="8.882595099415118"><ele>697.0</ele><time>2026-04-12T16:08:47Z</time></trkpt><trkpt lat="44.586979295238116" lon="8.882744429526577"><ele>696.6666666666667</ele><time>2026-04-12T16:08:49Z</time></trkpt><trkpt lat="44.587005185486895" lon="8.882848882466103"><ele>696.3333333333334</ele><time>2026-04-12T16:08:50Z</time></trkpt><trkpt lat="44.5870484565207" lon="8.88294909373901"><ele>696.0</ele><time>2026-04-12T16:08:51Z</time></trkpt><trkpt lat="44.587089070033926" lon="8.88306713391819"><ele>695.6666666666666</ele><time>2026-04-12T16:08:52Z</time></trkpt><trkpt lat="44.58708697169819" lon="8.883192401337718"><ele>695.3333333333333</ele><time>2026-04-12T16:08:53Z</time></trkpt><trkpt lat="44.58709448470721" lon="8.883329012106671"><ele>695.0</ele><time>2026-04-12T16:08:54Z</time></trkpt><trkpt lat="44.58711323322833" lon="8.883429195835536"><ele>694.6</ele><time>2026-04-12T16:08:55Z</time></trkpt><trkpt lat="44.58711981855739" lon="8.88360232223139"><ele>694.2</ele><time>2026-04-12T16:08:57Z</time></trkpt><trkpt lat="44.58714665919905" lon="8.883739894715873"><ele>693.8</ele><time>2026-04-12T16:08:58Z</time></trkpt><trkpt lat="44.58715654026865" lon="8.883866937100407"><ele>693.4</ele><time>2026-04-12T16:08:59Z</time></trkpt><trkpt lat="44.58718673765575" lon="8.883999833783385"><ele>693.0</ele><time>2026-04-12T16:09:00Z</time></trkpt><trkpt lat="44.5871935008399" lon="8.884100650339594"><ele>693.0</ele><time>2026-04-12T16:09:01Z</time></trkpt><trkpt lat="44.58722379607434" lon="8.884191204990811"><ele>693.0</ele><time>2026-04-12T16:09:02Z</time></trkpt><trkpt lat="44.58723756563561" lon="8.884299754184044"><ele>693.0</ele><time>2026-04-12T16:09:03Z</time></trkpt><trkpt lat="44.58723343546844" lon="8.884420018352202"><ele>693.0</ele><time>2026-04-12T16:09:04Z</time></trkpt><trkpt lat="44.58720086340137" lon="8.884520586545705"><ele>693.0</ele><time>2026-04-12T16:09:05Z</time></trkpt><trkpt lat="44.58718041981421" lon="8.884606895139344"><ele>693.0</ele><time>2026-04-12T16:09:06Z</time></trkpt><trkpt lat="44.587155524897504" lon="8.884699666082327"><ele>692.4</ele><time>2026-04-12T16:09:07Z</time></trkpt><trkpt lat="44.58703096043086" lon="8.884735255234071"><ele>691.8</ele><time>2026-04-12T16:09:09Z</time></trkpt><trkpt lat="44.586960683321244" lon="8.88477031711681"><ele>691.2</ele><time>2026-04-12T16:09:11Z</time></trkpt><trkpt lat="44.586893741027396" lon="8.884851444729438"><ele>690.6</ele><time>2026-04-12T16:09:15Z</time></trkpt><trkpt lat="44.58684695043243" lon="8.88495996412659"><ele>690.0</ele><time>2026-04-12T16:09:17Z</time></trkpt><trkpt lat="44.58695230041958" lon="8.885021537884187"><ele>688.2</ele><time>2026-04-12T16:09:20Z</time></trkpt><trkpt lat="44.587026590427755" lon="8.885141599562822"><ele>686.4</ele><time>2026-04-12T16:09:22Z</time></trkpt><trkpt lat="44.587004645042896" lon="8.885307165174197"><ele>684.5999999999999</ele><time>2026-04-12T16:09:24Z</time></trkpt><trkpt lat="44.58701069292434" lon="8.88545477153615"><ele>682.8</ele><time>2026-04-12T16:09:26Z</time></trkpt><trkpt lat="44.58708184003295" lon="8.885490912186693"><ele>681.0</ele><time>2026-04-12T16:09:27Z</time></trkpt><trkpt lat="44.58713361242407" lon="8.885551358472469"><ele>681.0</ele><time>2026-04-12T16:09:28Z</time></trkpt><trkpt lat="44.58717540126825" lon="8.885622603739042"><ele>681.0</ele><time>2026-04-12T16:09:29Z</time></trkpt><trkpt lat="44.587219179349994" lon="8.885786081623515"><ele>681.0</ele><time>2026-04-12T16:09:31Z</time></trkpt><trkpt lat="44.587237108029335" lon="8.885934267028034"><ele>681.0</ele><time>2026-04-12T16:09:33Z</time></trkpt><trkpt lat="44.587259798291015" lon="8.886087717449808"><ele>681.0</ele><time>2026-04-12T16:09:35Z</time></trkpt><trkpt lat="44.58725298740684" lon="8.886239815302481"><ele>680.0</ele><time>2026-04-12T16:09:37Z</time></trkpt><trkpt lat="44.58725871591529" lon="8.886404564071261"><ele>679.0</ele><time>2026-04-12T16:09:39Z</time></trkpt><trkpt lat="44.58729930964955" lon="8.886535869130132"><ele>678.0</ele><time>2026-04-12T16:09:41Z</time></trkpt><trkpt lat="44.58730305448274" lon="8.886689795889932"><ele>677.0</ele><time>2026-04-12T16:09:43Z</time></trkpt><trkpt lat="44.58731738328382" lon="8.886831671305776"><ele>676.0</ele><time>2026-04-12T16:09:45Z</time></trkpt><trkpt lat="44.58735813016013" lon="8.886957139256035"><ele>675.8333333333334</ele><time>2026-04-12T16:09:47Z</time></trkpt><trkpt lat="44.58743284980725" lon="8.887077370838684"><ele>675.6666666666667</ele><time>2026-04-12T16:09:49Z</time></trkpt><trkpt lat="44.58745461754602" lon="8.887161194929643"><ele>675.5</ele><time>2026-04-12T16:09:50Z</time></trkpt><trkpt lat="44.58746228109179" lon="8.887267757827788"><ele>675.3333333333334</ele><time>2026-04-12T16:09:51Z</time></trkpt><trkpt lat="44.58748015749428" lon="8.887434843798546"><ele>675.1666666666666</ele><time>2026-04-12T16:09:53Z</time></trkpt><trkpt lat="44.58751317084998" lon="8.887513065991032"><ele>675.0</ele><time>2026-04-12T16:09:54Z</time></trkpt><trkpt lat="44.58752643476872" lon="8.887609747984857"><ele>673.0</ele><time>2026-04-12T16:09:55Z</time></trkpt><trkpt lat="44.58758242934712" lon="8.887776523340357"><ele>671.0</ele><time>2026-04-12T16:09:57Z</time></trkpt><trkpt lat="44.587602653811174" lon="8.88794831393634"><ele>669.0</ele><time>2026-04-12T16:09:59Z</time></trkpt><trkpt lat="44.58760150726238" lon="8.888105095972294"><ele>667.0</ele><time>2026-04-12T16:10:01Z</time></trkpt><trkpt lat="44.58765857722301" lon="8.88818764857455"><ele>665.0</ele><time>2026-04-12T16:10:02Z</time></trkpt><trkpt lat="44.58768145259388" lon="8.888310334748054"><ele>665.0</ele><time>2026-04-12T16:10:03Z</time></trkpt><trkpt lat="44.58769726708786" lon="8.888424392416791"><ele>665.0</ele><time>2026-04-12T16:10:04Z</time></trkpt><trkpt lat="44.5876913944444" lon="8.888531860287616"><ele>665.0</ele><time>2026-04-12T16:10:05Z</time></trkpt><trkpt lat="44.5876865689983" lon="8.888643593863128"><ele>665.0</ele><time>2026-04-12T16:10:06Z</time></trkpt><trkpt lat="44.58769412709355" lon="8.888739112700152"><ele>665.0</ele><time>2026-04-12T16:10:07Z</time></trkpt><trkpt lat="44.58771585776313" lon="8.888823711607115"><ele>665.0</ele><time>2026-04-12T16:10:08Z</time></trkpt><trkpt lat="44.58771490775888" lon="8.888937254625658"><ele>662.5</ele><time>2026-04-12T16:10:09Z</time></trkpt><trkpt lat="44.58769334147785" lon="8.889070359829082"><ele>660.0</ele><time>2026-04-12T16:10:10Z</time></trkpt><trkpt lat="44.587684704337825" lon="8.889190320928302"><ele>657.5</ele><time>2026-04-12T16:10:11Z</time></trkpt><trkpt lat="44.58767065014489" lon="8.889299496530395"><ele>655.0</ele><time>2026-04-12T16:10:12Z</time></trkpt><trkpt lat="44.587647341217064" lon="8.8894137720432"><ele>652.5</ele><time>2026-04-12T16:10:13Z</time></trkpt><trkpt lat="44.58761771885221" lon="8.889539090358026"><ele>650.0</ele><time>2026-04-12T16:10:14Z</time></trkpt><trkpt lat="44.58764105045917" lon="8.8897344121117"><ele>649.8</ele><time>2026-04-12T16:10:16Z</time></trkpt><trkpt lat="44.587652291144224" lon="8.889872220252201"><ele>649.6</ele><time>2026-04-12T16:10:17Z</time></trkpt><trkpt lat="44.587667026845565" lon="8.8900098354991"><ele>649.4000000000001</ele><time>2026-04-12T16:10:18Z</time></trkpt><trkpt lat="44.58768384044352" lon="8.8901678930131"><ele>649.2</ele><time>2026-04-12T16:10:19Z</time></trkpt><trkpt lat="44.58769405031874" lon="8.890317734702084"><ele>649.0</ele><time>2026-04-12T16:10:20Z</time></trkpt><trkpt lat="44.58768232094075" lon="8.890431401165687"><ele>648.8000000000001</ele><time>2026-04-12T16:10:21Z</time></trkpt><trkpt lat="44.58764662759281" lon="8.890566505965435"><ele>648.6</ele><time>2026-04-12T16:10:22Z</time></trkpt><trkpt lat="44.5875984689235" lon="8.890686201109258"><ele>648.4</ele><time>2026-04-12T16:10:23Z</time></trkpt><trkpt lat="44.58756901218965" lon="8.890785025250093"><ele>648.2</ele><time>2026-04-12T16:10:24Z</time></trkpt><trkpt lat="44.587593167782735" lon="8.89096442527279"><ele>648.0</ele><time>2026-04-12T16:10:26Z</time></trkpt><trkpt lat="44.58762455764151" lon="8.89104666445288"><ele>647.6666666666666</ele><time>2026-04-12T16:10:27Z</time></trkpt><trkpt lat="44.58765749586958" lon="8.891124862892775"><ele>647.3333333333334</ele><time>2026-04-12T16:10:28Z</time></trkpt><trkpt lat="44.587733410093534" lon="8.891215660355165"><ele>647.0</ele><time>2026-04-12T16:10:29Z</time></trkpt><trkpt lat="44.587789936279094" lon="8.891264129547519"><ele>646.6666666666667</ele><time>2026-04-12T16:10:30Z</time></trkpt><trkpt lat="44.58782040780201" lon="8.891429846832919"><ele>646.3333333333334</ele><time>2026-04-12T16:10:32Z</time></trkpt><trkpt lat="44.58780659144349" lon="8.89154294824232"><ele>646.0</ele><time>2026-04-12T16:10:33Z</time></trkpt><trkpt lat="44.58783845479228" lon="8.891645590829285"><ele>646.8</ele><time>2026-04-12T16:10:34Z</time></trkpt><trkpt lat="44.58788730368881" lon="8.891743629746378"><ele>647.5999999999999</ele><time>2026-04-12T16:10:35Z</time></trkpt><trkpt lat="44.58794554838986" lon="8.891817587771813"><ele>648.4</ele><time>2026-04-12T16:10:36Z</time></trkpt><trkpt lat="44.587989119702875" lon="8.891942836498687"><ele>649.2</ele><time>2026-04-12T16:10:37Z</time></trkpt><trkpt lat="44.587989622296874" lon="8.892094914136393"><ele>650.0</ele><time>2026-04-12T16:10:38Z</time></trkpt><trkpt lat="44.58800171983551" lon="8.892254854951009"><ele>650.0</ele><time>2026-04-12T16:10:39Z</time></trkpt><trkpt lat="44.58802190346957" lon="8.892372457411392"><ele>650.0</ele><time>2026-04-12T16:10:40Z</time></trkpt><trkpt lat="44.58804481532026" lon="8.892540696082147"><ele>650.0</ele><time>2026-04-12T16:10:41Z</time></trkpt><trkpt lat="44.588038566521426" lon="8.892691188966419"><ele>650.0</ele><time>2026-04-12T16:10:42Z</time></trkpt><trkpt lat="44.588031622175606" lon="8.892832594510685"><ele>650.0</ele><time>2026-04-12T16:10:43Z</time></trkpt><trkpt lat="44.58802452503699" lon="8.892976678306914"><ele>650.3333333333333</ele><time>2026-04-12T16:10:44Z</time></trkpt><trkpt lat="44.58798530403957" lon="8.89311426566811"><ele>650.6666666666666</ele><time>2026-04-12T16:10:45Z</time></trkpt><trkpt lat="44.587968012713155" lon="8.89323532059758"><ele>651.0</ele><time>2026-04-12T16:10:46Z</time></trkpt><trkpt lat="44.58796146589697" lon="8.893354854392951"><ele>651.3333333333334</ele><time>2026-04-12T16:10:47Z</time></trkpt><trkpt lat="44.587973280650495" lon="8.893458462713685"><ele>651.6666666666667</ele><time>2026-04-12T16:10:48Z</time></trkpt><trkpt lat="44.588005904706236" lon="8.893555702630213"><ele>652.0</ele><time>2026-04-12T16:10:49Z</time></trkpt><trkpt lat="44.588027225144025" lon="8.893657297909243"><ele>650.3333333333334</ele><time>2026-04-12T16:10:50Z</time></trkpt><trkpt lat="44.58804543621827" lon="8.893750551214145"><ele>648.6666666666667</ele><time>2026-04-12T16:10:51Z</time></trkpt><trkpt lat="44.58808921558816" lon="8.893828018405939"><ele>647.0</ele><time>2026-04-12T16:10:52Z</time></trkpt><trkpt lat="44.58820710801239" lon="8.893917584451499"><ele>645.3333333333334</ele><time>2026-04-12T16:10:54Z</time></trkpt><trkpt lat="44.5882708654492" lon="8.894007163667483"><ele>643.6666666666666</ele><time>2026-04-12T16:10:55Z</time></trkpt><trkpt lat="44.588310434273296" lon="8.894078624256553"><ele>642.0</ele><time>2026-04-12T16:10:56Z</time></trkpt><trkpt lat="44.58831769813881" lon="8.894185978734019"><ele>641.0</ele><time>2026-04-12T16:10:57Z</time></trkpt><trkpt lat="44.58831828857619" lon="8.894320048812192"><ele>640.0</ele><time>2026-04-12T16:10:58Z</time></trkpt><trkpt lat="44.58832546244198" lon="8.894413985899675"><ele>639.0</ele><time>2026-04-12T16:10:59Z</time></trkpt><trkpt lat="44.58835973098055" lon="8.894502009774437"><ele>638.0</ele><time>2026-04-12T16:11:00Z</time></trkpt><trkpt lat="44.58839138246391" lon="8.894599645182096"><ele>637.0</ele><time>2026-04-12T16:11:01Z</time></trkpt><trkpt lat="44.58839411633016" lon="8.894715774943537"><ele>636.0</ele><time>2026-04-12T16:11:02Z</time></trkpt><trkpt lat="44.58841734196086" lon="8.894888486750324"><ele>636.0</ele><time>2026-04-12T16:11:04Z</time></trkpt><trkpt lat="44.58845274022733" lon="8.894979068049924"><ele>636.0</ele><time>2026-04-12T16:11:05Z</time></trkpt><trkpt lat="44.58847704496385" lon="8.89507941066952"><ele>636.0</ele><time>2026-04-12T16:11:06Z</time></trkpt><trkpt lat="44.58848117583452" lon="8.895198529047065"><ele>636.0</ele><time>2026-04-12T16:11:07Z</time></trkpt><trkpt lat="44.58848637182339" lon="8.895311958370426"><ele>636.0</ele><time>2026-04-12T16:11:08Z</time></trkpt><trkpt lat="44.58851923271022" lon="8.895417476607149"><ele>636.0</ele><time>2026-04-12T16:11:09Z</time></trkpt><trkpt lat="44.5885777287267" lon="8.895535548573628"><ele>635.5</ele><time>2026-04-12T16:11:11Z</time></trkpt><trkpt lat="44.58862195520613" lon="8.895688931973877"><ele>635.0</ele><time>2026-04-12T16:11:13Z</time></trkpt><trkpt lat="44.58863151536715" lon="8.895801093721008"><ele>634.5</ele><time>2026-04-12T16:11:14Z</time></trkpt><trkpt lat="44.58862987196578" lon="8.895905979195282"><ele>634.0</ele><time>2026-04-12T16:11:15Z</time></trkpt><trkpt lat="44.588617919121354" lon="8.896016724051245"><ele>633.5</ele><time>2026-04-12T16:11:16Z</time></trkpt><trkpt lat="44.588597488530716" lon="8.89611391940864"><ele>633.0</ele><time>2026-04-12T16:11:17Z</time></trkpt><trkpt lat="44.588638394323915" lon="8.896256416268631"><ele>631.6666666666666</ele><time>2026-04-12T16:11:19Z</time></trkpt><trkpt lat="44.588707757996836" lon="8.896321247327007"><ele>630.3333333333334</ele><time>2026-04-12T16:11:20Z</time></trkpt><trkpt lat="44.58875996849745" lon="8.896431820770463"><ele>629.0</ele><time>2026-04-12T16:11:21Z</time></trkpt><trkpt lat="44.58879254344146" lon="8.896549851084929"><ele>627.6666666666667</ele><time>2026-04-12T16:11:22Z</time></trkpt><trkpt lat="44.58881492684658" lon="8.89666344807887"><ele>626.3333333333334</ele><time>2026-04-12T16:11:23Z</time></trkpt><trkpt lat="44.58884063680069" lon="8.896760256445122"><ele>625.0</ele><time>2026-04-12T16:11:24Z</time></trkpt><trkpt lat="44.588901043159325" lon="8.89685544236555"><ele>625.0</ele><time>2026-04-12T16:11:25Z</time></trkpt><trkpt lat="44.58893087578979" lon="8.89697870116383"><ele>625.0</ele><time>2026-04-12T16:11:26Z</time></trkpt><trkpt lat="44.588983648907" lon="8.897067691415458"><ele>625.0</ele><time>2026-04-12T16:11:27Z</time></trkpt><trkpt lat="44.589014655650026" lon="8.897175724279043"><ele>625.0</ele><time>2026-04-12T16:11:28Z</time></trkpt><trkpt lat="44.589047278566134" lon="8.897269747399129"><ele>625.0</ele><time>2026-04-12T16:11:29Z</time></trkpt><trkpt lat="44.589102033714994" lon="8.897350812147161"><ele>625.0</ele><time>2026-04-12T16:11:30Z</time></trkpt><trkpt lat="44.589156694351765" lon="8.89746347990058"><ele>625.4</ele><time>2026-04-12T16:11:31Z</time></trkpt><trkpt lat="44.589199386658926" lon="8.89759201352713"><ele>625.8</ele><time>2026-04-12T16:11:32Z</time></trkpt><trkpt lat="44.589235970711" lon="8.897720306203"><ele>626.2</ele><time>2026-04-12T16:11:33Z</time></trkpt><trkpt lat="44.589271232616184" lon="8.897860414424954"><ele>626.6</ele><time>2026-04-12T16:11:34Z</time></trkpt><trkpt lat="44.58931157589189" lon="8.897997956299358"><ele>627.0</ele><time>2026-04-12T16:11:35Z</time></trkpt><trkpt lat="44.589338949159576" lon="8.898130819101887"><ele>627.0</ele><time>2026-04-12T16:11:36Z</time></trkpt><trkpt lat="44.589361091283116" lon="8.898263793586894"><ele>627.0</ele><time>2026-04-12T16:11:37Z</time></trkpt><trkpt lat="44.589387689873995" lon="8.898380485630467"><ele>627.0</ele><time>2026-04-12T16:11:38Z</time></trkpt><trkpt lat="44.589421413421185" lon="8.898498815902094"><ele>627.0</ele><time>2026-04-12T16:11:39Z</time></trkpt><trkpt lat="44.58945922312617" lon="8.898596548079563"><ele>627.0</ele><time>2026-04-12T16:11:40Z</time></trkpt><trkpt lat="44.58951173017983" lon="8.898666305471883"><ele>627.0</ele><time>2026-04-12T16:11:41Z</time></trkpt><trkpt lat="44.58958008107205" lon="8.898733621808073"><ele>627.2</ele><time>2026-04-12T16:11:42Z</time></trkpt><trkpt lat="44.58964005016134" lon="8.898779931990363"><ele>627.4000000000001</ele><time>2026-04-12T16:11:43Z</time></trkpt><trkpt lat="44.58973185951223" lon="8.898854543749966"><ele>627.5999999999999</ele><time>2026-04-12T16:11:45Z</time></trkpt><trkpt lat="44.589790282105135" lon="8.89892296483042"><ele>627.8</ele><time>2026-04-12T16:16:17Z</time></trkpt><trkpt lat="44.589899226348834" lon="8.899021595890524"><ele>628.0</ele><time>2026-04-12T16:16:19Z</time></trkpt><trkpt lat="44.589992573976566" lon="8.899119491183042"><ele>626.5</ele><time>2026-04-12T16:16:21Z</time></trkpt><trkpt lat="44.59007201667452" lon="8.899253140384236"><ele>625.0</ele><time>2026-04-12T16:16:23Z</time></trkpt><trkpt lat="44.59011733161108" lon="8.899325107087357"><ele>623.5</ele><time>2026-04-12T16:16:24Z</time></trkpt><trkpt lat="44.59017915721884" lon="8.899388656197361"><ele>622.0</ele><time>2026-04-12T16:16:25Z</time></trkpt><trkpt lat="44.59025613533032" lon="8.899440454307808"><ele>620.5</ele><time>2026-04-12T16:16:26Z</time></trkpt><trkpt lat="44.590329554459444" lon="8.899510958289857"><ele>619.0</ele><time>2026-04-12T16:16:27Z</time></trkpt><trkpt lat="44.59039610684403" lon="8.899593356677252"><ele>619.0</ele><time>2026-04-12T16:16:28Z</time></trkpt><trkpt lat="44.590453644789335" lon="8.899687110393742"><ele>619.0</ele><time>2026-04-12T16:16:29Z</time></trkpt><trkpt lat="44.590510606971435" lon="8.89978584250526"><ele>619.0</ele><time>2026-04-12T16:16:30Z</time></trkpt><trkpt lat="44.59056177433524" lon="8.899876341679532"><ele>619.0</ele><time>2026-04-12T16:16:31Z</time></trkpt><trkpt lat="44.59061059296294" lon="8.899947422313291"><ele>619.0</ele><time>2026-04-12T16:16:32Z</time></trkpt><trkpt lat="44.59066875697446" lon="8.89999808922721"><ele>619.0</ele><time>2026-04-12T16:16:33Z</time></trkpt><trkpt lat="44.590731919592116" lon="8.900035557741065"><ele>619.0</ele><time>2026-04-12T16:16:34Z</time></trkpt><trkpt lat="44.59079200343063" lon="8.900073045617265"><ele>619.0</ele><time>2026-04-12T16:16:35Z</time></trkpt><trkpt lat="44.59085510420924" lon="8.900106143215398"><ele>619.0</ele><time>2026-04-12T16:16:36Z</time></trkpt><trkpt lat="44.59092270272532" lon="8.90013234876595"><ele>619.0</ele><time>2026-04-12T16:16:37Z</time></trkpt><trkpt lat="44.590991318402395" lon="8.900149503479042"><ele>619.0</ele><time>2026-04-12T16:16:38Z</time></trkpt><trkpt lat="44.59106846299714" lon="8.900165789446284"><ele>619.0</ele><time>2026-04-12T16:16:39Z</time></trkpt><trkpt lat="44.59114429036738" lon="8.900184427659076"><ele>619.0</ele><time>2026-04-12T16:16:40Z</time></trkpt><trkpt lat="44.591218413124174" lon="8.900201253885063"><ele>617.0</ele><time>2026-04-12T16:16:41Z</time></trkpt><trkpt lat="44.59129022338594" lon="8.90022716936867"><ele>615.0</ele><time>2026-04-12T16:16:42Z</time></trkpt><trkpt lat="44.59135672432579" lon="8.900271526511602"><ele>613.0</ele><time>2026-04-12T16:16:43Z</time></trkpt><trkpt lat="44.591417322559536" lon="8.900326985343149"><ele>611.0</ele><time>2026-04-12T16:16:44Z</time></trkpt><trkpt lat="44.591466270704174" lon="8.90039703051238"><ele>609.0</ele><time>2026-04-12T16:16:45Z</time></trkpt><trkpt lat="44.59150149630159" lon="8.900492592123234"><ele>607.0</ele><time>2026-04-12T16:16:46Z</time></trkpt><trkpt lat="44.59153167603652" lon="8.900609739638657"><ele>607.0</ele><time>2026-04-12T16:16:47Z</time></trkpt><trkpt lat="44.59157158929718" lon="8.90071982353792"><ele>607.0</ele><time>2026-04-12T16:16:48Z</time></trkpt><trkpt lat="44.591613897725516" lon="8.900815796711123"><ele>607.0</ele><time>2026-04-12T16:16:49Z</time></trkpt><trkpt lat="44.591651545765465" lon="8.900910844964855"><ele>607.0</ele><time>2026-04-12T16:16:50Z</time></trkpt><trkpt lat="44.59167976559305" lon="8.901003760903087"><ele>607.0</ele><time>2026-04-12T16:16:51Z</time></trkpt><trkpt lat="44.59170254052816" lon="8.901099501044504"><ele>607.0</ele><time>2026-04-12T16:16:52Z</time></trkpt><trkpt lat="44.591717440026834" lon="8.9011999039237"><ele>605.8571428571428</ele><time>2026-04-12T16:16:53Z</time></trkpt><trkpt lat="44.591727752305154" lon="8.90130446948785"><ele>604.7142857142857</ele><time>2026-04-12T16:16:54Z</time></trkpt><trkpt lat="44.5917353953178" lon="8.90140310072714"><ele>603.5714285714286</ele><time>2026-04-12T16:16:55Z</time></trkpt><trkpt lat="44.59174705080116" lon="8.901505045907747"><ele>602.4285714285713</ele><time>2026-04-12T16:16:56Z</time></trkpt><trkpt lat="44.59176199717379" lon="8.901611284996829"><ele>601.2857142857142</ele><time>2026-04-12T16:16:57Z</time></trkpt><trkpt lat="44.59177718379557" lon="8.90171512478942"><ele>600.1428571428571</ele><time>2026-04-12T16:16:58Z</time></trkpt><trkpt lat="44.591792583568875" lon="8.901819683323955"><ele>599.0</ele><time>2026-04-12T16:16:59Z</time></trkpt><trkpt lat="44.591808505952876" lon="8.90191295749505"><ele>597.8333333333333</ele><time>2026-04-12T16:17:00Z</time></trkpt><trkpt lat="44.59182010146537" lon="8.902007005372889"><ele>596.6666666666666</ele><time>2026-04-12T16:17:01Z</time></trkpt><trkpt lat="44.59181613951459" lon="8.902105717724993"><ele>595.5</ele><time>2026-04-12T16:17:02Z</time></trkpt><trkpt lat="44.59180532784695" lon="8.902207095994994"><ele>594.3333333333334</ele><time>2026-04-12T16:17:03Z</time></trkpt><trkpt lat="44.591791688337544" lon="8.90230392388924"><ele>593.1666666666667</ele><time>2026-04-12T16:17:04Z</time></trkpt><trkpt lat="44.59177591101989" lon="8.902393204241525"><ele>592.0</ele><time>2026-04-12T16:17:05Z</time></trkpt><trkpt lat="44.59170962686629" lon="8.902526666192918"><ele>592.0</ele><time>2026-04-12T16:17:07Z</time></trkpt><trkpt lat="44.59158702973601" lon="8.90257767741476"><ele>592.0</ele><time>2026-04-12T16:17:09Z</time></trkpt><trkpt lat="44.591524719677786" lon="8.902605444846023"><ele>592.0</ele><time>2026-04-12T16:17:10Z</time></trkpt><trkpt lat="44.591457740964756" lon="8.902648655607646"><ele>592.0</ele><time>2026-04-12T16:17:11Z</time></trkpt><trkpt lat="44.59138803561791" lon="8.902700901310668"><ele>592.0</ele><time>2026-04-12T16:17:12Z</time></trkpt><trkpt lat="44.591320159939535" lon="8.902755262880426"><ele>592.0</ele><time>2026-04-12T16:17:13Z</time></trkpt><trkpt lat="44.591258309232906" lon="8.90281421991547"><ele>591.5</ele><time>2026-04-12T16:17:14Z</time></trkpt><trkpt lat="44.591209481867956" lon="8.90288861146168"><ele>591.0</ele><time>2026-04-12T16:17:15Z</time></trkpt><trkpt lat="44.59117230282509" lon="8.902982293219267"><ele>590.5</ele><time>2026-04-12T16:17:16Z</time></trkpt><trkpt lat="44.591133518758795" lon="8.903061895236664"><ele>590.0</ele><time>2026-04-12T16:17:17Z</time></trkpt><trkpt lat="44.59107202691446" lon="8.903113276425916"><ele>589.5</ele><time>2026-04-12T16:17:18Z</time></trkpt><trkpt lat="44.59100712410559" lon="8.903145580501208"><ele>589.0</ele><time>2026-04-12T16:17:19Z</time></trkpt><trkpt lat="44.590938029347825" lon="8.90324632678072"><ele>585.1666666666667</ele><time>2026-04-12T16:17:21Z</time></trkpt><trkpt lat="44.590947963192754" lon="8.903424684670586"><ele>581.3333333333334</ele><time>2026-04-12T16:17:23Z</time></trkpt><trkpt lat="44.590982786201984" lon="8.903508674259605"><ele>577.5</ele><time>2026-04-12T16:17:24Z</time></trkpt><trkpt lat="44.59101979360828" lon="8.90359416497271"><ele>573.6666666666666</ele><time>2026-04-12T16:17:25Z</time></trkpt><trkpt lat="44.591060624298414" lon="8.903682746056319"><ele>569.8333333333333</ele><time>2026-04-12T16:17:26Z</time></trkpt><trkpt lat="44.591097878375656" lon="8.903769681799803"><ele>566.0</ele><time>2026-04-12T16:17:27Z</time></trkpt><trkpt lat="44.5911330482401" lon="8.90386022777609"><ele>566.0</ele><time>2026-04-12T16:17:28Z</time></trkpt><trkpt lat="44.59116360353784" lon="8.90394888669923"><ele>566.0</ele><time>2026-04-12T16:17:29Z</time></trkpt><trkpt lat="44.591188602491435" lon="8.904039548797092"><ele>566.0</ele><time>2026-04-12T16:17:30Z</time></trkpt><trkpt lat="44.59120237973614" lon="8.90412643774197"><ele>566.0</ele><time>2026-04-12T16:17:31Z</time></trkpt><trkpt lat="44.59124148060655" lon="8.904292516310436"><ele>566.0</ele><time>2026-04-12T16:17:33Z</time></trkpt><trkpt lat="44.59129907279553" lon="8.90442018129247"><ele>566.0</ele><time>2026-04-12T16:17:35Z</time></trkpt><trkpt lat="44.59135846601896" lon="8.904467129336464"><ele>566.0</ele><time>2026-04-12T16:17:36Z</time></trkpt><trkpt lat="44.59142785258015" lon="8.904479423933921"><ele>566.0</ele><time>2026-04-12T16:17:37Z</time></trkpt><trkpt lat="44.591500384143394" lon="8.904496638928856"><ele>566.0</ele><time>2026-04-12T16:17:38Z</time></trkpt><trkpt lat="44.59157175881093" lon="8.904514025490675"><ele>566.0</ele><time>2026-04-12T16:17:39Z</time></trkpt><trkpt lat="44.591643435461826" lon="8.904534769781268"><ele>566.0</ele><time>2026-04-12T16:17:40Z</time></trkpt><trkpt lat="44.591709274672596" lon="8.904584637086238"><ele>566.0</ele><time>2026-04-12T16:17:41Z</time></trkpt><trkpt lat="44.59178164432516" lon="8.90459876673414"><ele>566.0</ele><time>2026-04-12T16:17:42Z</time></trkpt><trkpt lat="44.59185788455068" lon="8.90461826399185"><ele>566.0</ele><time>2026-04-12T16:17:43Z</time></trkpt><trkpt lat="44.5919225865528" lon="8.904651541629555"><ele>566.0</ele><time>2026-04-12T16:17:44Z</time></trkpt><trkpt lat="44.59199307100065" lon="8.904673945725202"><ele>566.0</ele><time>2026-04-12T16:17:45Z</time></trkpt><trkpt lat="44.592047200566455" lon="8.904742564495365"><ele>566.0</ele><time>2026-04-12T16:17:46Z</time></trkpt><trkpt lat="44.59208574830523" lon="8.90483368050643"><ele>566.0</ele><time>2026-04-12T16:17:47Z</time></trkpt><trkpt lat="44.592102742000556" lon="8.904934140945992"><ele>566.0</ele><time>2026-04-12T16:17:48Z</time></trkpt><trkpt lat="44.59209992676167" lon="8.90504682776446"><ele>566.0</ele><time>2026-04-12T16:17:49Z</time></trkpt><trkpt lat="44.592088809308294" lon="8.90516276987553"><ele>565.6</ele><time>2026-04-12T16:17:50Z</time></trkpt><trkpt lat="44.592071661451044" lon="8.905282347667812"><ele>565.2</ele><time>2026-04-12T16:17:51Z</time></trkpt><trkpt lat="44.59205661216786" lon="8.905403779004304"><ele>564.8</ele><time>2026-04-12T16:17:52Z</time></trkpt><trkpt lat="44.59204319933291" lon="8.905537392267366"><ele>564.4</ele><time>2026-04-12T16:17:53Z</time></trkpt><trkpt lat="44.59201841809613" lon="8.905663257211192"><ele>564.0</ele><time>2026-04-12T16:17:54Z</time></trkpt><trkpt lat="44.59199767404148" lon="8.9058004727262"><ele>564.0</ele><time>2026-04-12T16:17:55Z</time></trkpt><trkpt lat="44.59198077204186" lon="8.905935959264253"><ele>564.0</ele><time>2026-04-12T16:17:56Z</time></trkpt><trkpt lat="44.59197284093379" lon="8.906065458779485"><ele>564.0</ele><time>2026-04-12T16:17:57Z</time></trkpt><trkpt lat="44.59196056734312" lon="8.906190834819544"><ele>564.0</ele><time>2026-04-12T16:17:58Z</time></trkpt><trkpt lat="44.59195039113602" lon="8.906318290760503"><ele>564.0</ele><time>2026-04-12T16:17:59Z</time></trkpt><trkpt lat="44.59193940880979" lon="8.906440839146505"><ele>564.0</ele><time>2026-04-12T16:18:00Z</time></trkpt><trkpt lat="44.59192537751485" lon="8.906563737350584"><ele>564.0</ele><time>2026-04-12T16:18:01Z</time></trkpt><trkpt lat="44.59192527577193" lon="8.906687049580158"><ele>564.0</ele><time>2026-04-12T16:18:02Z</time></trkpt><trkpt lat="44.59193529626977" lon="8.906815341191178"><ele>564.0</ele><time>2026-04-12T16:18:03Z</time></trkpt><trkpt lat="44.591956337378555" lon="8.906946257358664"><ele>564.0</ele><time>2026-04-12T16:18:04Z</time></trkpt><trkpt lat="44.59197012095576" lon="8.907077830650623"><ele>563.1666666666666</ele><time>2026-04-12T16:18:05Z</time></trkpt><trkpt lat="44.59200149320619" lon="8.907197133279716"><ele>562.3333333333334</ele><time>2026-04-12T16:18:06Z</time></trkpt><trkpt lat="44.59203574213049" lon="8.9073097787608"><ele>561.5</ele><time>2026-04-12T16:18:07Z</time></trkpt><trkpt lat="44.59208106278618" lon="8.907409048872216"><ele>560.6666666666667</ele><time>2026-04-12T16:18:08Z</time></trkpt><trkpt lat="44.5920985673123" lon="8.907515352827412"><ele>559.8333333333334</ele><time>2026-04-12T16:18:09Z</time></trkpt><trkpt lat="44.592102059091886" lon="8.907624166312182"><ele>559.0</ele><time>2026-04-12T16:18:10Z</time></trkpt><trkpt lat="44.59209325451796" lon="8.907731936186478"><ele>557.3333333333334</ele><time>2026-04-12T16:18:11Z</time></trkpt><trkpt lat="44.592082672869616" lon="8.907840308155757"><ele>555.6666666666667</ele><time>2026-04-12T16:18:12Z</time></trkpt><trkpt lat="44.59206596785703" lon="8.907946097268367"><ele>554.0</ele><time>2026-04-12T16:18:13Z</time></trkpt><trkpt lat="44.5920354112884" lon="8.908046573090523"><ele>552.3333333333334</ele><time>2026-04-12T16:18:14Z</time></trkpt><trkpt lat="44.59196108045372" lon="8.908104134951468"><ele>550.6666666666666</ele><time>2026-04-12T16:18:15Z</time></trkpt><trkpt lat="44.5918956974446" lon="8.908151277091088"><ele>549.0</ele><time>2026-04-12T16:18:16Z</time></trkpt><trkpt lat="44.591825415985674" lon="8.90819547470485"><ele>549.0</ele><time>2026-04-12T16:18:17Z</time></trkpt><trkpt lat="44.59174220395376" lon="8.908185151526428"><ele>549.0</ele><time>2026-04-12T16:18:18Z</time></trkpt><trkpt lat="44.59166384378077" lon="8.90822440016568"><ele>549.0</ele><time>2026-04-12T16:18:19Z</time></trkpt><trkpt lat="44.59159458645482" lon="8.908295425323029"><ele>549.0</ele><time>2026-04-12T16:18:20Z</time></trkpt><trkpt lat="44.59154892626126" lon="8.908426437059726"><ele>549.0</ele><time>2026-04-12T16:18:21Z</time></trkpt><trkpt lat="44.59150434411679" lon="8.908548070386743"><ele>547.8</ele><time>2026-04-12T16:18:22Z</time></trkpt><trkpt lat="44.59146267941016" lon="8.908670970676134"><ele>546.5999999999999</ele><time>2026-04-12T16:18:23Z</time></trkpt><trkpt lat="44.59142517509121" lon="8.908799925229394"><ele>545.4</ele><time>2026-04-12T16:18:24Z</time></trkpt><trkpt lat="44.59140053351137" lon="8.90893820499948"><ele>544.1999999999999</ele><time>2026-04-12T16:18:25Z</time></trkpt><trkpt lat="44.59139507291566" lon="8.909049398719203"><ele>543.0</ele><time>2026-04-12T16:18:26Z</time></trkpt><trkpt lat="44.59137298992583" lon="8.909152897172321"><ele>540.8</ele><time>2026-04-12T16:18:27Z</time></trkpt><trkpt lat="44.591367652363566" lon="8.90934794988634"><ele>538.5999999999999</ele><time>2026-04-12T16:18:29Z</time></trkpt><trkpt lat="44.59134557292977" lon="8.909472637984143"><ele>536.4000000000001</ele><time>2026-04-12T16:18:30Z</time></trkpt><trkpt lat="44.591299329634616" lon="8.909577759659372"><ele>534.2</ele><time>2026-04-12T16:18:31Z</time></trkpt><trkpt lat="44.59125809533941" lon="8.909646797617366"><ele>532.0</ele><time>2026-04-12T16:18:32Z</time></trkpt><trkpt lat="44.591197576783244" lon="8.909721656438803"><ele>531.8000000000001</ele><time>2026-04-12T16:18:33Z</time></trkpt><trkpt lat="44.5911611343142" lon="8.909824480098536"><ele>531.6</ele><time>2026-04-12T16:18:34Z</time></trkpt><trkpt lat="44.591128383241504" lon="8.909935082356618"><ele>531.4000000000001</ele><time>2026-04-12T16:18:35Z</time></trkpt><trkpt lat="44.59110513995786" lon="8.910059814410223"><ele>531.2</ele><time>2026-04-12T16:18:36Z</time></trkpt><trkpt lat="44.591054641749324" lon="8.910184742502185"><ele>531.0</ele><time>2026-04-12T16:18:37Z</time></trkpt><trkpt lat="44.59103362973627" lon="8.91034265399178"><ele>531.25</ele><time>2026-04-12T16:18:38Z</time></trkpt><trkpt lat="44.59099157931013" lon="8.910496537273058"><ele>531.5</ele><time>2026-04-12T16:18:39Z</time></trkpt><trkpt lat="44.59095244458915" lon="8.91065078962463"><ele>531.75</ele><time>2026-04-12T16:18:40Z</time></trkpt><trkpt lat="44.59091159562989" lon="8.91080352383398"><ele>532.0</ele><time>2026-04-12T16:18:41Z</time></trkpt><trkpt lat="44.59086860364787" lon="8.910946233505168"><ele>532.0</ele><time>2026-04-12T16:18:42Z</time></trkpt><trkpt lat="44.590821949858864" lon="8.911066253883993"><ele>532.0</ele><time>2026-04-12T16:18:43Z</time></trkpt><trkpt lat="44.59077003145861" lon="8.91116427171467"><ele>532.0</ele><time>2026-04-12T16:18:44Z</time></trkpt><trkpt lat="44.590732508706" lon="8.911268006847225"><ele>532.0</ele><time>2026-04-12T16:18:45Z</time></trkpt><trkpt lat="44.59071869743472" lon="8.911401325756948"><ele>532.0</ele><time>2026-04-12T16:18:46Z</time></trkpt><trkpt lat="44.59071390623473" lon="8.91155069377084"><ele>532.0</ele><time>2026-04-12T16:18:47Z</time></trkpt><trkpt lat="44.59070056673662" lon="8.911694417610034"><ele>532.0</ele><time>2026-04-12T16:18:48Z</time></trkpt><trkpt lat="44.590684456574" lon="8.911836153489656"><ele>532.0</ele><time>2026-04-12T16:18:49Z</time></trkpt><trkpt lat="44.590664033833335" lon="8.91196989198864"><ele>532.0</ele><time>2026-04-12T16:18:50Z</time></trkpt><trkpt lat="44.59062750933599" lon="8.912098128675401"><ele>532.0</ele><time>2026-04-12T16:18:51Z</time></trkpt><trkpt lat="44.59058308659572" lon="8.912225277202717"><ele>531.5</ele><time>2026-04-12T16:18:52Z</time></trkpt><trkpt lat="44.59053946667447" lon="8.912347063706905"><ele>531.0</ele><time>2026-04-12T16:18:53Z</time></trkpt><trkpt lat="44.590496373700276" lon="8.912445667293445"><ele>530.5</ele><time>2026-04-12T16:18:54Z</time></trkpt><trkpt lat="44.59045670758794" lon="8.91252528775077"><ele>530.0</ele><time>2026-04-12T16:18:55Z</time></trkpt><trkpt lat="44.59038678471623" lon="8.912621358834455"><ele>529.5</ele><time>2026-04-12T16:18:57Z</time></trkpt><trkpt lat="44.5903383626844" lon="8.912692049058801"><ele>529.0</ele><time>2026-04-12T16:19:00Z</time></trkpt><trkpt lat="44.59027373359228" lon="8.912828105928034"><ele>528.8333333333334</ele><time>2026-04-12T16:19:05Z</time></trkpt><trkpt lat="44.590223219176394" lon="8.9128981638147"><ele>528.6666666666667</ele><time>2026-04-12T16:19:06Z</time></trkpt><trkpt lat="44.59016955293811" lon="8.913047797213704"><ele>528.5</ele><time>2026-04-12T16:19:08Z</time></trkpt><trkpt lat="44.590149545918635" lon="8.913137372056312"><ele>528.3333333333334</ele><time>2026-04-12T16:19:09Z</time></trkpt><trkpt lat="44.59013473511405" lon="8.913233886304958"><ele>528.1666666666666</ele><time>2026-04-12T16:19:10Z</time></trkpt><trkpt lat="44.59011396080655" lon="8.913332745306924"><ele>528.0</ele><time>2026-04-12T16:19:11Z</time></trkpt><trkpt lat="44.59009674844389" lon="8.913428415791035"><ele>527.5714285714286</ele><time>2026-04-12T16:19:12Z</time></trkpt><trkpt lat="44.59008282336465" lon="8.913525590493128"><ele>527.1428571428571</ele><time>2026-04-12T16:19:13Z</time></trkpt><trkpt lat="44.59005886977664" lon="8.913616679331831"><ele>526.7142857142858</ele><time>2026-04-12T16:19:14Z</time></trkpt><trkpt lat="44.5900285305096" lon="8.913705390535082"><ele>526.2857142857142</ele><time>2026-04-12T16:19:15Z</time></trkpt><trkpt lat="44.5900038649095" lon="8.913794900343314"><ele>525.8571428571429</ele><time>2026-04-12T16:19:16Z</time></trkpt><trkpt lat="44.58996708404294" lon="8.91388035651467"><ele>525.4285714285714</ele><time>2026-04-12T16:19:17Z</time></trkpt><trkpt lat="44.58993423947175" lon="8.913965304096948"><ele>525.0</ele><time>2026-04-12T16:19:18Z</time></trkpt><trkpt lat="44.589893220110774" lon="8.914043851181164"><ele>525.0</ele><time>2026-04-12T16:19:19Z</time></trkpt><trkpt lat="44.589791762285955" lon="8.914142474828274"><ele>525.0</ele><time>2026-04-12T16:19:21Z</time></trkpt><trkpt lat="44.589714474749904" lon="8.914163517056734"><ele>525.0</ele><time>2026-04-12T16:19:22Z</time></trkpt><trkpt lat="44.58963916400649" lon="8.914199734974064"><ele>525.0</ele><time>2026-04-12T16:19:23Z</time></trkpt><trkpt lat="44.589580469159735" lon="8.914260639785201"><ele>525.0</ele><time>2026-04-12T16:19:24Z</time></trkpt><trkpt lat="44.58952997412391" lon="8.914349341168146"><ele>525.0</ele><time>2026-04-12T16:19:25Z</time></trkpt><trkpt lat="44.589488030428" lon="8.914428552438713"><ele>525.6666666666666</ele><time>2026-04-12T16:19:26Z</time></trkpt><trkpt lat="44.58946100404772" lon="8.914509329774232"><ele>526.3333333333334</ele><time>2026-04-12T16:19:27Z</time></trkpt><trkpt lat="44.5894583285757" lon="8.914659800525413"><ele>527.0</ele><time>2026-04-12T16:19:29Z</time></trkpt><trkpt lat="44.58935147002717" lon="8.914732840173684"><ele>527.6666666666667</ele><time>2026-04-12T16:19:31Z</time></trkpt><trkpt lat="44.589276897630356" lon="8.914774670466496"><ele>528.3333333333334</ele><time>2026-04-12T16:19:32Z</time></trkpt><trkpt lat="44.589208210517285" lon="8.914807392590111"><ele>529.0</ele><time>2026-04-12T16:19:33Z</time></trkpt><trkpt lat="44.58913711579619" lon="8.91483951699586"><ele>529.0</ele><time>2026-04-12T16:19:34Z</time></trkpt><trkpt lat="44.58905956648091" lon="8.91485356131704"><ele>529.0</ele><time>2026-04-12T16:19:35Z</time></trkpt><trkpt lat="44.58899124512581" lon="8.914851057737023"><ele>529.0</ele><time>2026-04-12T16:19:36Z</time></trkpt><trkpt lat="44.58891109203668" lon="8.914843821174838"><ele>529.0</ele><time>2026-04-12T16:19:37Z</time></trkpt><trkpt lat="44.588831205334834" lon="8.914828461472208"><ele>529.0</ele><time>2026-04-12T16:19:38Z</time></trkpt><trkpt lat="44.58874745838316" lon="8.914846903175642"><ele>529.0</ele><time>2026-04-12T16:19:39Z</time></trkpt><trkpt lat="44.58865620665185" lon="8.914894393528765"><ele>528.8</ele><time>2026-04-12T16:19:40Z</time></trkpt><trkpt lat="44.58856335785569" lon="8.914955560151542"><ele>528.5999999999999</ele><time>2026-04-12T16:19:41Z</time></trkpt><trkpt lat="44.58846989278696" lon="8.915022992422482"><ele>528.4</ele><time>2026-04-12T16:19:42Z</time></trkpt><trkpt lat="44.58837305960547" lon="8.915108697986197"><ele>528.1999999999999</ele><time>2026-04-12T16:19:43Z</time></trkpt><trkpt lat="44.588278800460216" lon="8.915174967536823"><ele>528.0</ele><time>2026-04-12T16:19:44Z</time></trkpt><trkpt lat="44.58819212361227" lon="8.915221494408911"><ele>528.0</ele><time>2026-04-12T16:19:45Z</time></trkpt><trkpt lat="44.58811593116332" lon="8.915248897852889"><ele>528.0</ele><time>2026-04-12T16:19:46Z</time></trkpt><trkpt lat="44.588029412196086" lon="8.915281372467392"><ele>528.0</ele><time>2026-04-12T16:19:47Z</time></trkpt><trkpt lat="44.587930165315065" lon="8.915318898208543"><ele>528.0</ele><time>2026-04-12T16:19:48Z</time></trkpt><trkpt lat="44.58784488681075" lon="8.915342402900654"><ele>528.0</ele><time>2026-04-12T16:19:49Z</time></trkpt><trkpt lat="44.58777016371296" lon="8.915368358583592"><ele>528.0</ele><time>2026-04-12T16:19:50Z</time></trkpt><trkpt lat="44.58771351398836" lon="8.915411852819572"><ele>531.0</ele><time>2026-04-12T16:19:53Z</time></trkpt><trkpt lat="44.587664970320674" lon="8.91548497246633"><ele>534.0</ele><time>2026-04-12T16:19:58Z</time></trkpt><trkpt lat="44.587601733599115" lon="8.915567635818455"><ele>537.0</ele><time>2026-04-12T16:20:00Z</time></trkpt><trkpt lat="44.58755762785758" lon="8.915654585982654"><ele>540.0</ele><time>2026-04-12T16:20:02Z</time></trkpt><trkpt lat="44.587521726190246" lon="8.915745382688437"><ele>543.0</ele><time>2026-04-12T16:20:11Z</time></trkpt><trkpt lat="44.58744520433779" lon="8.915780489652947"><ele>546.0</ele><time>2026-04-12T16:20:13Z</time></trkpt><trkpt lat="44.58739540937786" lon="8.915860940054756"><ele>546.0</ele><time>2026-04-12T16:20:15Z</time></trkpt><trkpt lat="44.587333642854745" lon="8.915903102215962"><ele>546.0</ele><time>2026-04-12T16:20:17Z</time></trkpt><trkpt lat="44.58728258552749" lon="8.915960785044032"><ele>546.0</ele><time>2026-04-12T16:20:19Z</time></trkpt><trkpt lat="44.587233517655385" lon="8.916025127092842"><ele>546.0</ele><time>2026-04-12T16:20:28Z</time></trkpt><trkpt lat="44.58715069622585" lon="8.916031053097845"><ele>546.0</ele><time>2026-04-12T16:20:30Z</time></trkpt><trkpt lat="44.5870870302409" lon="8.916040716255072"><ele>546.0</ele><time>2026-04-12T16:20:32Z</time></trkpt><trkpt lat="44.58702670542314" lon="8.916080323805904"><ele>546.0</ele><time>2026-04-12T16:20:34Z</time></trkpt><trkpt lat="44.586962172760806" lon="8.916124678959681"><ele>548.6666666666666</ele><time>2026-04-12T16:20:35Z</time></trkpt><trkpt lat="44.58689268607042" lon="8.916158610961448"><ele>551.3333333333334</ele><time>2026-04-12T16:20:36Z</time></trkpt><trkpt lat="44.586801477051594" lon="8.916181148661359"><ele>554.0</ele><time>2026-04-12T16:20:37Z</time></trkpt><trkpt lat="44.586729593834235" lon="8.916181746320255"><ele>556.6666666666667</ele><time>2026-04-12T16:20:38Z</time></trkpt><trkpt lat="44.58666741811164" lon="8.916208890714335"><ele>559.3333333333334</ele><time>2026-04-12T16:20:39Z</time></trkpt><trkpt lat="44.586578136279954" lon="8.916223895558781"><ele>562.0</ele><time>2026-04-12T16:20:41Z</time></trkpt><trkpt lat="44.58651445079887" lon="8.916179014242077"><ele>562.0</ele><time>2026-04-12T16:20:43Z</time></trkpt><trkpt lat="44.58646288284752" lon="8.916108835361415"><ele>562.0</ele><time>2026-04-12T16:20:46Z</time></trkpt><trkpt lat="44.58638363280532" lon="8.916066943643408"><ele>562.0</ele><time>2026-04-12T16:20:48Z</time></trkpt><trkpt lat="44.586279225144544" lon="8.916115771672597"><ele>562.0</ele><time>2026-04-12T16:20:50Z</time></trkpt><trkpt lat="44.58620542672221" lon="8.91613923929232"><ele>562.0</ele><time>2026-04-12T16:20:51Z</time></trkpt><trkpt lat="44.586092826409164" lon="8.916195789427944"><ele>564.6666666666667</ele><time>2026-04-12T16:20:53Z</time></trkpt><trkpt lat="44.586032296511604" lon="8.91622131769892"><ele>567.3333333333334</ele><time>2026-04-12T16:20:54Z</time></trkpt><trkpt lat="44.58595610120489" lon="8.916254331146256"><ele>570.0</ele><time>2026-04-12T16:20:58Z</time></trkpt><trkpt lat="44.58588621259018" lon="8.91628228433096"><ele>572.6666666666666</ele><time>2026-04-12T16:21:01Z</time></trkpt><trkpt lat="44.58580192361507" lon="8.916329244997934"><ele>575.3333333333333</ele><time>2026-04-12T16:21:03Z</time></trkpt><trkpt lat="44.585746906655544" lon="8.91638717819862"><ele>578.0</ele><time>2026-04-12T16:21:06Z</time></trkpt><trkpt lat="44.58561483652566" lon="8.916463343336806"><ele>578.0</ele><time>2026-04-12T16:21:08Z</time></trkpt><trkpt lat="44.58556350598292" lon="8.916519157132978"><ele>578.0</ele><time>2026-04-12T16:21:09Z</time></trkpt><trkpt lat="44.58548598153628" lon="8.916579060853136"><ele>578.0</ele><time>2026-04-12T16:21:10Z</time></trkpt><trkpt lat="44.58541308864821" lon="8.916624627287668"><ele>578.0</ele><time>2026-04-12T16:21:11Z</time></trkpt><trkpt lat="44.58533338233458" lon="8.916666360611844"><ele>578.0</ele><time>2026-04-12T16:21:12Z</time></trkpt><trkpt lat="44.58525627708648" lon="8.916704972912848"><ele>578.0</ele><time>2026-04-12T16:21:13Z</time></trkpt><trkpt lat="44.58518586485684" lon="8.916744525426472"><ele>579.3333333333333</ele><time>2026-04-12T16:21:14Z</time></trkpt><trkpt lat="44.585120117290145" lon="8.916790174545067"><ele>580.6666666666666</ele><time>2026-04-12T16:21:15Z</time></trkpt><trkpt lat="44.58504253612091" lon="8.916859500781081"><ele>582.0</ele><time>2026-04-12T16:21:16Z</time></trkpt><trkpt lat="44.584973832750165" lon="8.916858603115982"><ele>583.3333333333334</ele><time>2026-04-12T16:21:17Z</time></trkpt><trkpt lat="44.58488520157841" lon="8.916945197946735"><ele>584.6666666666667</ele><time>2026-04-12T16:21:18Z</time></trkpt><trkpt lat="44.584813732114576" lon="8.916994926048176"><ele>586.0</ele><time>2026-04-12T16:21:19Z</time></trkpt><trkpt lat="44.58473758488143" lon="8.917061514229058"><ele>586.0</ele><time>2026-04-12T16:21:20Z</time></trkpt><trkpt lat="44.58466427656594" lon="8.917092838195648"><ele>586.0</ele><time>2026-04-12T16:21:21Z</time></trkpt><trkpt lat="44.58457546339213" lon="8.91697571047555"><ele>586.0</ele><time>2026-04-12T16:21:22Z</time></trkpt><trkpt lat="44.58452194788905" lon="8.91692498922223"><ele>586.0</ele><time>2026-04-12T16:21:23Z</time></trkpt><trkpt lat="44.58445536270821" lon="8.916932197462785"><ele>586.0</ele><time>2026-04-12T16:21:24Z</time></trkpt><trkpt lat="44.58430954841925" lon="8.916875263304867"><ele>587.1666666666667</ele><time>2026-04-12T16:21:26Z</time></trkpt><trkpt lat="44.584244928994075" lon="8.91684259986202"><ele>588.3333333333334</ele><time>2026-04-12T16:21:27Z</time></trkpt><trkpt lat="44.584195860138486" lon="8.916782333012863"><ele>589.5</ele><time>2026-04-12T16:21:28Z</time></trkpt><trkpt lat="44.58412695152473" lon="8.916689492878515"><ele>590.6666666666666</ele><time>2026-04-12T16:21:30Z</time></trkpt><trkpt lat="44.58405081255501" lon="8.91672421084636"><ele>591.8333333333333</ele><time>2026-04-12T16:21:31Z</time></trkpt><trkpt lat="44.58396930783299" lon="8.916742805248797"><ele>593.0</ele><time>2026-04-12T16:21:32Z</time></trkpt><trkpt lat="44.58388803149355" lon="8.916772673648364"><ele>595.6666666666666</ele><time>2026-04-12T16:21:33Z</time></trkpt><trkpt lat="44.583812714262585" lon="8.916782006467836"><ele>598.3333333333333</ele><time>2026-04-12T16:21:34Z</time></trkpt><trkpt lat="44.583738421092626" lon="8.916814641233175"><ele>601.0</ele><time>2026-04-12T16:21:35Z</time></trkpt><trkpt lat="44.583605776798784" lon="8.916828161761007"><ele>603.6666666666666</ele><time>2026-04-12T16:21:37Z</time></trkpt><trkpt lat="44.58351576352903" lon="8.916851769446053"><ele>606.3333333333334</ele><time>2026-04-12T16:21:39Z</time></trkpt><trkpt lat="44.58349148818741" lon="8.916938937931786"><ele>609.0</ele><time>2026-04-12T16:21:40Z</time></trkpt><trkpt lat="44.58347669316682" lon="8.917031960525557"><ele>609.0</ele><time>2026-04-12T16:21:41Z</time></trkpt><trkpt lat="44.58344653507282" lon="8.917191547136701"><ele>609.0</ele><time>2026-04-12T16:21:43Z</time></trkpt><trkpt lat="44.583433947471484" lon="8.917298558752034"><ele>609.0</ele><time>2026-04-12T16:21:44Z</time></trkpt><trkpt lat="44.58343149006473" lon="8.917429674891514"><ele>609.0</ele><time>2026-04-12T16:21:45Z</time></trkpt><trkpt lat="44.58343259843106" lon="8.91754790807906"><ele>609.0</ele><time>2026-04-12T16:21:46Z</time></trkpt><trkpt lat="44.58340204612937" lon="8.917641706367919"><ele>609.0</ele><time>2026-04-12T16:21:47Z</time></trkpt><trkpt lat="44.58333330967085" lon="8.917722861221437"><ele>611.3333333333334</ele><time>2026-04-12T16:21:49Z</time></trkpt><trkpt lat="44.58327486185202" lon="8.917836187111364"><ele>613.6666666666666</ele><time>2026-04-12T16:21:51Z</time></trkpt><trkpt lat="44.583222526116266" lon="8.917914866890445"><ele>616.0</ele><time>2026-04-12T16:21:52Z</time></trkpt><trkpt lat="44.583167705042165" lon="8.917984347785957"><ele>618.3333333333333</ele><time>2026-04-12T16:21:53Z</time></trkpt><trkpt lat="44.58314012258065" lon="8.918098674041978"><ele>620.6666666666666</ele><time>2026-04-12T16:21:54Z</time></trkpt><trkpt lat="44.58309492979691" lon="8.918189743421697"><ele>623.0</ele><time>2026-04-12T16:21:55Z</time></trkpt><trkpt lat="44.582977599407016" lon="8.91827439901276"><ele>623.0</ele><time>2026-04-12T16:21:57Z</time></trkpt><trkpt lat="44.58289278175052" lon="8.918332171127252"><ele>623.0</ele><time>2026-04-12T16:21:58Z</time></trkpt><trkpt lat="44.5828197646556" lon="8.91835727635521"><ele>623.0</ele><time>2026-04-12T16:21:59Z</time></trkpt><trkpt lat="44.58274863546737" lon="8.918351911004795"><ele>623.0</ele><time>2026-04-12T16:22:00Z</time></trkpt><trkpt lat="44.58268273048728" lon="8.918323827330338"><ele>623.0</ele><time>2026-04-12T16:22:01Z</time></trkpt><trkpt lat="44.58260046212849" lon="8.918398179961107"><ele>623.0</ele><time>2026-04-12T16:22:03Z</time></trkpt><trkpt lat="44.582553340293344" lon="8.91848046543548"><ele>624.7142857142857</ele><time>2026-04-12T16:22:04Z</time></trkpt><trkpt lat="44.58250151840973" lon="8.918568283683788"><ele>626.4285714285714</ele><time>2026-04-12T16:22:05Z</time></trkpt><trkpt lat="44.58243429874058" lon="8.918606410320985"><ele>628.1428571428571</ele><time>2026-04-12T16:22:06Z</time></trkpt><trkpt lat="44.582363159423004" lon="8.918615974257467"><ele>629.8571428571429</ele><time>2026-04-12T16:22:07Z</time></trkpt><trkpt lat="44.58229909007809" lon="8.918583344581451"><ele>631.5714285714286</ele><time>2026-04-12T16:22:08Z</time></trkpt><trkpt lat="44.58222469097143" lon="8.918619265844352"><ele>633.2857142857142</ele><time>2026-04-12T16:22:10Z</time></trkpt><trkpt lat="44.58220252864805" lon="8.918714314135432"><ele>635.0</ele><time>2026-04-12T16:22:11Z</time></trkpt><trkpt lat="44.58214474861508" lon="8.918793705118956"><ele>635.0</ele><time>2026-04-12T16:22:13Z</time></trkpt><trkpt lat="44.582080256460614" lon="8.918795844320897"><ele>635.0</ele><time>2026-04-12T16:22:14Z</time></trkpt><trkpt lat="44.58200397262682" lon="8.91877634351292"><ele>635.0</ele><time>2026-04-12T16:22:15Z</time></trkpt><trkpt lat="44.58194028792468" lon="8.918700735530035"><ele>635.0</ele><time>2026-04-12T16:22:16Z</time></trkpt><trkpt lat="44.5818433019587" lon="8.918601417466238"><ele>635.0</ele><time>2026-04-12T16:22:18Z</time></trkpt><trkpt lat="44.581758461211756" lon="8.918595156135837"><ele>635.0</ele><time>2026-04-12T16:22:19Z</time></trkpt><trkpt lat="44.581685604582596" lon="8.918537508457298"><ele>633.8333333333333</ele><time>2026-04-12T16:22:20Z</time></trkpt><trkpt lat="44.581620107809414" lon="8.918516995841404"><ele>632.6666666666666</ele><time>2026-04-12T16:22:21Z</time></trkpt><trkpt lat="44.58154680738757" lon="8.918507628266205"><ele>631.5</ele><time>2026-04-12T16:22:22Z</time></trkpt><trkpt lat="44.58147632025251" lon="8.918532301478773"><ele>630.3333333333334</ele><time>2026-04-12T16:22:23Z</time></trkpt><trkpt lat="44.58145272854647" lon="8.91865069026434"><ele>629.1666666666667</ele><time>2026-04-12T16:22:25Z</time></trkpt><trkpt lat="44.58146607539871" lon="8.918753558189936"><ele>628.0</ele><time>2026-04-12T16:22:26Z</time></trkpt><trkpt lat="44.58146908335599" lon="8.918878642097336"><ele>628.0</ele><time>2026-04-12T16:22:27Z</time></trkpt><trkpt lat="44.58145131938655" lon="8.9190510866806"><ele>628.0</ele><time>2026-04-12T16:22:29Z</time></trkpt><trkpt lat="44.58146128787315" lon="8.91916554626338"><ele>628.0</ele><time>2026-04-12T16:22:30Z</time></trkpt><trkpt lat="44.58148582167553" lon="8.919278282504342"><ele>628.0</ele><time>2026-04-12T16:22:31Z</time></trkpt><trkpt lat="44.58146626085563" lon="8.919399274662261"><ele>628.0</ele><time>2026-04-12T16:22:32Z</time></trkpt><trkpt lat="44.58141984326269" lon="8.919509037020042"><ele>627.6666666666667</ele><time>2026-04-12T16:22:33Z</time></trkpt><trkpt lat="44.58139072188218" lon="8.919589299159902"><ele>627.3333333333334</ele><time>2026-04-12T16:22:34Z</time></trkpt><trkpt lat="44.581374669630954" lon="8.919720827708343"><ele>627.0</ele><time>2026-04-12T16:22:36Z</time></trkpt><trkpt lat="44.581349111470594" lon="8.919819632895924"><ele>626.6666666666666</ele><time>2026-04-12T16:22:38Z</time></trkpt><trkpt lat="44.58131602505098" lon="8.919918382468836"><ele>626.3333333333333</ele><time>2026-04-12T16:22:40Z</time></trkpt><trkpt lat="44.58123808060492" lon="8.919995312185451"><ele>626.0</ele><time>2026-04-12T16:22:42Z</time></trkpt><trkpt lat="44.581185664426606" lon="8.920044441130974"><ele>625.0</ele><time>2026-04-12T16:22:43Z</time></trkpt><trkpt lat="44.5811312933114" lon="8.920102827481019"><ele>624.0</ele><time>2026-04-12T16:22:44Z</time></trkpt><trkpt lat="44.581083332743674" lon="8.920173293133699"><ele>623.0</ele><time>2026-04-12T16:22:45Z</time></trkpt><trkpt lat="44.580999830478376" lon="8.920312671614486"><ele>622.0</ele><time>2026-04-12T16:22:47Z</time></trkpt><trkpt lat="44.580949876096994" lon="8.92040625985071"><ele>621.0</ele><time>2026-04-12T16:22:48Z</time></trkpt><trkpt lat="44.580905563575264" lon="8.920515773325548"><ele>620.0</ele><time>2026-04-12T16:22:49Z</time></trkpt><trkpt lat="44.58085184987892" lon="8.920612426340334"><ele>620.0</ele><time>2026-04-12T16:22:50Z</time></trkpt><trkpt lat="44.580783205390404" lon="8.920671461804082"><ele>620.0</ele><time>2026-04-12T16:22:51Z</time></trkpt><trkpt lat="44.58070305730442" lon="8.92074209813641"><ele>620.0</ele><time>2026-04-12T16:22:52Z</time></trkpt><trkpt lat="44.580645962781944" lon="8.920814582785322"><ele>620.0</ele><time>2026-04-12T16:22:53Z</time></trkpt><trkpt lat="44.58058413615246" lon="8.920872244285123"><ele>620.0</ele><time>2026-04-12T16:22:54Z</time></trkpt><trkpt lat="44.58051292974399" lon="8.920916265598962"><ele>620.0</ele><time>2026-04-12T16:22:55Z</time></trkpt><trkpt lat="44.58043441038973" lon="8.920968701877943"><ele>618.5</ele><time>2026-04-12T16:22:56Z</time></trkpt><trkpt lat="44.58037474082185" lon="8.921034644264639"><ele>617.0</ele><time>2026-04-12T16:22:57Z</time></trkpt><trkpt lat="44.580317192544925" lon="8.921119143838638"><ele>615.5</ele><time>2026-04-12T16:22:58Z</time></trkpt><trkpt lat="44.58025211219487" lon="8.92119250021802"><ele>614.0</ele><time>2026-04-12T16:22:59Z</time></trkpt><trkpt lat="44.5801863227627" lon="8.921205201798758"><ele>612.5</ele><time>2026-04-12T16:23:00Z</time></trkpt><trkpt lat="44.58011943421904" lon="8.921170646579888"><ele>611.0</ele><time>2026-04-12T16:23:01Z</time></trkpt><trkpt lat="44.58003207107388" lon="8.921152674125349"><ele>615.0</ele><time>2026-04-12T16:23:02Z</time></trkpt><trkpt lat="44.57995386863918" lon="8.921164991454964"><ele>619.0</ele><time>2026-04-12T16:23:03Z</time></trkpt><trkpt lat="44.57988303317043" lon="8.921225099750917"><ele>623.0</ele><time>2026-04-12T16:23:04Z</time></trkpt><trkpt lat="44.57981175254985" lon="8.921250129445863"><ele>627.0</ele><time>2026-04-12T16:23:05Z</time></trkpt><trkpt lat="44.57972864289901" lon="8.921284278425723"><ele>631.0</ele><time>2026-04-12T16:23:06Z</time></trkpt><trkpt lat="44.57962833602501" lon="8.921315313619127"><ele>635.0</ele><time>2026-04-12T16:23:07Z</time></trkpt><trkpt lat="44.57954556841024" lon="8.921359899483583"><ele>634.6666666666666</ele><time>2026-04-12T16:23:08Z</time></trkpt><trkpt lat="44.579468455730286" lon="8.921384803190502"><ele>634.3333333333333</ele><time>2026-04-12T16:23:09Z</time></trkpt><trkpt lat="44.57938616308565" lon="8.92142167695199"><ele>634.0</ele><time>2026-04-12T16:23:10Z</time></trkpt><trkpt lat="44.57930522519755" lon="8.921472457487164"><ele>633.6666666666666</ele><time>2026-04-12T16:23:11Z</time></trkpt><trkpt lat="44.57922223406714" lon="8.921540565447648"><ele>633.3333333333334</ele><time>2026-04-12T16:23:12Z</time></trkpt><trkpt lat="44.579160061198586" lon="8.921617956509918"><ele>633.0</ele><time>2026-04-12T16:23:13Z</time></trkpt><trkpt lat="44.579111733900824" lon="8.921714689652193"><ele>634.0</ele><time>2026-04-12T16:23:14Z</time></trkpt><trkpt lat="44.57902936154606" lon="8.921798487118854"><ele>635.0</ele><time>2026-04-12T16:23:15Z</time></trkpt><trkpt lat="44.57894103886466" lon="8.921840108901266"><ele>636.0</ele><time>2026-04-12T16:23:16Z</time></trkpt><trkpt lat="44.57885323261534" lon="8.921866673218762"><ele>637.0</ele><time>2026-04-12T16:23:17Z</time></trkpt><trkpt lat="44.57877113345279" lon="8.921912365557615"><ele>638.0</ele><time>2026-04-12T16:23:18Z</time></trkpt><trkpt lat="44.578681641270386" lon="8.92194896920705"><ele>636.0</ele><time>2026-04-12T16:23:19Z</time></trkpt><trkpt lat="44.57859600141355" lon="8.921974418130908"><ele>634.0</ele><time>2026-04-12T16:23:20Z</time></trkpt><trkpt lat="44.57850737907031" lon="8.922009056433515"><ele>632.0</ele><time>2026-04-12T16:23:21Z</time></trkpt><trkpt lat="44.57841679020866" lon="8.922037028248408"><ele>630.0</ele><time>2026-04-12T16:23:22Z</time></trkpt><trkpt lat="44.57833078522121" lon="8.92208575023578"><ele>628.0</ele><time>2026-04-12T16:23:23Z</time></trkpt><trkpt lat="44.57824691634746" lon="8.92209698185465"><ele>626.0</ele><time>2026-04-12T16:23:24Z</time></trkpt><trkpt lat="44.578182865866374" lon="8.922095616146652"><ele>626.0</ele><time>2026-04-12T16:23:25Z</time></trkpt><trkpt lat="44.578121218301426" lon="8.922119843513233"><ele>626.0</ele><time>2026-04-12T16:23:26Z</time></trkpt><trkpt lat="44.578048948358244" lon="8.922133153275412"><ele>626.0</ele><time>2026-04-12T16:23:27Z</time></trkpt><trkpt lat="44.577988351304185" lon="8.92220687372963"><ele>626.0</ele><time>2026-04-12T16:23:28Z</time></trkpt><trkpt lat="44.577919983321074" lon="8.922276985682053"><ele>626.0</ele><time>2026-04-12T16:23:29Z</time></trkpt><trkpt lat="44.57785743353629" lon="8.922340264773867"><ele>626.0</ele><time>2026-04-12T16:23:30Z</time></trkpt><trkpt lat="44.57774789881078" lon="8.92235336452732"><ele>623.5</ele><time>2026-04-12T16:23:32Z</time></trkpt><trkpt lat="44.577655589892025" lon="8.922314200269158"><ele>621.0</ele><time>2026-04-12T16:23:34Z</time></trkpt><trkpt lat="44.577595230530605" lon="8.922267501680462"><ele>618.5</ele><time>2026-04-12T16:23:35Z</time></trkpt><trkpt lat="44.577537322765004" lon="8.922197363105928"><ele>616.0</ele><time>2026-04-12T16:23:36Z</time></trkpt><trkpt lat="44.57749028570624" lon="8.92212153980481"><ele>613.5</ele><time>2026-04-12T16:23:37Z</time></trkpt><trkpt lat="44.57741087272665" lon="8.922075965163675"><ele>611.0</ele><time>2026-04-12T16:23:43Z</time></trkpt><trkpt lat="44.57725099775812" lon="8.922071677959423"><ele>611.0</ele><time>2026-04-12T16:23:45Z</time></trkpt><trkpt lat="44.57716251120257" lon="8.922055464478792"><ele>611.0</ele><time>2026-04-12T16:23:46Z</time></trkpt><trkpt lat="44.57707936584701" lon="8.922016056888241"><ele>611.0</ele><time>2026-04-12T16:23:47Z</time></trkpt><trkpt lat="44.57701432914111" lon="8.922008516403888"><ele>611.0</ele><time>2026-04-12T16:23:48Z</time></trkpt><trkpt lat="44.57688738888707" lon="8.922013446282879"><ele>611.0</ele><time>2026-04-12T16:23:50Z</time></trkpt><trkpt lat="44.57680288517904" lon="8.922015501995984"><ele>610.1666666666666</ele><time>2026-04-12T16:23:51Z</time></trkpt><trkpt lat="44.57672114502595" lon="8.922023748255432"><ele>609.3333333333333</ele><time>2026-04-12T16:23:52Z</time></trkpt><trkpt lat="44.576653533753934" lon="8.92202758460585"><ele>608.5</ele><time>2026-04-12T16:23:53Z</time></trkpt><trkpt lat="44.576564016488" lon="8.922062427144636"><ele>607.6666666666666</ele><time>2026-04-12T16:23:54Z</time></trkpt><trkpt lat="44.57646357671768" lon="8.922113496839438"><ele>606.8333333333334</ele><time>2026-04-12T16:23:55Z</time></trkpt><trkpt lat="44.576400068428285" lon="8.922147643253073"><ele>606.0</ele><time>2026-04-12T16:23:56Z</time></trkpt><trkpt lat="44.576300355533554" lon="8.922195777730472"><ele>606.0</ele><time>2026-04-12T16:23:57Z</time></trkpt><trkpt lat="44.57622217822168" lon="8.922222104612896"><ele>606.0</ele><time>2026-04-12T16:23:58Z</time></trkpt><trkpt lat="44.57615099377201" lon="8.922278160088185"><ele>606.0</ele><time>2026-04-12T16:23:59Z</time></trkpt><trkpt lat="44.576095998473804" lon="8.92236052268472"><ele>606.0</ele><time>2026-04-12T16:24:00Z</time></trkpt><trkpt lat="44.57602199517279" lon="8.922412250275539"><ele>606.0</ele><time>2026-04-12T16:24:01Z</time></trkpt><trkpt lat="44.57593082249688" lon="8.922461345091138"><ele>606.0</ele><time>2026-04-12T16:24:02Z</time></trkpt><trkpt lat="44.57584927392156" lon="8.922504947761324"><ele>605.6</ele><time>2026-04-12T16:24:03Z</time></trkpt><trkpt lat="44.57578619761429" lon="8.922565574256318"><ele>605.2</ele><time>2026-04-12T16:24:04Z</time></trkpt><trkpt lat="44.575736612529404" lon="8.922751232671638"><ele>604.8</ele><time>2026-04-12T16:24:06Z</time></trkpt><trkpt lat="44.57572026573659" lon="8.922900255215641"><ele>604.4</ele><time>2026-04-12T16:24:07Z</time></trkpt><trkpt lat="44.575682745312214" lon="8.923022982207469"><ele>604.0</ele><time>2026-04-12T16:24:08Z</time></trkpt><trkpt lat="44.575648180609384" lon="8.923138590640084"><ele>604.0</ele><time>2026-04-12T16:24:09Z</time></trkpt><trkpt lat="44.57563139612751" lon="8.923239332962746"><ele>604.0</ele><time>2026-04-12T16:24:10Z</time></trkpt><trkpt lat="44.5756003613663" lon="8.923339569502586"><ele>604.0</ele><time>2026-04-12T16:24:11Z</time></trkpt><trkpt lat="44.57555642761322" lon="8.923418060134901"><ele>604.0</ele><time>2026-04-12T16:24:12Z</time></trkpt><trkpt lat="44.57549593589211" lon="8.923486753931062"><ele>604.0</ele><time>2026-04-12T16:24:13Z</time></trkpt><trkpt lat="44.57545660729371" lon="8.923577705780136"><ele>604.0</ele><time>2026-04-12T16:24:14Z</time></trkpt><trkpt lat="44.57543603764418" lon="8.923688995354926"><ele>604.0</ele><time>2026-04-12T16:24:15Z</time></trkpt><trkpt lat="44.57540350252565" lon="8.923787703645383"><ele>604.0</ele><time>2026-04-12T16:24:16Z</time></trkpt><trkpt lat="44.57535102580473" lon="8.923874932705036"><ele>604.0</ele><time>2026-04-12T16:24:17Z</time></trkpt><trkpt lat="44.575272737512414" lon="8.923942532584672"><ele>604.0</ele><time>2026-04-12T16:24:18Z</time></trkpt><trkpt lat="44.57523232292787" lon="8.924017141272609"><ele>604.0</ele><time>2026-04-12T16:24:19Z</time></trkpt><trkpt lat="44.57524201366835" lon="8.924109890418299"><ele>604.0</ele><time>2026-04-12T16:24:20Z</time></trkpt><trkpt lat="44.57525845375381" lon="8.92421828367202"><ele>601.4</ele><time>2026-04-12T16:24:21Z</time></trkpt><trkpt lat="44.57524570950729" lon="8.924349037364847"><ele>598.8</ele><time>2026-04-12T16:24:23Z</time></trkpt><trkpt lat="44.575261421578965" lon="8.924439435809886"><ele>596.2</ele><time>2026-04-12T16:24:30Z</time></trkpt><trkpt lat="44.575277858016726" lon="8.92458391972837"><ele>593.6</ele><time>2026-04-12T16:24:31Z</time></trkpt><trkpt lat="44.57530244553502" lon="8.924729198201765"><ele>591.0</ele><time>2026-04-12T16:24:32Z</time></trkpt><trkpt lat="44.57533029798368" lon="8.924865453956965"><ele>591.6666666666666</ele><time>2026-04-12T16:24:33Z</time></trkpt><trkpt lat="44.575363533159894" lon="8.924976674406004"><ele>592.3333333333334</ele><time>2026-04-12T16:24:34Z</time></trkpt><trkpt lat="44.575412552678614" lon="8.925070667838249"><ele>593.0</ele><time>2026-04-12T16:24:35Z</time></trkpt><trkpt lat="44.575465034628394" lon="8.92515742009788"><ele>593.6666666666667</ele><time>2026-04-12T16:24:36Z</time></trkpt><trkpt lat="44.575513786059865" lon="8.92524695616445"><ele>594.3333333333334</ele><time>2026-04-12T16:24:37Z</time></trkpt><trkpt lat="44.57556279381213" lon="8.925342375289611"><ele>595.0</ele><time>2026-04-12T16:24:38Z</time></trkpt><trkpt lat="44.57562147285938" lon="8.925425265368336"><ele>595.8333333333334</ele><time>2026-04-12T16:24:39Z</time></trkpt><trkpt lat="44.57565817658671" lon="8.925507368642027"><ele>596.6666666666667</ele><time>2026-04-12T16:24:40Z</time></trkpt><trkpt lat="44.57568315923045" lon="8.925624222643366"><ele>597.5</ele><time>2026-04-12T16:24:41Z</time></trkpt><trkpt lat="44.57569555341659" lon="8.925758521608746"><ele>598.3333333333334</ele><time>2026-04-12T16:24:42Z</time></trkpt><trkpt lat="44.57568527193307" lon="8.925912592150889"><ele>599.1666666666666</ele><time>2026-04-12T16:24:43Z</time></trkpt><trkpt lat="44.57569259870672" lon="8.926016003058932"><ele>600.0</ele><time>2026-04-12T16:24:44Z</time></trkpt><trkpt lat="44.57578202657392" lon="8.92611268787975"><ele>600.0</ele><time>2026-04-12T16:24:46Z</time></trkpt><trkpt lat="44.57585364106068" lon="8.926157083969523"><ele>600.0</ele><time>2026-04-12T16:24:47Z</time></trkpt><trkpt lat="44.5758962907177" lon="8.926230529200396"><ele>600.0</ele><time>2026-04-12T16:24:48Z</time></trkpt><trkpt lat="44.57592341211507" lon="8.926346264334962"><ele>600.0</ele><time>2026-04-12T16:24:49Z</time></trkpt><trkpt lat="44.57596625058389" lon="8.926430588776684"><ele>600.0</ele><time>2026-04-12T16:24:50Z</time></trkpt><trkpt lat="44.57602618382274" lon="8.926568876875491"><ele>600.0</ele><time>2026-04-12T16:24:52Z</time></trkpt><trkpt lat="44.57611684138055" lon="8.926686308770188"><ele>599.1666666666666</ele><time>2026-04-12T16:24:54Z</time></trkpt><trkpt lat="44.57616953222537" lon="8.926740234266584"><ele>598.3333333333334</ele><time>2026-04-12T16:24:55Z</time></trkpt><trkpt lat="44.57619194696273" lon="8.926833509518659"><ele>597.5</ele><time>2026-04-12T16:24:56Z</time></trkpt><trkpt lat="44.5762181068907" lon="8.926925801943582"><ele>596.6666666666667</ele><time>2026-04-12T16:24:57Z</time></trkpt><trkpt lat="44.57623024411955" lon="8.927090038823648"><ele>595.8333333333334</ele><time>2026-04-12T16:24:59Z</time></trkpt><trkpt lat="44.57624195669397" lon="8.927238653324704"><ele>595.0</ele><time>2026-04-12T16:25:01Z</time></trkpt><trkpt lat="44.57623192866525" lon="8.927327967283112"><ele>595.0</ele><time>2026-04-12T16:25:02Z</time></trkpt><trkpt lat="44.576170903786874" lon="8.927387991041437"><ele>595.0</ele><time>2026-04-12T16:25:03Z</time></trkpt><trkpt lat="44.57611931506904" lon="8.92748246070905"><ele>595.0</ele><time>2026-04-12T16:25:04Z</time></trkpt><trkpt lat="44.57605946310865" lon="8.927569932331059"><ele>595.0</ele><time>2026-04-12T16:25:05Z</time></trkpt><trkpt lat="44.575995474752474" lon="8.927667647437994"><ele>595.0</ele><time>2026-04-12T16:25:06Z</time></trkpt><trkpt lat="44.5759345845934" lon="8.927784992606735"><ele>595.0</ele><time>2026-04-12T16:25:07Z</time></trkpt><trkpt lat="44.57589938487286" lon="8.927899910670925"><ele>592.6666666666667</ele><time>2026-04-12T16:25:08Z</time></trkpt><trkpt lat="44.575851983263135" lon="8.927989133558052"><ele>590.3333333333334</ele><time>2026-04-12T16:25:09Z</time></trkpt><trkpt lat="44.57581580233339" lon="8.928077556125846"><ele>588.0</ele><time>2026-04-12T16:25:10Z</time></trkpt><trkpt lat="44.57581520972576" lon="8.928168428268881"><ele>585.6666666666666</ele><time>2026-04-12T16:25:11Z</time></trkpt><trkpt lat="44.575831926396056" lon="8.928320792277706"><ele>583.3333333333333</ele><time>2026-04-12T16:25:13Z</time></trkpt><trkpt lat="44.57586909785404" lon="8.928401894492666"><ele>581.0</ele><time>2026-04-12T16:25:15Z</time></trkpt><trkpt lat="44.575870982638996" lon="8.928494861309538"><ele>579.2</ele><time>2026-04-12T16:25:17Z</time></trkpt><trkpt lat="44.57585295209022" lon="8.928594498006449"><ele>577.4000000000001</ele><time>2026-04-12T16:25:20Z</time></trkpt><trkpt lat="44.57582596812556" lon="8.928707696582814"><ele>575.6</ele><time>2026-04-12T16:25:23Z</time></trkpt><trkpt lat="44.575788844946366" lon="8.928871946405492"><ele>573.8000000000001</ele><time>2026-04-12T16:25:25Z</time></trkpt><trkpt lat="44.57578191696643" lon="8.928966449165854"><ele>572.0</ele><time>2026-04-12T16:25:26Z</time></trkpt><trkpt lat="44.57572542298064" lon="8.929106959897275"><ele>572.0</ele><time>2026-04-12T16:25:28Z</time></trkpt><trkpt lat="44.57568408601897" lon="8.929205271599205"><ele>572.0</ele><time>2026-04-12T16:25:30Z</time></trkpt><trkpt lat="44.57569582614969" lon="8.929315603238173"><ele>572.0</ele><time>2026-04-12T16:25:46Z</time></trkpt><trkpt lat="44.57576531654131" lon="8.929382079038904"><ele>572.0</ele><time>2026-04-12T16:25:48Z</time></trkpt><trkpt lat="44.57581297522541" lon="8.929440889940874"><ele>572.0</ele><time>2026-04-12T16:26:05Z</time></trkpt><trkpt lat="44.57588746887294" lon="8.929546156909417"><ele>572.0</ele><time>2026-04-12T16:26:07Z</time></trkpt><trkpt lat="44.57593367292114" lon="8.92966921962879"><ele>568.8000000000001</ele><time>2026-04-12T16:26:09Z</time></trkpt><trkpt lat="44.575977365883816" lon="8.92981402933879"><ele>565.6</ele><time>2026-04-12T16:26:11Z</time></trkpt><trkpt lat="44.575986926314044" lon="8.929966187499726"><ele>562.4000000000001</ele><time>2026-04-12T16:26:13Z</time></trkpt><trkpt lat="44.575999030508626" lon="8.930116401752887"><ele>559.2</ele><time>2026-04-12T16:26:15Z</time></trkpt><trkpt lat="44.57606317803464" lon="8.930251608387639"><ele>556.0</ele><time>2026-04-12T16:26:17Z</time></trkpt><trkpt lat="44.57614125115168" lon="8.93034242324288"><ele>552.6</ele><time>2026-04-12T16:26:19Z</time></trkpt><trkpt lat="44.57622241641082" lon="8.930432519946438"><ele>549.2</ele><time>2026-04-12T16:26:21Z</time></trkpt><trkpt lat="44.57631018058884" lon="8.930517645135495"><ele>545.8</ele><time>2026-04-12T16:26:23Z</time></trkpt><trkpt lat="44.57641325228949" lon="8.930599800231908"><ele>542.4</ele><time>2026-04-12T16:26:25Z</time></trkpt><trkpt lat="44.576509417967806" lon="8.930683946321553"><ele>539.0</ele><time>2026-04-12T16:26:27Z</time></trkpt><trkpt lat="44.5765401907378" lon="8.930766919761911"><ele>539.0</ele><time>2026-04-12T16:26:28Z</time></trkpt><trkpt lat="44.5766306941079" lon="8.930858766000703"><ele>539.0</ele><time>2026-04-12T16:26:30Z</time></trkpt><trkpt lat="44.57668872579309" lon="8.930905067858733"><ele>539.0</ele><time>2026-04-12T16:26:31Z</time></trkpt><trkpt lat="44.57677205982945" lon="8.930959177677169"><ele>539.0</ele><time>2026-04-12T16:26:33Z</time></trkpt><trkpt lat="44.57683269806942" lon="8.931013767901463"><ele>539.0</ele><time>2026-04-12T16:26:41Z</time></trkpt><trkpt lat="44.576896598041905" lon="8.931064664964746"><ele>539.0</ele><time>2026-04-12T16:26:44Z</time></trkpt><trkpt lat="44.57697779109129" lon="8.931138442181394"><ele>535.3333333333333</ele><time>2026-04-12T16:26:47Z</time></trkpt><trkpt lat="44.57706231968765" lon="8.931168024118634"><ele>531.6666666666666</ele><time>2026-04-12T16:26:49Z</time></trkpt><trkpt lat="44.577153584719845" lon="8.931160105944045"><ele>528.0</ele><time>2026-04-12T16:26:51Z</time></trkpt><trkpt lat="44.5772193036712" lon="8.931159349871988"><ele>524.3333333333334</ele><time>2026-04-12T16:26:52Z</time></trkpt><trkpt lat="44.57729754163983" lon="8.931169772251705"><ele>520.6666666666667</ele><time>2026-04-12T16:26:53Z</time></trkpt><trkpt lat="44.577418899751684" lon="8.931182114216801"><ele>517.0</ele><time>2026-04-12T16:26:55Z</time></trkpt><trkpt lat="44.57746366375926" lon="8.931250069615173"><ele>517.0</ele><time>2026-04-12T16:26:57Z</time></trkpt><trkpt lat="44.57747027426717" lon="8.931352425904333"><ele>517.0</ele><time>2026-04-12T16:26:59Z</time></trkpt><trkpt lat="44.57744752972604" lon="8.93145985691913"><ele>517.0</ele><time>2026-04-12T16:27:01Z</time></trkpt><trkpt lat="44.57742801575108" lon="8.931772470884182"><ele>517.0</ele><time>2026-04-12T16:27:03Z</time></trkpt><trkpt lat="44.577445365447836" lon="8.931914571657508"><ele>515.0</ele><time>2026-04-12T16:27:05Z</time></trkpt><trkpt lat="44.57748908006912" lon="8.93200763221174"><ele>513.0</ele><time>2026-04-12T16:27:08Z</time></trkpt><trkpt lat="44.57749356033557" lon="8.932168934176886"><ele>511.00000000000006</ele><time>2026-04-12T16:27:10Z</time></trkpt><trkpt lat="44.57753274970815" lon="8.932302835654085"><ele>509.0</ele><time>2026-04-12T16:27:13Z</time></trkpt><trkpt lat="44.57747035565951" lon="8.932367940530266"><ele>507.0</ele><time>2026-04-12T16:27:14Z</time></trkpt><trkpt lat="44.577384616821206" lon="8.932439834093204"><ele>507.0</ele><time>2026-04-12T16:27:16Z</time></trkpt><trkpt lat="44.577338774571345" lon="8.932538483280657"><ele>507.00000000000006</ele><time>2026-04-12T16:27:18Z</time></trkpt><trkpt lat="44.57729219372114" lon="8.932698929564419"><ele>507.00000000000006</ele><time>2026-04-12T16:27:20Z</time></trkpt><trkpt lat="44.57722425466394" lon="8.932793066327864"><ele>507.0</ele><time>2026-04-12T16:27:22Z</time></trkpt><trkpt lat="44.5772058097735" lon="8.932883941169282"><ele>507.0</ele><time>2026-04-12T16:27:23Z</time></trkpt><trkpt lat="44.57714866941229" lon="8.933003097798446"><ele>503.8</ele><time>2026-04-12T16:27:25Z</time></trkpt><trkpt lat="44.5771402760652" lon="8.933155182810566"><ele>500.6</ele><time>2026-04-12T16:27:27Z</time></trkpt><trkpt lat="44.57713757308521" lon="8.933269720647314"><ele>497.40000000000003</ele><time>2026-04-12T16:27:29Z</time></trkpt><trkpt lat="44.577089398353706" lon="8.93342302256996"><ele>494.20000000000005</ele><time>2026-04-12T16:27:33Z</time></trkpt><trkpt lat="44.57704933796437" lon="8.933602727168257"><ele>491.0</ele><time>2026-04-12T16:27:34Z</time></trkpt><trkpt lat="44.57706948787996" lon="8.933710135687429"><ele>490.0</ele><time>2026-04-12T16:27:35Z</time></trkpt><trkpt lat="44.57705034218526" lon="8.933821800391142"><ele>489.0</ele><time>2026-04-12T16:27:36Z</time></trkpt><trkpt lat="44.57703294396706" lon="8.934005217995534"><ele>488.0</ele><time>2026-04-12T16:27:38Z</time></trkpt><trkpt lat="44.57700586348636" lon="8.934112750414123"><ele>487.0</ele><time>2026-04-12T16:27:39Z</time></trkpt><trkpt lat="44.57698235718756" lon="8.93423687216746"><ele>486.0</ele><time>2026-04-12T16:27:40Z</time></trkpt><trkpt lat="44.57704101318477" lon="8.934434455387036"><ele>483.4</ele><time>2026-04-12T16:27:42Z</time></trkpt><trkpt lat="44.57705298659203" lon="8.934548153780025"><ele>480.8</ele><time>2026-04-12T16:27:43Z</time></trkpt><trkpt lat="44.5770215793764" lon="8.934659391724635"><ele>478.19999999999993</ele><time>2026-04-12T16:27:44Z</time></trkpt><trkpt lat="44.576917838762164" lon="8.934749337897816"><ele>475.59999999999997</ele><time>2026-04-12T16:27:46Z</time></trkpt><trkpt lat="44.57686539536476" lon="8.934798633473509"><ele>473.0</ele><time>2026-04-12T16:27:47Z</time></trkpt><trkpt lat="44.57673298746913" lon="8.934863568746927"><ele>472.99999999999994</ele><time>2026-04-12T16:27:49Z</time></trkpt><trkpt lat="44.57664887431679" lon="8.934902717023817"><ele>473.0</ele><time>2026-04-12T16:27:50Z</time></trkpt><trkpt lat="44.57656680829492" lon="8.934948598730013"><ele>473.0</ele><time>2026-04-12T16:27:51Z</time></trkpt><trkpt lat="44.57649321055863" lon="8.934999919367359"><ele>473.0</ele><time>2026-04-12T16:27:52Z</time></trkpt><trkpt lat="44.576382368691554" lon="8.935059168037123"><ele>472.99999999999994</ele><time>2026-04-12T16:27:54Z</time></trkpt><trkpt lat="44.57632393655494" lon="8.935111962549389"><ele>473.0</ele><time>2026-04-12T16:27:56Z</time></trkpt><trkpt lat="44.5762709290885" lon="8.935209835955705"><ele>471.0</ele><time>2026-04-12T16:27:58Z</time></trkpt><trkpt lat="44.57623005285384" lon="8.935293077731837"><ele>468.99999999999994</ele><time>2026-04-12T16:28:06Z</time></trkpt><trkpt lat="44.576192962399276" lon="8.935403340080644"><ele>466.99999999999994</ele><time>2026-04-12T16:30:41Z</time></trkpt><trkpt lat="44.57614370818107" lon="8.935520866588016"><ele>465.0</ele><time>2026-04-12T16:30:43Z</time></trkpt><trkpt lat="44.57611902020903" lon="8.935658863960215"><ele>463.0</ele><time>2026-04-12T16:30:45Z</time></trkpt><trkpt lat="44.576092604176274" lon="8.93583317266961"><ele>460.6666666666667</ele><time>2026-04-12T16:30:47Z</time></trkpt><trkpt lat="44.576068766496924" lon="8.935978793596941"><ele>458.33333333333337</ele><time>2026-04-12T16:30:49Z</time></trkpt><trkpt lat="44.57602450921886" lon="8.936095384943007"><ele>456.0</ele><time>2026-04-12T16:30:51Z</time></trkpt><trkpt lat="44.57601195703386" lon="8.93618320135125"><ele>453.66666666666663</ele><time>2026-04-12T16:30:52Z</time></trkpt><trkpt lat="44.57603654817679" lon="8.936290519060403"><ele>451.3333333333333</ele><time>2026-04-12T16:30:53Z</time></trkpt><trkpt lat="44.5760478246899" lon="8.936404791873183"><ele>449.0</ele><time>2026-04-12T16:30:54Z</time></trkpt><trkpt lat="44.57607871136529" lon="8.93652457648853"><ele>448.99999999999994</ele><time>2026-04-12T16:30:55Z</time></trkpt><trkpt lat="44.57611758886349" lon="8.936630148050812"><ele>449.0</ele><time>2026-04-12T16:30:56Z</time></trkpt><trkpt lat="44.57614874632445" lon="8.936741287931083"><ele>449.0</ele><time>2026-04-12T16:30:57Z</time></trkpt><trkpt lat="44.57616935094253" lon="8.93685709934218"><ele>449.0</ele><time>2026-04-12T16:30:58Z</time></trkpt><trkpt lat="44.576182596493105" lon="8.93697881733804"><ele>448.99999999999994</ele><time>2026-04-12T16:30:59Z</time></trkpt><trkpt lat="44.57619286448195" lon="8.937100479259902"><ele>449.0</ele><time>2026-04-12T16:31:00Z</time></trkpt><trkpt lat="44.5762115810889" lon="8.937220609730513"><ele>447.49999999999994</ele><time>2026-04-12T16:31:01Z</time></trkpt><trkpt lat="44.576224158801715" lon="8.93734461877159"><ele>446.0</ele><time>2026-04-12T16:31:02Z</time></trkpt><trkpt lat="44.57622973458655" lon="8.93746922911127"><ele>444.5</ele><time>2026-04-12T16:31:03Z</time></trkpt><trkpt lat="44.57623529697141" lon="8.937587459770093"><ele>443.0</ele><time>2026-04-12T16:31:04Z</time></trkpt><trkpt lat="44.57625148178546" lon="8.937705322785597"><ele>441.49999999999994</ele><time>2026-04-12T16:31:05Z</time></trkpt><trkpt lat="44.57625555982702" lon="8.937818798477915"><ele>440.0</ele><time>2026-04-12T16:31:06Z</time></trkpt><trkpt lat="44.576245594249585" lon="8.937943242388505"><ele>439.2</ele><time>2026-04-12T16:31:07Z</time></trkpt><trkpt lat="44.5762100945765" lon="8.938061436215929"><ele>438.4</ele><time>2026-04-12T16:31:08Z</time></trkpt><trkpt lat="44.576154032764244" lon="8.938170083511515"><ele>437.6</ele><time>2026-04-12T16:31:09Z</time></trkpt><trkpt lat="44.576098292451945" lon="8.938273537015057"><ele>436.8</ele><time>2026-04-12T16:31:10Z</time></trkpt><trkpt lat="44.576057445308095" lon="8.938380601676206"><ele>436.0</ele><time>2026-04-12T16:31:11Z</time></trkpt><trkpt lat="44.576031789039796" lon="8.938493366720113"><ele>434.83333333333337</ele><time>2026-04-12T16:31:12Z</time></trkpt><trkpt lat="44.57600660378282" lon="8.9386124616169"><ele>433.6666666666667</ele><time>2026-04-12T16:31:13Z</time></trkpt><trkpt lat="44.57597439355503" lon="8.938736023747037"><ele>432.5</ele><time>2026-04-12T16:31:14Z</time></trkpt><trkpt lat="44.57594287599456" lon="8.938851321727562"><ele>431.33333333333337</ele><time>2026-04-12T16:31:15Z</time></trkpt><trkpt lat="44.57591615401448" lon="8.93896665130469"><ele>430.1666666666667</ele><time>2026-04-12T16:31:16Z</time></trkpt><trkpt lat="44.5758888464056" lon="8.939077185655503"><ele>429.0</ele><time>2026-04-12T16:31:17Z</time></trkpt><trkpt lat="44.57586753475454" lon="8.939183591600491"><ele>428.0</ele><time>2026-04-12T16:31:18Z</time></trkpt><trkpt lat="44.57585078522427" lon="8.93928458900432"><ele>427.0</ele><time>2026-04-12T16:31:19Z</time></trkpt><trkpt lat="44.57584618040586" lon="8.93939051732712"><ele>426.0</ele><time>2026-04-12T16:31:20Z</time></trkpt><trkpt lat="44.57584547936945" lon="8.939496042550473"><ele>425.0</ele><time>2026-04-12T16:31:21Z</time></trkpt><trkpt lat="44.57585206916948" lon="8.939594250280603"><ele>424.0</ele><time>2026-04-12T16:31:22Z</time></trkpt><trkpt lat="44.57584699356853" lon="8.939686939952118"><ele>423.0</ele><time>2026-04-12T16:31:23Z</time></trkpt><trkpt lat="44.5757786365023" lon="8.939819576127329"><ele>423.0</ele><time>2026-04-12T16:31:25Z</time></trkpt><trkpt lat="44.575712778353825" lon="8.939828779499338"><ele>423.0</ele><time>2026-04-12T16:31:26Z</time></trkpt><trkpt lat="44.57565144864378" lon="8.939805071203578"><ele>423.0</ele><time>2026-04-12T16:31:27Z</time></trkpt><trkpt lat="44.575549207753376" lon="8.93973069816054"><ele>423.0</ele><time>2026-04-12T16:31:29Z</time></trkpt><trkpt lat="44.57548872493536" lon="8.939674019004654"><ele>423.0</ele><time>2026-04-12T16:31:30Z</time></trkpt><trkpt lat="44.57542620219503" lon="8.93960870080985"><ele>423.0</ele><time>2026-04-12T16:31:31Z</time></trkpt><trkpt lat="44.57536410631525" lon="8.939548552818334"><ele>422.1666666666667</ele><time>2026-04-12T16:31:32Z</time></trkpt><trkpt lat="44.57529360872596" lon="8.939506723481056"><ele>421.33333333333337</ele><time>2026-04-12T16:31:33Z</time></trkpt><trkpt lat="44.575215209258346" lon="8.939480378967037"><ele>420.5</ele><time>2026-04-12T16:31:34Z</time></trkpt><trkpt lat="44.57513183918413" lon="8.939459988736436"><ele>419.6666666666667</ele><time>2026-04-12T16:31:35Z</time></trkpt><trkpt lat="44.57506417641272" lon="8.93941999392171"><ele>418.83333333333337</ele><time>2026-04-12T16:31:36Z</time></trkpt><trkpt lat="44.57503508442824" lon="8.93933656799637"><ele>418.0</ele><time>2026-04-12T16:31:37Z</time></trkpt><trkpt lat="44.57504819602637" lon="8.93920549851169"><ele>418.0</ele><time>2026-04-12T16:31:38Z</time></trkpt><trkpt lat="44.57509225890243" lon="8.939050982317514"><ele>418.0</ele><time>2026-04-12T16:31:39Z</time></trkpt><trkpt lat="44.575144728111496" lon="8.938888456114709"><ele>418.0</ele><time>2026-04-12T16:31:40Z</time></trkpt><trkpt lat="44.57518211090604" lon="8.938725561438225"><ele>418.0</ele><time>2026-04-12T16:31:41Z</time></trkpt><trkpt lat="44.57519815177921" lon="8.938569396927637"><ele>418.0</ele><time>2026-04-12T16:31:42Z</time></trkpt><trkpt lat="44.575187902971884" lon="8.938410668040929"><ele>418.0</ele><time>2026-04-12T16:31:43Z</time></trkpt><trkpt lat="44.57514657310053" lon="8.938255207983532"><ele>418.0</ele><time>2026-04-12T16:31:44Z</time></trkpt><trkpt lat="44.575073402154274" lon="8.938123325193917"><ele>418.0</ele><time>2026-04-12T16:31:45Z</time></trkpt><trkpt lat="44.57497583562152" lon="8.93802438933417"><ele>418.5</ele><time>2026-04-12T16:31:46Z</time></trkpt><trkpt lat="44.57486384181069" lon="8.937961705989633"><ele>419.0</ele><time>2026-04-12T16:31:47Z</time></trkpt><trkpt lat="44.57474988430426" lon="8.937931567800868"><ele>419.5</ele><time>2026-04-12T16:31:48Z</time></trkpt><trkpt lat="44.57464111254609" lon="8.937907878321969"><ele>420.0</ele><time>2026-04-12T16:31:49Z</time></trkpt><trkpt lat="44.57453051785823" lon="8.937909256211785"><ele>418.2</ele><time>2026-04-12T16:31:50Z</time></trkpt><trkpt lat="44.57442787798673" lon="8.937931355912225"><ele>416.4</ele><time>2026-04-12T16:31:51Z</time></trkpt><trkpt lat="44.57434933548303" lon="8.937920379711873"><ele>414.6</ele><time>2026-04-12T16:31:52Z</time></trkpt><trkpt lat="44.574278046464705" lon="8.937862960354346"><ele>412.8</ele><time>2026-04-12T16:31:53Z</time></trkpt><trkpt lat="44.574213778274235" lon="8.937747875389286"><ele>411.0</ele><time>2026-04-12T16:31:54Z</time></trkpt><trkpt lat="44.57415822430692" lon="8.937634913211566"><ele>412.0</ele><time>2026-04-12T16:31:55Z</time></trkpt><trkpt lat="44.57411145174314" lon="8.937539618018137"><ele>413.0</ele><time>2026-04-12T16:31:56Z</time></trkpt><trkpt lat="44.57407030063344" lon="8.937459750006987"><ele>414.0</ele><time>2026-04-12T16:31:57Z</time></trkpt><trkpt lat="44.573997123390775" lon="8.937319222396052"><ele>415.0</ele><time>2026-04-12T16:31:59Z</time></trkpt><trkpt lat="44.573906773767284" lon="8.937253675928504"><ele>416.0</ele><time>2026-04-12T16:32:01Z</time></trkpt><trkpt lat="44.57381441633593" lon="8.937307332852814"><ele>416.0</ele><time>2026-04-12T16:32:03Z</time></trkpt><trkpt lat="44.57375521219288" lon="8.937365433008544"><ele>416.0</ele><time>2026-04-12T16:32:04Z</time></trkpt><trkpt lat="44.57368511037144" lon="8.937426610968933"><ele>416.0</ele><time>2026-04-12T16:32:05Z</time></trkpt><trkpt lat="44.573614938618306" lon="8.93748254233727"><ele>416.0</ele><time>2026-04-12T16:32:06Z</time></trkpt><trkpt lat="44.573551288800516" lon="8.9375310984396"><ele>416.0</ele><time>2026-04-12T16:32:07Z</time></trkpt><trkpt lat="44.57351671686843" lon="8.937606774230137"><ele>416.0</ele><time>2026-04-12T16:32:08Z</time></trkpt><trkpt lat="44.57349753657515" lon="8.937705378300247"><ele>416.0</ele><time>2026-04-12T16:32:09Z</time></trkpt><trkpt lat="44.57347927641696" lon="8.937818731763274"><ele>413.49999999999994</ele><time>2026-04-12T16:32:10Z</time></trkpt><trkpt lat="44.573453906885455" lon="8.937927950638876"><ele>411.0</ele><time>2026-04-12T16:32:11Z</time></trkpt><trkpt lat="44.573423746446316" lon="8.938031450956727"><ele>408.5</ele><time>2026-04-12T16:32:12Z</time></trkpt><trkpt lat="44.57339077431164" lon="8.938130693620465"><ele>406.0</ele><time>2026-04-12T16:32:13Z</time></trkpt><trkpt lat="44.57335856152592" lon="8.938220100420768"><ele>403.49999999999994</ele><time>2026-04-12T16:32:14Z</time></trkpt><trkpt lat="44.57335805331115" lon="8.938331984041156"><ele>401.0</ele><time>2026-04-12T16:32:15Z</time></trkpt><trkpt lat="44.57337890573361" lon="8.938463628753842"><ele>399.20000000000005</ele><time>2026-04-12T16:32:16Z</time></trkpt><trkpt lat="44.573411752903766" lon="8.938594709794396"><ele>397.40000000000003</ele><time>2026-04-12T16:32:17Z</time></trkpt><trkpt lat="44.573447816693125" lon="8.938716426335711"><ele>395.6</ele><time>2026-04-12T16:32:18Z</time></trkpt><trkpt lat="44.57349767053952" lon="8.938831919941922"><ele>393.8</ele><time>2026-04-12T16:32:19Z</time></trkpt><trkpt lat="44.57356181181071" lon="8.938926471514018"><ele>392.0</ele><time>2026-04-12T16:32:20Z</time></trkpt><trkpt lat="44.573647976680824" lon="8.93901351428271"><ele>393.20000000000005</ele><time>2026-04-12T16:32:21Z</time></trkpt><trkpt lat="44.57372242419882" lon="8.939096573841574"><ele>394.4</ele><time>2026-04-12T16:32:22Z</time></trkpt><trkpt lat="44.573780483540034" lon="8.939205895683678"><ele>395.6</ele><time>2026-04-12T16:32:23Z</time></trkpt><trkpt lat="44.57384668655667" lon="8.939303192459363"><ele>396.79999999999995</ele><time>2026-04-12T16:32:24Z</time></trkpt><trkpt lat="44.57383810241602" lon="8.939446513714886"><ele>398.0</ele><time>2026-04-12T16:32:25Z</time></trkpt><trkpt lat="44.57384841892027" lon="8.93958327349899"><ele>398.0</ele><time>2026-04-12T16:32:26Z</time></trkpt><trkpt lat="44.573855507900994" lon="8.939724004441437"><ele>398.0</ele><time>2026-04-12T16:32:27Z</time></trkpt><trkpt lat="44.5738775720667" lon="8.939861127947179"><ele>398.0</ele><time>2026-04-12T16:32:28Z</time></trkpt><trkpt lat="44.57388102751382" lon="8.939992940159959"><ele>398.0</ele><time>2026-04-12T16:32:29Z</time></trkpt><trkpt lat="44.57389511997606" lon="8.94012787598268"><ele>398.0</ele><time>2026-04-12T16:32:30Z</time></trkpt><trkpt lat="44.57389402427921" lon="8.940272608055993"><ele>397.79999999999995</ele><time>2026-04-12T16:32:31Z</time></trkpt><trkpt lat="44.57390946938139" lon="8.94041924594653"><ele>397.6</ele><time>2026-04-12T16:32:32Z</time></trkpt><trkpt lat="44.5739368431889" lon="8.940566994208071"><ele>397.4</ele><time>2026-04-12T16:32:33Z</time></trkpt><trkpt lat="44.573966077447096" lon="8.940706806259506"><ele>397.20000000000005</ele><time>2026-04-12T16:32:34Z</time></trkpt><trkpt lat="44.573991767782985" lon="8.940841614138561"><ele>397.0</ele><time>2026-04-12T16:32:35Z</time></trkpt><trkpt lat="44.574007693402834" lon="8.940975921636293"><ele>396.0</ele><time>2026-04-12T16:32:36Z</time></trkpt><trkpt lat="44.57399931847772" lon="8.94110365213057"><ele>395.0</ele><time>2026-04-12T16:32:37Z</time></trkpt><trkpt lat="44.57399255794422" lon="8.941243165121953"><ele>394.0</ele><time>2026-04-12T16:32:38Z</time></trkpt><trkpt lat="44.57398908953668" lon="8.94138619198825"><ele>393.0</ele><time>2026-04-12T16:32:39Z</time></trkpt><trkpt lat="44.573989471752434" lon="8.941528364129423"><ele>392.0</ele><time>2026-04-12T16:32:40Z</time></trkpt><trkpt lat="44.573994598464054" lon="8.94166978629863"><ele>390.8333333333333</ele><time>2026-04-12T16:32:41Z</time></trkpt><trkpt lat="44.574000655442575" lon="8.941801195240465"><ele>389.66666666666663</ele><time>2026-04-12T16:32:42Z</time></trkpt><trkpt lat="44.57400791882426" lon="8.941924211357774"><ele>388.5</ele><time>2026-04-12T16:32:43Z</time></trkpt><trkpt lat="44.57401427425971" lon="8.94203473077817"><ele>387.33333333333337</ele><time>2026-04-12T16:32:44Z</time></trkpt><trkpt lat="44.5740165718186" lon="8.942128488420744"><ele>386.1666666666667</ele><time>2026-04-12T16:32:45Z</time></trkpt><trkpt lat="44.57403205563853" lon="8.942214979428964"><ele>385.0</ele><time>2026-04-12T16:32:46Z</time></trkpt><trkpt lat="44.57399074636832" lon="8.94229930710201"><ele>385.0</ele><time>2026-04-12T16:32:47Z</time></trkpt><trkpt lat="44.57392653447954" lon="8.942402008732776"><ele>385.0</ele><time>2026-04-12T16:32:48Z</time></trkpt><trkpt lat="44.57386709061813" lon="8.942504468849606"><ele>385.0</ele><time>2026-04-12T16:32:49Z</time></trkpt><trkpt lat="44.57381911626234" lon="8.942609714930668"><ele>385.0</ele><time>2026-04-12T16:32:50Z</time></trkpt><trkpt lat="44.57377528174837" lon="8.942731669777235"><ele>385.0</ele><time>2026-04-12T16:32:51Z</time></trkpt><trkpt lat="44.57375330409121" lon="8.942863435939989"><ele>382.4</ele><time>2026-04-12T16:32:52Z</time></trkpt><trkpt lat="44.57374028550545" lon="8.942999099578062"><ele>379.8</ele><time>2026-04-12T16:32:53Z</time></trkpt><trkpt lat="44.573742543207516" lon="8.943145094500403"><ele>377.20000000000005</ele><time>2026-04-12T16:32:54Z</time></trkpt><trkpt lat="44.57375892028562" lon="8.943281695334234"><ele>374.6</ele><time>2026-04-12T16:32:55Z</time></trkpt><trkpt lat="44.573779872617614" lon="8.943411291531033"><ele>372.0</ele><time>2026-04-12T16:32:56Z</time></trkpt><trkpt lat="44.57379123073354" lon="8.943534485293021"><ele>371.0</ele><time>2026-04-12T16:32:57Z</time></trkpt><trkpt lat="44.573797980244706" lon="8.943630352910983"><ele>370.0</ele><time>2026-04-12T16:32:58Z</time></trkpt><trkpt lat="44.573804709263236" lon="8.94372101044264"><ele>369.0</ele><time>2026-04-12T16:32:59Z</time></trkpt><trkpt lat="44.57384384812947" lon="8.943834646665463"><ele>368.0</ele><time>2026-04-12T16:33:01Z</time></trkpt><trkpt lat="44.57386719660469" lon="8.943918026464784"><ele>367.0</ele><time>2026-04-12T16:33:05Z</time></trkpt><trkpt lat="44.57379804690944" lon="8.944037471862686"><ele>366.0</ele><time>2026-04-12T16:33:08Z</time></trkpt><trkpt lat="44.573730651203896" lon="8.94405786141241"><ele>365.57142857142856</ele><time>2026-04-12T16:33:09Z</time></trkpt><trkpt lat="44.57366840296281" lon="8.944084642588823"><ele>365.14285714285717</ele><time>2026-04-12T16:33:10Z</time></trkpt><trkpt lat="44.57360190362658" lon="8.944116415767786"><ele>364.71428571428567</ele><time>2026-04-12T16:33:11Z</time></trkpt><trkpt lat="44.57353896705217" lon="8.944150340932254"><ele>364.2857142857143</ele><time>2026-04-12T16:33:12Z</time></trkpt><trkpt lat="44.57347853917682" lon="8.944183160710931"><ele>363.85714285714283</ele><time>2026-04-12T16:33:13Z</time></trkpt><trkpt lat="44.57341648672955" lon="8.944213743598247"><ele>363.4285714285714</ele><time>2026-04-12T16:33:14Z</time></trkpt><trkpt lat="44.573347211212955" lon="8.944247990062006"><ele>363.0</ele><time>2026-04-12T16:33:15Z</time></trkpt><trkpt lat="44.573271688259176" lon="8.94428578048563"><ele>362.8333333333333</ele><time>2026-04-12T16:33:16Z</time></trkpt><trkpt lat="44.57319863668904" lon="8.944322745845922"><ele>362.6666666666667</ele><time>2026-04-12T16:33:17Z</time></trkpt><trkpt lat="44.57312874128751" lon="8.944360075855656"><ele>362.5</ele><time>2026-04-12T16:33:18Z</time></trkpt><trkpt lat="44.57305118259874" lon="8.944393962044343"><ele>362.33333333333337</ele><time>2026-04-12T16:33:19Z</time></trkpt><trkpt lat="44.572971398662226" lon="8.944435530411745"><ele>362.1666666666667</ele><time>2026-04-12T16:33:20Z</time></trkpt><trkpt lat="44.572891598699805" lon="8.944484742396998"><ele>362.0</ele><time>2026-04-12T16:33:21Z</time></trkpt><trkpt lat="44.57281688552858" lon="8.944522516586428"><ele>362.0</ele><time>2026-04-12T16:33:22Z</time></trkpt><trkpt lat="44.57275221911665" lon="8.9445482097979"><ele>362.0</ele><time>2026-04-12T16:33:23Z</time></trkpt><trkpt lat="44.572687917993264" lon="8.944581942141374"><ele>362.0</ele><time>2026-04-12T16:33:24Z</time></trkpt><trkpt lat="44.57261631916627" lon="8.94462022165558"><ele>362.0</ele><time>2026-04-12T16:33:25Z</time></trkpt><trkpt lat="44.57254258113979" lon="8.944659114266619"><ele>362.0</ele><time>2026-04-12T16:33:26Z</time></trkpt><trkpt lat="44.57246875252826" lon="8.944696491685217"><ele>362.0</ele><time>2026-04-12T16:33:27Z</time></trkpt><trkpt lat="44.57238991636491" lon="8.944734243080186"><ele>362.0</ele><time>2026-04-12T16:33:28Z</time></trkpt><trkpt lat="44.57230717645211" lon="8.944774652041277"><ele>362.0</ele><time>2026-04-12T16:33:29Z</time></trkpt><trkpt lat="44.57222721469953" lon="8.944815821345871"><ele>362.0</ele><time>2026-04-12T16:33:30Z</time></trkpt><trkpt lat="44.572148072341825" lon="8.944855481303508"><ele>362.0</ele><time>2026-04-12T16:33:31Z</time></trkpt><trkpt lat="44.57205780406726" lon="8.944902531138847"><ele>362.0</ele><time>2026-04-12T16:33:32Z</time></trkpt><trkpt lat="44.571973661513496" lon="8.944949145114618"><ele>362.0</ele><time>2026-04-12T16:33:33Z</time></trkpt><trkpt lat="44.57188885296845" lon="8.944995279173881"><ele>362.6666666666667</ele><time>2026-04-12T16:33:34Z</time></trkpt><trkpt lat="44.57180366722193" lon="8.945039316935413"><ele>363.33333333333337</ele><time>2026-04-12T16:33:35Z</time></trkpt><trkpt lat="44.57171679355139" lon="8.945082613498696"><ele>364.0</ele><time>2026-04-12T16:33:36Z</time></trkpt><trkpt lat="44.571636844402136" lon="8.94512074817706"><ele>364.6666666666667</ele><time>2026-04-12T16:33:37Z</time></trkpt><trkpt lat="44.57155787246167" lon="8.945169123329558"><ele>365.3333333333333</ele><time>2026-04-12T16:33:38Z</time></trkpt><trkpt lat="44.57147652313225" lon="8.9452112171993"><ele>366.0</ele><time>2026-04-12T16:33:39Z</time></trkpt><trkpt lat="44.57138883728872" lon="8.945257603658035"><ele>367.0</ele><time>2026-04-12T16:33:40Z</time></trkpt><trkpt lat="44.571292810287915" lon="8.9453023805212"><ele>368.0</ele><time>2026-04-12T16:33:41Z</time></trkpt><trkpt lat="44.57119686075184" lon="8.94535167373246"><ele>369.0</ele><time>2026-04-12T16:33:42Z</time></trkpt><trkpt lat="44.57110640360573" lon="8.945398062607957"><ele>370.0</ele><time>2026-04-12T16:33:43Z</time></trkpt><trkpt lat="44.571019161238475" lon="8.945442125975926"><ele>371.0</ele><time>2026-04-12T16:33:44Z</time></trkpt><trkpt lat="44.57093380867575" lon="8.945486844093317"><ele>371.33333333333337</ele><time>2026-04-12T16:33:45Z</time></trkpt><trkpt lat="44.57086001521192" lon="8.9455340055111"><ele>371.6666666666667</ele><time>2026-04-12T16:33:46Z</time></trkpt><trkpt lat="44.57078476051739" lon="8.945569032978772"><ele>372.0</ele><time>2026-04-12T16:33:47Z</time></trkpt><trkpt lat="44.57071794262539" lon="8.945604061810661"><ele>372.3333333333333</ele><time>2026-04-12T16:33:48Z</time></trkpt><trkpt lat="44.570646001223764" lon="8.945644814459564"><ele>372.66666666666663</ele><time>2026-04-12T16:33:49Z</time></trkpt><trkpt lat="44.57056863918829" lon="8.945677255984814"><ele>373.0</ele><time>2026-04-12T16:33:50Z</time></trkpt><trkpt lat="44.57049043384654" lon="8.94572256995029"><ele>373.0</ele><time>2026-04-12T16:33:51Z</time></trkpt><trkpt lat="44.570398666471526" lon="8.945776613601202"><ele>373.0</ele><time>2026-04-12T16:33:52Z</time></trkpt><trkpt lat="44.5702921693082" lon="8.945822034710423"><ele>373.0</ele><time>2026-04-12T16:33:53Z</time></trkpt><trkpt lat="44.57018195614431" lon="8.945876502184348"><ele>373.0</ele><time>2026-04-12T16:33:54Z</time></trkpt><trkpt lat="44.57006962849569" lon="8.94592878478715"><ele>373.0</ele><time>2026-04-12T16:33:55Z</time></trkpt><trkpt lat="44.56994547412533" lon="8.94598091074652"><ele>372.0</ele><time>2026-04-12T16:33:56Z</time></trkpt><trkpt lat="44.56982370854244" lon="8.946017499990383"><ele>371.0</ele><time>2026-04-12T16:33:57Z</time></trkpt><trkpt lat="44.56969855677405" lon="8.946031115719268"><ele>370.0</ele><time>2026-04-12T16:33:58Z</time></trkpt><trkpt lat="44.56957517824731" lon="8.946048684000692"><ele>369.0</ele><time>2026-04-12T16:33:59Z</time></trkpt><trkpt lat="44.569456073658436" lon="8.946060168167193"><ele>368.75</ele><time>2026-04-12T16:34:00Z</time></trkpt><trkpt lat="44.56933838133391" lon="8.946068282262738"><ele>368.5</ele><time>2026-04-12T16:34:01Z</time></trkpt><trkpt lat="44.56921721622911" lon="8.946075793697053"><ele>368.25</ele><time>2026-04-12T16:34:02Z</time></trkpt><trkpt lat="44.56909401456586" lon="8.946088875464962"><ele>368.0</ele><time>2026-04-12T16:34:03Z</time></trkpt><trkpt lat="44.56898249652" lon="8.946094585892835"><ele>368.0</ele><time>2026-04-12T16:34:04Z</time></trkpt><trkpt lat="44.56886560382429" lon="8.946101322486754"><ele>368.0</ele><time>2026-04-12T16:34:05Z</time></trkpt><trkpt lat="44.568747251179424" lon="8.946122671787654"><ele>368.0</ele><time>2026-04-12T16:34:06Z</time></trkpt><trkpt lat="44.568637386718926" lon="8.946144004402706"><ele>368.0</ele><time>2026-04-12T16:34:07Z</time></trkpt><trkpt lat="44.568524359785854" lon="8.946134119522188"><ele>369.5</ele><time>2026-04-12T16:34:08Z</time></trkpt><trkpt lat="44.56841274863364" lon="8.946111280426106"><ele>371.0</ele><time>2026-04-12T16:34:09Z</time></trkpt><trkpt lat="44.568302753559344" lon="8.946072747636455"><ele>372.5</ele><time>2026-04-12T16:34:10Z</time></trkpt><trkpt lat="44.56819029988113" lon="8.946033625130857"><ele>374.0</ele><time>2026-04-12T16:34:11Z</time></trkpt><trkpt lat="44.56808251062346" lon="8.945964993621294"><ele>374.0</ele><time>2026-04-12T16:34:12Z</time></trkpt><trkpt lat="44.56797654988355" lon="8.945890825626975"><ele>374.0</ele><time>2026-04-12T16:34:13Z</time></trkpt><trkpt lat="44.56787141495372" lon="8.945818433098607"><ele>374.0</ele><time>2026-04-12T16:34:14Z</time></trkpt><trkpt lat="44.567764199118464" lon="8.945742271911579"><ele>374.0</ele><time>2026-04-12T16:34:15Z</time></trkpt><trkpt lat="44.567666677012085" lon="8.945651016164014"><ele>374.75</ele><time>2026-04-12T16:34:16Z</time></trkpt><trkpt lat="44.56755672489164" lon="8.945573129316287"><ele>375.5</ele><time>2026-04-12T16:34:17Z</time></trkpt><trkpt lat="44.567440538075985" lon="8.945515365883546"><ele>376.25</ele><time>2026-04-12T16:34:18Z</time></trkpt><trkpt lat="44.56733213830523" lon="8.945441643432723"><ele>377.0</ele><time>2026-04-12T16:34:19Z</time></trkpt><trkpt lat="44.56722178888766" lon="8.945360438105835"><ele>377.0</ele><time>2026-04-12T16:34:20Z</time></trkpt><trkpt lat="44.56711219153624" lon="8.945286007018176"><ele>377.0</ele><time>2026-04-12T16:34:21Z</time></trkpt><trkpt lat="44.56700193154572" lon="8.945209414370112"><ele>377.0</ele><time>2026-04-12T16:34:22Z</time></trkpt><trkpt lat="44.566890879407126" lon="8.945126647180318"><ele>377.0</ele><time>2026-04-12T16:34:23Z</time></trkpt><trkpt lat="44.56678973681992" lon="8.945043881316694"><ele>378.25</ele><time>2026-04-12T16:34:24Z</time></trkpt><trkpt lat="44.56668396780428" lon="8.94496458548713"><ele>379.5</ele><time>2026-04-12T16:34:25Z</time></trkpt><trkpt lat="44.56657135609308" lon="8.944890996846489"><ele>380.75</ele><time>2026-04-12T16:34:26Z</time></trkpt><trkpt lat="44.566463582333576" lon="8.94481683357962"><ele>382.0</ele><time>2026-04-12T16:34:27Z</time></trkpt><trkpt lat="44.56635559267289" lon="8.944735843308264"><ele>382.0</ele><time>2026-04-12T16:34:28Z</time></trkpt><trkpt lat="44.5662430763816" lon="8.944661376172382"><ele>382.0</ele><time>2026-04-12T16:34:29Z</time></trkpt><trkpt lat="44.56613856018517" lon="8.944582352846783"><ele>382.0</ele><time>2026-04-12T16:34:30Z</time></trkpt><trkpt lat="44.56603115456222" lon="8.944507404489322"><ele>382.0</ele><time>2026-04-12T16:34:31Z</time></trkpt><trkpt lat="44.56592522951951" lon="8.944431548320312"><ele>381.75</ele><time>2026-04-12T16:34:32Z</time></trkpt><trkpt lat="44.56582083174377" lon="8.944353792933526"><ele>381.5</ele><time>2026-04-12T16:34:33Z</time></trkpt><trkpt lat="44.56571545842097" lon="8.944279671623917"><ele>381.25</ele><time>2026-04-12T16:34:34Z</time></trkpt><trkpt lat="44.56561153879909" lon="8.944208505603148"><ele>381.0</ele><time>2026-04-12T16:34:35Z</time></trkpt><trkpt lat="44.56550856624516" lon="8.944131909251176"><ele>381.25</ele><time>2026-04-12T16:34:36Z</time></trkpt><trkpt lat="44.56540657132967" lon="8.944062837463658"><ele>381.5</ele><time>2026-04-12T16:34:37Z</time></trkpt><trkpt lat="44.56530261060176" lon="8.943988651537557"><ele>381.75</ele><time>2026-04-12T16:34:38Z</time></trkpt><trkpt lat="44.56519874921684" lon="8.943914571484079"><ele>382.0</ele><time>2026-04-12T16:34:39Z</time></trkpt><trkpt lat="44.565096563897576" lon="8.94384160886813"><ele>382.0</ele><time>2026-04-12T16:34:40Z</time></trkpt><trkpt lat="44.5649963773203" lon="8.94376939877086"><ele>382.0</ele><time>2026-04-12T16:34:41Z</time></trkpt><trkpt lat="44.56489756922607" lon="8.943689330608702"><ele>382.0</ele><time>2026-04-12T16:34:42Z</time></trkpt><trkpt lat="44.56480269905756" lon="8.943600047171824"><ele>382.0</ele><time>2026-04-12T16:34:43Z</time></trkpt><trkpt lat="44.56471060597084" lon="8.943503198657664"><ele>382.0</ele><time>2026-04-12T16:34:44Z</time></trkpt><trkpt lat="44.56461840869735" lon="8.9434045076004"><ele>382.0</ele><time>2026-04-12T16:34:45Z</time></trkpt><trkpt lat="44.564526960773065" lon="8.943298719271123"><ele>382.0</ele><time>2026-04-12T16:34:46Z</time></trkpt><trkpt lat="44.56443582402563" lon="8.943193072187398"><ele>382.0</ele><time>2026-04-12T16:34:47Z</time></trkpt><trkpt lat="44.56434185859632" lon="8.943085057532597"><ele>383.0</ele><time>2026-04-12T16:34:48Z</time></trkpt><trkpt lat="44.56424670470412" lon="8.942972929733207"><ele>384.0</ele><time>2026-04-12T16:34:49Z</time></trkpt><trkpt lat="44.56415182278494" lon="8.94286048952268"><ele>385.0</ele><time>2026-04-12T16:34:50Z</time></trkpt><trkpt lat="44.564055041866816" lon="8.942742910553596"><ele>386.0</ele><time>2026-04-12T16:34:51Z</time></trkpt><trkpt lat="44.56395800839604" lon="8.942627282722242"><ele>388.75</ele><time>2026-04-12T16:34:52Z</time></trkpt><trkpt lat="44.56386102151737" lon="8.942510519472272"><ele>391.5</ele><time>2026-04-12T16:34:53Z</time></trkpt><trkpt lat="44.563764150018734" lon="8.942393672768173"><ele>394.25</ele><time>2026-04-12T16:34:54Z</time></trkpt><trkpt lat="44.56366829804153" lon="8.942278060205455"><ele>397.0</ele><time>2026-04-12T16:34:55Z</time></trkpt><trkpt lat="44.56357302540907" lon="8.942162541219682"><ele>398.5</ele><time>2026-04-12T16:34:56Z</time></trkpt><trkpt lat="44.563476076667875" lon="8.942055311367598"><ele>400.0</ele><time>2026-04-12T16:34:57Z</time></trkpt><trkpt lat="44.563380115583385" lon="8.941946079081923"><ele>401.5</ele><time>2026-04-12T16:34:58Z</time></trkpt><trkpt lat="44.56328667059063" lon="8.941834476811442"><ele>403.0</ele><time>2026-04-12T16:34:59Z</time></trkpt><trkpt lat="44.563193865278464" lon="8.941724769557661"><ele>402.25</ele><time>2026-04-12T16:35:00Z</time></trkpt><trkpt lat="44.563099996141226" lon="8.941620711861804"><ele>401.5</ele><time>2026-04-12T16:35:01Z</time></trkpt><trkpt lat="44.563008787606115" lon="8.941516139447138"><ele>400.75</ele><time>2026-04-12T16:35:02Z</time></trkpt><trkpt lat="44.562918179761716" lon="8.941407796326594"><ele>400.0</ele><time>2026-04-12T16:35:03Z</time></trkpt><trkpt lat="44.56282904945436" lon="8.94130199804648"><ele>400.5</ele><time>2026-04-12T16:35:04Z</time></trkpt><trkpt lat="44.56273912951769" lon="8.941193700280985"><ele>401.0</ele><time>2026-04-12T16:35:05Z</time></trkpt><trkpt lat="44.56264485560029" lon="8.941067964897107"><ele>401.5</ele><time>2026-04-12T16:35:06Z</time></trkpt><trkpt lat="44.56254586113049" lon="8.940953906816642"><ele>402.0</ele><time>2026-04-12T16:35:07Z</time></trkpt><trkpt lat="44.56244429079625" lon="8.940841124633076"><ele>402.0</ele><time>2026-04-12T16:35:08Z</time></trkpt><trkpt lat="44.56233917667176" lon="8.940741246242492"><ele>402.0</ele><time>2026-04-12T16:35:09Z</time></trkpt><trkpt lat="44.56222413539497" lon="8.940656789780233"><ele>402.0</ele><time>2026-04-12T16:35:10Z</time></trkpt><trkpt lat="44.56210418470412" lon="8.940587763456351"><ele>402.0</ele><time>2026-04-12T16:35:11Z</time></trkpt><trkpt lat="44.56198436258765" lon="8.940527875982314"><ele>405.75</ele><time>2026-04-12T16:35:12Z</time></trkpt><trkpt lat="44.56186056510457" lon="8.94048394571395"><ele>409.5</ele><time>2026-04-12T16:35:13Z</time></trkpt><trkpt lat="44.56173638881632" lon="8.940452027611672"><ele>413.25</ele><time>2026-04-12T16:35:14Z</time></trkpt><trkpt lat="44.56161192015702" lon="8.940430515997631"><ele>417.0</ele><time>2026-04-12T16:35:15Z</time></trkpt><trkpt lat="44.56148798047911" lon="8.940419134363028"><ele>417.0</ele><time>2026-04-12T16:35:16Z</time></trkpt><trkpt lat="44.56136461364713" lon="8.940413626476474"><ele>417.0</ele><time>2026-04-12T16:35:17Z</time></trkpt><trkpt lat="44.56124315356849" lon="8.940405556793094"><ele>417.0</ele><time>2026-04-12T16:35:18Z</time></trkpt><trkpt lat="44.561120528584716" lon="8.940400776091128"><ele>417.0</ele><time>2026-04-12T16:35:19Z</time></trkpt><trkpt lat="44.56099807188229" lon="8.940394716013222"><ele>420.0</ele><time>2026-04-12T16:35:20Z</time></trkpt><trkpt lat="44.56087701365752" lon="8.94038709206997"><ele>423.0</ele><time>2026-04-12T16:35:21Z</time></trkpt><trkpt lat="44.56075642587144" lon="8.940380121385425"><ele>426.0</ele><time>2026-04-12T16:35:22Z</time></trkpt><trkpt lat="44.560637811143316" lon="8.940374205362426"><ele>429.0</ele><time>2026-04-12T16:35:23Z</time></trkpt><trkpt lat="44.560518988055684" lon="8.9403720412898"><ele>429.0</ele><time>2026-04-12T16:35:24Z</time></trkpt><trkpt lat="44.56040065528717" lon="8.940368523258307"><ele>429.0</ele><time>2026-04-12T16:35:25Z</time></trkpt><trkpt lat="44.56027893630123" lon="8.940363703174453"><ele>429.0</ele><time>2026-04-12T16:35:26Z</time></trkpt><trkpt lat="44.5601584706848" lon="8.940355698060534"><ele>429.0</ele><time>2026-04-12T16:35:27Z</time></trkpt><trkpt lat="44.560037169902955" lon="8.940351085854704"><ele>431.5</ele><time>2026-04-12T16:35:28Z</time></trkpt><trkpt lat="44.559915539752446" lon="8.940347248996556"><ele>434.0</ele><time>2026-04-12T16:35:29Z</time></trkpt><trkpt lat="44.55979600936954" lon="8.940340960102532"><ele>436.5</ele><time>2026-04-12T16:35:30Z</time></trkpt><trkpt lat="44.55968021017865" lon="8.940334577520854"><ele>439.0</ele><time>2026-04-12T16:35:31Z</time></trkpt><trkpt lat="44.559569333326564" lon="8.940335202086974"><ele>440.4</ele><time>2026-04-12T16:35:32Z</time></trkpt><trkpt lat="44.55946033783419" lon="8.940339714559528"><ele>441.79999999999995</ele><time>2026-04-12T16:35:33Z</time></trkpt><trkpt lat="44.559352148314716" lon="8.940335755688265"><ele>443.20000000000005</ele><time>2026-04-12T16:35:34Z</time></trkpt><trkpt lat="44.55924727377308" lon="8.94033367614966"><ele>444.6</ele><time>2026-04-12T16:35:35Z</time></trkpt><trkpt lat="44.55914153540311" lon="8.940307461215905"><ele>446.0</ele><time>2026-04-12T16:35:36Z</time></trkpt><trkpt lat="44.55903434098206" lon="8.940268371737861"><ele>446.0</ele><time>2026-04-12T16:35:37Z</time></trkpt><trkpt lat="44.55892718757194" lon="8.940216579946632"><ele>446.0</ele><time>2026-04-12T16:35:38Z</time></trkpt><trkpt lat="44.55882441609756" lon="8.940152761455128"><ele>446.0</ele><time>2026-04-12T16:35:39Z</time></trkpt><trkpt lat="44.55872031546736" lon="8.940093480493493"><ele>446.0</ele><time>2026-04-12T16:35:40Z</time></trkpt><trkpt lat="44.558613693397014" lon="8.940044692361223"><ele>442.5</ele><time>2026-04-12T16:35:41Z</time></trkpt><trkpt lat="44.55850532060649" lon="8.940000761954877"><ele>439.0</ele><time>2026-04-12T16:35:42Z</time></trkpt><trkpt lat="44.55839621179276" lon="8.939959790304483"><ele>435.5</ele><time>2026-04-12T16:35:43Z</time></trkpt><trkpt lat="44.55828277049079" lon="8.93992696277274"><ele>432.0</ele><time>2026-04-12T16:35:44Z</time></trkpt><trkpt lat="44.558166495855474" lon="8.939915457803128"><ele>432.0</ele><time>2026-04-12T16:35:45Z</time></trkpt><trkpt lat="44.558051615573866" lon="8.939922551032948"><ele>432.0</ele><time>2026-04-12T16:35:46Z</time></trkpt><trkpt lat="44.55794185263236" lon="8.939942991508273"><ele>432.0</ele><time>2026-04-12T16:35:47Z</time></trkpt><trkpt lat="44.55782842251049" lon="8.939970394791048"><ele>432.0</ele><time>2026-04-12T16:35:48Z</time></trkpt><trkpt lat="44.557716949575116" lon="8.939999145705558"><ele>433.5</ele><time>2026-04-12T16:35:49Z</time></trkpt><trkpt lat="44.5576022083847" lon="8.940028293615436"><ele>435.0</ele><time>2026-04-12T16:35:50Z</time></trkpt><trkpt lat="44.55748723333081" lon="8.940057202060244"><ele>436.5</ele><time>2026-04-12T16:35:51Z</time></trkpt><trkpt lat="44.55737208968334" lon="8.940089206812814"><ele>438.0</ele><time>2026-04-12T16:35:52Z</time></trkpt><trkpt lat="44.55725588371652" lon="8.94012256345711"><ele>442.59999999999997</ele><time>2026-04-12T16:35:53Z</time></trkpt><trkpt lat="44.55714302427252" lon="8.940154098925905"><ele>447.19999999999993</ele><time>2026-04-12T16:35:54Z</time></trkpt><trkpt lat="44.557032288583564" lon="8.94018523238921"><ele>451.8</ele><time>2026-04-12T16:35:55Z</time></trkpt><trkpt lat="44.55692443615099" lon="8.940210926273693"><ele>456.4</ele><time>2026-04-12T16:35:56Z</time></trkpt><trkpt lat="44.556819303088005" lon="8.940199290539875"><ele>461.0</ele><time>2026-04-12T16:35:57Z</time></trkpt><trkpt lat="44.55672224720724" lon="8.94013515809171"><ele>456.0</ele><time>2026-04-12T16:35:58Z</time></trkpt><trkpt lat="44.55663549305704" lon="8.940033755837574"><ele>451.0</ele><time>2026-04-12T16:35:59Z</time></trkpt><trkpt lat="44.556548993248164" lon="8.939917405155974"><ele>446.0</ele><time>2026-04-12T16:36:00Z</time></trkpt><trkpt lat="44.55645100726688" lon="8.939819003701768"><ele>441.0</ele><time>2026-04-12T16:36:01Z</time></trkpt><trkpt lat="44.55633131334963" lon="8.939724339535577"><ele>441.0</ele><time>2026-04-12T16:36:02Z</time></trkpt><trkpt lat="44.55620396840746" lon="8.939623850081269"><ele>441.0</ele><time>2026-04-12T16:36:03Z</time></trkpt><trkpt lat="44.55608861022926" lon="8.939470732983597"><ele>441.0</ele><time>2026-04-12T16:36:04Z</time></trkpt><trkpt lat="44.55598384602931" lon="8.939302854351928"><ele>444.66666666666663</ele><time>2026-04-12T16:36:05Z</time></trkpt><trkpt lat="44.55586050426744" lon="8.939146891472678"><ele>448.3333333333333</ele><time>2026-04-12T16:36:06Z</time></trkpt><trkpt lat="44.55571968132923" lon="8.939019371806173"><ele>452.0</ele><time>2026-04-12T16:36:07Z</time></trkpt><trkpt lat="44.55557578493035" lon="8.938905550879944"><ele>452.0</ele><time>2026-04-12T16:36:08Z</time></trkpt><trkpt lat="44.555436251981625" lon="8.938784952616585"><ele>452.0</ele><time>2026-04-12T16:36:09Z</time></trkpt><trkpt lat="44.555298556647315" lon="8.938656808791958"><ele>452.0</ele><time>2026-04-12T16:36:10Z</time></trkpt><trkpt lat="44.555155888257104" lon="8.938542278464505"><ele>453.3333333333333</ele><time>2026-04-12T16:36:11Z</time></trkpt><trkpt lat="44.55500393282212" lon="8.938451528204377"><ele>454.66666666666663</ele><time>2026-04-12T16:36:12Z</time></trkpt><trkpt lat="44.554845173533394" lon="8.938383510025943"><ele>456.0</ele><time>2026-04-12T16:36:13Z</time></trkpt><trkpt lat="44.5546825439032" lon="8.938336148009778"><ele>459.66666666666663</ele><time>2026-04-12T16:36:14Z</time></trkpt><trkpt lat="44.554519655495746" lon="8.938292325403413"><ele>463.3333333333333</ele><time>2026-04-12T16:36:15Z</time></trkpt><trkpt lat="44.5543623100555" lon="8.938244560132983"><ele>467.0</ele><time>2026-04-12T16:36:16Z</time></trkpt><trkpt lat="44.55420937751949" lon="8.93819067114816"><ele>467.0</ele><time>2026-04-12T16:36:17Z</time></trkpt><trkpt lat="44.55405691714217" lon="8.938133221262161"><ele>467.0</ele><time>2026-04-12T16:36:18Z</time></trkpt><trkpt lat="44.553918228946365" lon="8.938049578029972"><ele>467.0</ele><time>2026-04-12T16:36:19Z</time></trkpt><trkpt lat="44.553798164785114" lon="8.93792219210153"><ele>473.0</ele><time>2026-04-12T16:36:20Z</time></trkpt><trkpt lat="44.55366746553303" lon="8.937796442574474"><ele>479.0</ele><time>2026-04-12T16:36:21Z</time></trkpt><trkpt lat="44.55354202128085" lon="8.937668358560144"><ele>485.0</ele><time>2026-04-12T16:36:22Z</time></trkpt><trkpt lat="44.55342272743602" lon="8.93755669484771"><ele>481.75</ele><time>2026-04-12T16:36:23Z</time></trkpt><trkpt lat="44.553302281384774" lon="8.93744577463303"><ele>478.5</ele><time>2026-04-12T16:36:24Z</time></trkpt><trkpt lat="44.55317989279269" lon="8.937358492942117"><ele>475.25</ele><time>2026-04-12T16:36:25Z</time></trkpt><trkpt lat="44.5530489751716" lon="8.937293453321539"><ele>472.0</ele><time>2026-04-12T16:36:26Z</time></trkpt><trkpt lat="44.55291714188345" lon="8.937231167024725"><ele>473.75</ele><time>2026-04-12T16:36:27Z</time></trkpt><trkpt lat="44.55278457937417" lon="8.93716285956541"><ele>475.5</ele><time>2026-04-12T16:36:28Z</time></trkpt><trkpt lat="44.552647775663935" lon="8.937092527047122"><ele>477.25</ele><time>2026-04-12T16:36:29Z</time></trkpt><trkpt lat="44.552508678872115" lon="8.937027126363557"><ele>479.0</ele><time>2026-04-12T16:36:30Z</time></trkpt><trkpt lat="44.55236682131905" lon="8.93696002860497"><ele>479.0</ele><time>2026-04-12T16:36:31Z</time></trkpt><trkpt lat="44.55222606056459" lon="8.936891511904179"><ele>479.0</ele><time>2026-04-12T16:36:32Z</time></trkpt><trkpt lat="44.5520891387019" lon="8.936819203241582"><ele>479.0</ele><time>2026-04-12T16:36:33Z</time></trkpt><trkpt lat="44.55195344782539" lon="8.936753539072958"><ele>479.0</ele><time>2026-04-12T16:36:34Z</time></trkpt><trkpt lat="44.551820096118654" lon="8.936684297593153"><ele>476.75</ele><time>2026-04-12T16:36:35Z</time></trkpt><trkpt lat="44.55170066868665" lon="8.936597721257787"><ele>474.5</ele><time>2026-04-12T16:36:36Z</time></trkpt><trkpt lat="44.551591040152765" lon="8.936487948383196"><ele>472.25</ele><time>2026-04-12T16:36:37Z</time></trkpt><trkpt lat="44.55149140683714" lon="8.936357512073252"><ele>470.0</ele><time>2026-04-12T16:36:38Z</time></trkpt><trkpt lat="44.55139071953945" lon="8.936225690174009"><ele>470.0</ele><time>2026-04-12T16:36:39Z</time></trkpt><trkpt lat="44.551291834660475" lon="8.936093427993107"><ele>470.0</ele><time>2026-04-12T16:36:40Z</time></trkpt><trkpt lat="44.55119620883375" lon="8.93595911328829"><ele>470.0</ele><time>2026-04-12T16:36:41Z</time></trkpt><trkpt lat="44.551095170005325" lon="8.935828163572403"><ele>470.0</ele><time>2026-04-12T16:36:42Z</time></trkpt><trkpt lat="44.55099464885848" lon="8.935692616266728"><ele>468.5</ele><time>2026-04-12T16:36:43Z</time></trkpt><trkpt lat="44.55089812084153" lon="8.935555064080948"><ele>467.0</ele><time>2026-04-12T16:36:44Z</time></trkpt><trkpt lat="44.55079739080781" lon="8.935425001452401"><ele>465.5</ele><time>2026-04-12T16:36:45Z</time></trkpt><trkpt lat="44.550683086441" lon="8.935322077094044"><ele>464.0</ele><time>2026-04-12T16:36:46Z</time></trkpt><trkpt lat="44.550564416685354" lon="8.93522321088245"><ele>464.0</ele><time>2026-04-12T16:36:47Z</time></trkpt><trkpt lat="44.55042978459541" lon="8.93518306566235"><ele>464.0</ele><time>2026-04-12T16:36:48Z</time></trkpt><trkpt lat="44.550302715779566" lon="8.935122948292948"><ele>464.0</ele><time>2026-04-12T16:36:49Z</time></trkpt><trkpt lat="44.55017768472699" lon="8.935050164962169"><ele>464.0</ele><time>2026-04-12T16:36:50Z</time></trkpt><trkpt lat="44.55005886845618" lon="8.934959889202347"><ele>461.75</ele><time>2026-04-12T16:36:51Z</time></trkpt><trkpt lat="44.54995543349016" lon="8.934829421976104"><ele>459.5</ele><time>2026-04-12T16:36:52Z</time></trkpt><trkpt lat="44.549877512924965" lon="8.934674976866962"><ele>457.25</ele><time>2026-04-12T16:36:53Z</time></trkpt><trkpt lat="44.54981441020985" lon="8.934511434862829"><ele>455.0</ele><time>2026-04-12T16:36:54Z</time></trkpt><trkpt lat="44.54975849473197" lon="8.934344796339557"><ele>453.75</ele><time>2026-04-12T16:36:55Z</time></trkpt><trkpt lat="44.54969692003609" lon="8.934188795952208"><ele>452.5</ele><time>2026-04-12T16:36:56Z</time></trkpt><trkpt lat="44.54961291502195" lon="8.934061748149512"><ele>451.25</ele><time>2026-04-12T16:36:57Z</time></trkpt><trkpt lat="44.549508959670135" lon="8.933976426553418"><ele>450.0</ele><time>2026-04-12T16:36:58Z</time></trkpt><trkpt lat="44.549385303260905" lon="8.933942818838382"><ele>450.0</ele><time>2026-04-12T16:36:59Z</time></trkpt><trkpt lat="44.549256271263694" lon="8.933975226739399"><ele>450.0</ele><time>2026-04-12T16:37:00Z</time></trkpt><trkpt lat="44.54912998681819" lon="8.934038711916406"><ele>450.0</ele><time>2026-04-12T16:37:01Z</time></trkpt><trkpt lat="44.54900393101532" lon="8.934117601337324"><ele>450.0</ele><time>2026-04-12T16:37:02Z</time></trkpt><trkpt lat="44.548875601864346" lon="8.934193533343487"><ele>450.0</ele><time>2026-04-12T16:37:03Z</time></trkpt><trkpt lat="44.548739723451014" lon="8.934216254145984"><ele>450.0</ele><time>2026-04-12T16:37:04Z</time></trkpt><trkpt lat="44.548610656657665" lon="8.934214273140308"><ele>450.0</ele><time>2026-04-12T16:37:05Z</time></trkpt><trkpt lat="44.54848423330999" lon="8.934144103639728"><ele>450.0</ele><time>2026-04-12T16:37:06Z</time></trkpt><trkpt lat="44.54837301176782" lon="8.934032396915734"><ele>449.0</ele><time>2026-04-12T16:37:07Z</time></trkpt><trkpt lat="44.54829114297357" lon="8.933884650834212"><ele>448.0</ele><time>2026-04-12T16:37:08Z</time></trkpt><trkpt lat="44.54823986935379" lon="8.933706752280166"><ele>447.0</ele><time>2026-04-12T16:37:09Z</time></trkpt><trkpt lat="44.5482546850059" lon="8.933502348677418"><ele>446.0</ele><time>2026-04-12T16:37:10Z</time></trkpt><trkpt lat="44.54828191786283" lon="8.933311192976271"><ele>446.0</ele><time>2026-04-12T16:37:11Z</time></trkpt><trkpt lat="44.54834422270786" lon="8.933140713039426"><ele>446.0</ele><time>2026-04-12T16:37:12Z</time></trkpt><trkpt lat="44.54843737249471" lon="8.93300004867142"><ele>446.0</ele><time>2026-04-12T16:37:13Z</time></trkpt><trkpt lat="44.54853678621777" lon="8.932875779448437"><ele>446.0</ele><time>2026-04-12T16:37:14Z</time></trkpt><trkpt lat="44.54864740949621" lon="8.932755561300606"><ele>448.0</ele><time>2026-04-12T16:37:15Z</time></trkpt><trkpt lat="44.548753279212455" lon="8.932638147892408"><ele>450.0</ele><time>2026-04-12T16:37:16Z</time></trkpt><trkpt lat="44.54885349822146" lon="8.932524713003968"><ele>452.0</ele><time>2026-04-12T16:37:17Z</time></trkpt><trkpt lat="44.548948854979294" lon="8.932419168037313"><ele>454.0</ele><time>2026-04-12T16:37:18Z</time></trkpt><trkpt lat="44.549020520261024" lon="8.932288663586055"><ele>454.0</ele><time>2026-04-12T16:37:19Z</time></trkpt><trkpt lat="44.54906268342112" lon="8.932127736708695"><ele>454.0</ele><time>2026-04-12T16:37:20Z</time></trkpt><trkpt lat="44.549064593061225" lon="8.931954811977544"><ele>454.0</ele><time>2026-04-12T16:37:21Z</time></trkpt><trkpt lat="44.549014800309585" lon="8.931786397312726"><ele>454.0</ele><time>2026-04-12T16:37:22Z</time></trkpt><trkpt lat="44.54894391299187" lon="8.93164531071748"><ele>452.4</ele><time>2026-04-12T16:37:23Z</time></trkpt><trkpt lat="44.548853459034355" lon="8.93153214219843"><ele>450.79999999999995</ele><time>2026-04-12T16:37:24Z</time></trkpt><trkpt lat="44.54877958661408" lon="8.931413289398192"><ele>449.20000000000005</ele><time>2026-04-12T16:37:25Z</time></trkpt><trkpt lat="44.54875354435983" lon="8.93128060896755"><ele>447.6</ele><time>2026-04-12T16:37:26Z</time></trkpt><trkpt lat="44.54877765135402" lon="8.931142278035741"><ele>446.0</ele><time>2026-04-12T16:37:27Z</time></trkpt><trkpt lat="44.548848948744265" lon="8.931054325606592"><ele>446.0</ele><time>2026-04-12T16:37:28Z</time></trkpt><trkpt lat="44.548944658120384" lon="8.931013018524807"><ele>446.0</ele><time>2026-04-12T16:37:29Z</time></trkpt><trkpt lat="44.54904747799221" lon="8.930995964574118"><ele>446.0</ele><time>2026-04-12T16:37:30Z</time></trkpt><trkpt lat="44.54913950681043" lon="8.930941933146256"><ele>446.0</ele><time>2026-04-12T16:37:31Z</time></trkpt><trkpt lat="44.549213798825" lon="8.930840552874303"><ele>446.0</ele><time>2026-04-12T16:37:32Z</time></trkpt><trkpt lat="44.54925156567763" lon="8.930686039568366"><ele>444.0</ele><time>2026-04-12T16:37:33Z</time></trkpt><trkpt lat="44.54925510081002" lon="8.930510040101417"><ele>442.0</ele><time>2026-04-12T16:37:34Z</time></trkpt><trkpt lat="44.54923396953957" lon="8.930336915519774"><ele>440.0</ele><time>2026-04-12T16:37:35Z</time></trkpt><trkpt lat="44.54922930608331" lon="8.930147073669382"><ele>438.0</ele><time>2026-04-12T16:37:36Z</time></trkpt><trkpt lat="44.54925294734723" lon="8.929956252609003"><ele>434.0</ele><time>2026-04-12T16:37:37Z</time></trkpt><trkpt lat="44.5492995128028" lon="8.929778966624419"><ele>430.0</ele><time>2026-04-12T16:37:38Z</time></trkpt><trkpt lat="44.54935738092413" lon="8.92961356855945"><ele>426.0</ele><time>2026-04-12T16:37:39Z</time></trkpt><trkpt lat="44.5494425719651" lon="8.929474425437427"><ele>422.0</ele><time>2026-04-12T16:37:40Z</time></trkpt><trkpt lat="44.54954286861083" lon="8.929358214671003"><ele>426.25</ele><time>2026-04-12T16:37:41Z</time></trkpt><trkpt lat="44.54964579142435" lon="8.92924988879675"><ele>430.5</ele><time>2026-04-12T16:37:42Z</time></trkpt><trkpt lat="44.549735569778676" lon="8.929132215622626"><ele>434.75</ele><time>2026-04-12T16:37:43Z</time></trkpt><trkpt lat="44.549796116442266" lon="8.928978584961525"><ele>439.0</ele><time>2026-04-12T16:37:44Z</time></trkpt><trkpt lat="44.54981964459663" lon="8.92879208421139"><ele>439.0</ele><time>2026-04-12T16:37:45Z</time></trkpt><trkpt lat="44.549814276448615" lon="8.92859779871267"><ele>439.0</ele><time>2026-04-12T16:37:46Z</time></trkpt><trkpt lat="44.54979773023466" lon="8.928401296441049"><ele>439.0</ele><time>2026-04-12T16:37:47Z</time></trkpt><trkpt lat="44.54978890234578" lon="8.928202559133025"><ele>439.0</ele><time>2026-04-12T16:37:48Z</time></trkpt><trkpt lat="44.54977893309763" lon="8.928003523525321"><ele>436.5</ele><time>2026-04-12T16:37:49Z</time></trkpt><trkpt lat="44.54977540172819" lon="8.927806615806196"><ele>434.0</ele><time>2026-04-12T16:37:50Z</time></trkpt><trkpt lat="44.5497607788409" lon="8.927616398528787"><ele>431.5</ele><time>2026-04-12T16:37:51Z</time></trkpt><trkpt lat="44.54972163751627" lon="8.92743275513999"><ele>429.0</ele><time>2026-04-12T16:37:52Z</time></trkpt><trkpt lat="44.549650722491215" lon="8.927261031241773"><ele>429.0</ele><time>2026-04-12T16:37:53Z</time></trkpt><trkpt lat="44.54955745857712" lon="8.927101639790887"><ele>429.0</ele><time>2026-04-12T16:37:54Z</time></trkpt><trkpt lat="44.54944880174296" lon="8.926951577315911"><ele>429.0</ele><time>2026-04-12T16:37:55Z</time></trkpt><trkpt lat="44.549336368282695" lon="8.92680113360665"><ele>423.75</ele><time>2026-04-12T16:37:56Z</time></trkpt><trkpt lat="44.54923539352466" lon="8.926648084208006"><ele>418.5</ele><time>2026-04-12T16:37:57Z</time></trkpt><trkpt lat="44.54913559822405" lon="8.92649734935355"><ele>413.25</ele><time>2026-04-12T16:37:58Z</time></trkpt><trkpt lat="44.549035570213256" lon="8.92635102292059"><ele>408.0</ele><time>2026-04-12T16:37:59Z</time></trkpt><trkpt lat="44.54894397994417" lon="8.926220976007084"><ele>408.0</ele><time>2026-04-12T16:38:00Z</time></trkpt><trkpt lat="44.548858194923035" lon="8.926117178119368"><ele>408.0</ele><time>2026-04-12T16:38:01Z</time></trkpt><trkpt lat="44.548768116608535" lon="8.926044277044594"><ele>408.0</ele><time>2026-04-12T16:38:02Z</time></trkpt><trkpt lat="44.54866879199961" lon="8.926016128544846"><ele>408.0</ele><time>2026-04-12T16:38:03Z</time></trkpt><trkpt lat="44.548577440448575" lon="8.926033481945689"><ele>408.0</ele><time>2026-04-12T16:38:04Z</time></trkpt><trkpt lat="44.548506377444056" lon="8.926094354125462"><ele>408.0</ele><time>2026-04-12T16:38:05Z</time></trkpt><trkpt lat="44.54846960854037" lon="8.926197731431573"><ele>408.0</ele><time>2026-04-12T16:38:06Z</time></trkpt><trkpt lat="44.548477168049715" lon="8.926326453079684"><ele>408.0</ele><time>2026-04-12T16:38:07Z</time></trkpt><trkpt lat="44.54853737792533" lon="8.926457521921087"><ele>408.0</ele><time>2026-04-12T16:38:08Z</time></trkpt><trkpt lat="44.548626843263754" lon="8.926568883748983"><ele>408.0</ele><time>2026-04-12T16:38:09Z</time></trkpt><trkpt lat="44.54871445623913" lon="8.926700001737338"><ele>406.75</ele><time>2026-04-12T16:38:10Z</time></trkpt><trkpt lat="44.54879833630254" lon="8.926845232251583"><ele>405.5</ele><time>2026-04-12T16:38:11Z</time></trkpt><trkpt lat="44.54886592781048" lon="8.92701283292756"><ele>404.25</ele><time>2026-04-12T16:38:12Z</time></trkpt><trkpt lat="44.548885242503395" lon="8.927207690320602"><ele>403.0</ele><time>2026-04-12T16:38:13Z</time></trkpt><trkpt lat="44.548879086073725" lon="8.927405792986661"><ele>402.75</ele><time>2026-04-12T16:38:14Z</time></trkpt><trkpt lat="44.54886574617625" lon="8.92759678515108"><ele>402.5</ele><time>2026-04-12T16:38:15Z</time></trkpt><trkpt lat="44.54884160538499" lon="8.927785831336635"><ele>402.25</ele><time>2026-04-12T16:38:16Z</time></trkpt><trkpt lat="44.54879268024158" lon="8.927959343821028"><ele>402.0</ele><time>2026-04-12T16:38:17Z</time></trkpt><trkpt lat="44.54872485254831" lon="8.928110847642344"><ele>394.25</ele><time>2026-04-12T16:38:18Z</time></trkpt><trkpt lat="44.54866095063212" lon="8.928246803272861"><ele>386.5</ele><time>2026-04-12T16:38:19Z</time></trkpt><trkpt lat="44.54863139749241" lon="8.928393150322226"><ele>378.75</ele><time>2026-04-12T16:38:20Z</time></trkpt><trkpt lat="44.54863935386907" lon="8.928554384904508"><ele>371.0</ele><time>2026-04-12T16:38:21Z</time></trkpt><trkpt lat="44.54868952749985" lon="8.928700797762366"><ele>378.75</ele><time>2026-04-12T16:38:22Z</time></trkpt><trkpt lat="44.548756932330534" lon="8.92883482031"><ele>386.5</ele><time>2026-04-12T16:38:23Z</time></trkpt><trkpt lat="44.54880112290422" lon="8.928984821799084"><ele>394.25</ele><time>2026-04-12T16:38:24Z</time></trkpt><trkpt lat="44.548809682922226" lon="8.929143255366808"><ele>402.0</ele><time>2026-04-12T16:38:25Z</time></trkpt><trkpt lat="44.54877728028949" lon="8.92930407140918"><ele>397.25</ele><time>2026-04-12T16:38:26Z</time></trkpt><trkpt lat="44.54867928735319" lon="8.929450598075421"><ele>392.5</ele><time>2026-04-12T16:38:27Z</time></trkpt><trkpt lat="44.54859933566047" lon="8.929610142108265"><ele>387.75</ele><time>2026-04-12T16:38:28Z</time></trkpt><trkpt lat="44.54849598698039" lon="8.929755158613634"><ele>383.0</ele><time>2026-04-12T16:38:29Z</time></trkpt><trkpt lat="44.548393259954736" lon="8.929895843761114"><ele>383.0</ele><time>2026-04-12T16:38:30Z</time></trkpt><trkpt lat="44.5482808853283" lon="8.930020582401044"><ele>383.0</ele><time>2026-04-12T16:38:31Z</time></trkpt><trkpt lat="44.548163361801656" lon="8.930138281336179"><ele>383.0</ele><time>2026-04-12T16:38:32Z</time></trkpt><trkpt lat="44.548043112572984" lon="8.930240280494152"><ele>383.0</ele><time>2026-04-12T16:38:33Z</time></trkpt><trkpt lat="44.54792063096702" lon="8.93032304519508"><ele>381.5</ele><time>2026-04-12T16:38:34Z</time></trkpt><trkpt lat="44.54780207144999" lon="8.93041000204859"><ele>380.0</ele><time>2026-04-12T16:38:35Z</time></trkpt><trkpt lat="44.54769370129183" lon="8.930524095060395"><ele>378.5</ele><time>2026-04-12T16:38:36Z</time></trkpt><trkpt lat="44.547596336415005" lon="8.930657081506148"><ele>377.0</ele><time>2026-04-12T16:38:37Z</time></trkpt><trkpt lat="44.547517833338205" lon="8.93081620957018"><ele>380.75</ele><time>2026-04-12T16:38:38Z</time></trkpt><trkpt lat="44.547458337405004" lon="8.930992222349115"><ele>384.5</ele><time>2026-04-12T16:38:39Z</time></trkpt><trkpt lat="44.54740073657859" lon="8.931172922671966"><ele>388.25</ele><time>2026-04-12T16:38:40Z</time></trkpt><trkpt lat="44.5473208526358" lon="8.931327702434427"><ele>392.0</ele><time>2026-04-12T16:38:41Z</time></trkpt><trkpt lat="44.54722231845154" lon="8.931457490688466"><ele>392.0</ele><time>2026-04-12T16:38:42Z</time></trkpt><trkpt lat="44.54711326731679" lon="8.93156789151718"><ele>392.0</ele><time>2026-04-12T16:38:43Z</time></trkpt><trkpt lat="44.54699355640067" lon="8.93164153894938"><ele>392.0</ele><time>2026-04-12T16:38:44Z</time></trkpt><trkpt lat="44.546867636314396" lon="8.931679824313372"><ele>392.0</ele><time>2026-04-12T16:38:45Z</time></trkpt><trkpt lat="44.54674580991122" lon="8.931697940964959"><ele>390.5</ele><time>2026-04-12T16:38:46Z</time></trkpt><trkpt lat="44.546624956026776" lon="8.931714124228474"><ele>389.0</ele><time>2026-04-12T16:38:47Z</time></trkpt><trkpt lat="44.5465047822849" lon="8.931747313639432"><ele>387.5</ele><time>2026-04-12T16:38:48Z</time></trkpt><trkpt lat="44.54639060948611" lon="8.931833895102784"><ele>386.0</ele><time>2026-04-12T16:38:49Z</time></trkpt><trkpt lat="44.546283522966114" lon="8.93194508367699"><ele>380.25</ele><time>2026-04-12T16:38:50Z</time></trkpt><trkpt lat="44.546180945834664" lon="8.932077269561963"><ele>374.5</ele><time>2026-04-12T16:38:51Z</time></trkpt><trkpt lat="44.54608230879639" lon="8.932209732696155"><ele>368.75</ele><time>2026-04-12T16:38:52Z</time></trkpt><trkpt lat="44.54598612463366" lon="8.932337727680814"><ele>363.0</ele><time>2026-04-12T16:38:53Z</time></trkpt><trkpt lat="44.54589352793376" lon="8.932456353345254"><ele>363.0</ele><time>2026-04-12T16:38:54Z</time></trkpt><trkpt lat="44.54581784276734" lon="8.932576528040595"><ele>363.0</ele><time>2026-04-12T16:38:55Z</time></trkpt><trkpt lat="44.54577345223547" lon="8.9327117789984"><ele>363.0</ele><time>2026-04-12T16:38:56Z</time></trkpt><trkpt lat="44.54575395999726" lon="8.932826589777262"><ele>363.0</ele><time>2026-04-12T16:38:57Z</time></trkpt><trkpt lat="44.5457489677005" lon="8.932923294819666"><ele>363.0</ele><time>2026-04-12T16:38:58Z</time></trkpt><trkpt lat="44.54578049397909" lon="8.933114491557"><ele>363.0</ele><time>2026-04-12T16:39:00Z</time></trkpt><trkpt lat="44.54581678486614" lon="8.933231597069742"><ele>363.0</ele><time>2026-04-12T16:39:01Z</time></trkpt><trkpt lat="44.545859939600696" lon="8.933364483596515"><ele>363.0</ele><time>2026-04-12T16:39:02Z</time></trkpt><trkpt lat="44.545902173016586" lon="8.9335097648375"><ele>363.0</ele><time>2026-04-12T16:39:03Z</time></trkpt><trkpt lat="44.54594923063792" lon="8.93366925350786"><ele>363.0</ele><time>2026-04-12T16:39:04Z</time></trkpt><trkpt lat="44.54599936563806" lon="8.933828497827959"><ele>362.75</ele><time>2026-04-12T16:39:05Z</time></trkpt><trkpt lat="44.546048156087096" lon="8.933991312587715"><ele>362.5</ele><time>2026-04-12T16:39:06Z</time></trkpt><trkpt lat="44.54609717547902" lon="8.934156345740387"><ele>362.25</ele><time>2026-04-12T16:39:07Z</time></trkpt><trkpt lat="44.546147323713605" lon="8.934318864087551"><ele>362.0</ele><time>2026-04-12T16:39:08Z</time></trkpt><trkpt lat="44.54616972517281" lon="8.934481522006543"><ele>362.0</ele><time>2026-04-12T16:39:09Z</time></trkpt><trkpt lat="44.54619876755303" lon="8.934636163495618"><ele>362.0</ele><time>2026-04-12T16:39:10Z</time></trkpt><trkpt lat="44.546180132340005" lon="8.934796016839407"><ele>362.0</ele><time>2026-04-12T16:39:11Z</time></trkpt><trkpt lat="44.54612864857303" lon="8.934947640914187"><ele>362.0</ele><time>2026-04-12T16:39:12Z</time></trkpt><trkpt lat="44.54604637000409" lon="8.935078610228556"><ele>359.5</ele><time>2026-04-12T16:39:13Z</time></trkpt><trkpt lat="44.5459391660302" lon="8.935187871645633"><ele>357.0</ele><time>2026-04-12T16:39:14Z</time></trkpt><trkpt lat="44.545821196440826" lon="8.93528609838092"><ele>354.5</ele><time>2026-04-12T16:39:15Z</time></trkpt><trkpt lat="44.54570264628467" lon="8.93539281767082"><ele>352.0</ele><time>2026-04-12T16:39:16Z</time></trkpt><trkpt lat="44.54558728776403" lon="8.9355093480616"><ele>352.0</ele><time>2026-04-12T16:39:17Z</time></trkpt><trkpt lat="44.545477244211376" lon="8.935636717039943"><ele>352.0</ele><time>2026-04-12T16:39:18Z</time></trkpt><trkpt lat="44.545370643247836" lon="8.935777145942922"><ele>352.0</ele><time>2026-04-12T16:39:19Z</time></trkpt><trkpt lat="44.54526565949587" lon="8.935923665114808"><ele>352.0</ele><time>2026-04-12T16:39:20Z</time></trkpt><trkpt lat="44.54516155593205" lon="8.936066441943344"><ele>351.0</ele><time>2026-04-12T16:39:21Z</time></trkpt><trkpt lat="44.54506344468071" lon="8.936211763061221"><ele>350.0</ele><time>2026-04-12T16:39:22Z</time></trkpt><trkpt lat="44.544968539182754" lon="8.936358251800842"><ele>349.0</ele><time>2026-04-12T16:39:23Z</time></trkpt><trkpt lat="44.54487383659277" lon="8.936501486041708"><ele>348.0</ele><time>2026-04-12T16:39:24Z</time></trkpt><trkpt lat="44.54477892255624" lon="8.93663677123277"><ele>344.75</ele><time>2026-04-12T16:39:25Z</time></trkpt><trkpt lat="44.544691696024074" lon="8.936772395131376"><ele>341.5</ele><time>2026-04-12T16:39:26Z</time></trkpt><trkpt lat="44.54461109948459" lon="8.93690637367255"><ele>338.25</ele><time>2026-04-12T16:39:27Z</time></trkpt><trkpt lat="44.54453131825105" lon="8.93701971528684"><ele>335.0</ele><time>2026-04-12T16:39:28Z</time></trkpt><trkpt lat="44.544440861797284" lon="8.937101508323504"><ele>335.0</ele><time>2026-04-12T16:39:29Z</time></trkpt><trkpt lat="44.54434113811799" lon="8.937142311892682"><ele>335.0</ele><time>2026-04-12T16:39:30Z</time></trkpt><trkpt lat="44.54423978755028" lon="8.937136138395932"><ele>335.0</ele><time>2026-04-12T16:39:31Z</time></trkpt><trkpt lat="44.5441410760683" lon="8.937055661557606"><ele>335.0</ele><time>2026-04-12T16:39:32Z</time></trkpt><trkpt lat="44.54405256739713" lon="8.93691892485326"><ele>335.0</ele><time>2026-04-12T16:39:33Z</time></trkpt><trkpt lat="44.54397546153403" lon="8.936754081612351"><ele>335.0</ele><time>2026-04-12T16:39:34Z</time></trkpt><trkpt lat="44.54388468566097" lon="8.936591935076548"><ele>335.0</ele><time>2026-04-12T16:39:35Z</time></trkpt><trkpt lat="44.54378369112267" lon="8.936436053435987"><ele>335.0</ele><time>2026-04-12T16:39:36Z</time></trkpt><trkpt lat="44.54368042901265" lon="8.936285980210007"><ele>335.75</ele><time>2026-04-12T16:39:37Z</time></trkpt><trkpt lat="44.543574432066755" lon="8.936141346648228"><ele>336.5</ele><time>2026-04-12T16:39:38Z</time></trkpt><trkpt lat="44.54346977646322" lon="8.935995978566769"><ele>337.25</ele><time>2026-04-12T16:39:39Z</time></trkpt><trkpt lat="44.5433657053306" lon="8.9358561105849"><ele>338.0</ele><time>2026-04-12T16:39:40Z</time></trkpt><trkpt lat="44.54326222865014" lon="8.935716438481828"><ele>338.0</ele><time>2026-04-12T16:39:41Z</time></trkpt><trkpt lat="44.54315951521632" lon="8.935582609814265"><ele>338.0</ele><time>2026-04-12T16:39:42Z</time></trkpt><trkpt lat="44.54305721558943" lon="8.935452975354321"><ele>338.0</ele><time>2026-04-12T16:39:43Z</time></trkpt><trkpt lat="44.54295411936342" lon="8.935328662484128"><ele>338.0</ele><time>2026-04-12T16:39:44Z</time></trkpt><trkpt lat="44.54283695058668" lon="8.935233189937117"><ele>334.75</ele><time>2026-04-12T16:39:45Z</time></trkpt><trkpt lat="44.54270557549673" lon="8.93517049254411"><ele>331.5</ele><time>2026-04-12T16:39:46Z</time></trkpt><trkpt lat="44.54256947172424" lon="8.935130589037636"><ele>328.25</ele><time>2026-04-12T16:39:47Z</time></trkpt><trkpt lat="44.542435376717215" lon="8.93507981401206"><ele>325.0</ele><time>2026-04-12T16:39:48Z</time></trkpt><trkpt lat="44.542311531454736" lon="8.934988969848003"><ele>325.0</ele><time>2026-04-12T16:39:49Z</time></trkpt><trkpt lat="44.54219900433888" lon="8.934877267858926"><ele>325.0</ele><time>2026-04-12T16:39:50Z</time></trkpt><trkpt lat="44.54209424986983" lon="8.934757801708244"><ele>325.0</ele><time>2026-04-12T16:39:51Z</time></trkpt><trkpt lat="44.54199967050933" lon="8.934634882797328"><ele>325.0</ele><time>2026-04-12T16:39:52Z</time></trkpt><trkpt lat="44.54191625816214" lon="8.934507777629268"><ele>322.0</ele><time>2026-04-12T16:39:53Z</time></trkpt><trkpt lat="44.541863454841575" lon="8.934360034630423"><ele>319.0</ele><time>2026-04-12T16:39:54Z</time></trkpt><trkpt lat="44.54184161365645" lon="8.934187492167151"><ele>316.0</ele><time>2026-04-12T16:39:55Z</time></trkpt><trkpt lat="44.54185468699014" lon="8.934004153161219"><ele>313.0</ele><time>2026-04-12T16:39:56Z</time></trkpt><trkpt lat="44.54188455435319" lon="8.93381923316736"><ele>312.75</ele><time>2026-04-12T16:39:57Z</time></trkpt><trkpt lat="44.54192604880366" lon="8.93363536808142"><ele>312.5</ele><time>2026-04-12T16:39:58Z</time></trkpt><trkpt lat="44.54196872559435" lon="8.933449842589248"><ele>312.25</ele><time>2026-04-12T16:39:59Z</time></trkpt><trkpt lat="44.54201349747332" lon="8.933269870564736"><ele>312.0</ele><time>2026-04-12T16:40:00Z</time></trkpt><trkpt lat="44.54207457962373" lon="8.93309838434967"><ele>310.5</ele><time>2026-04-12T16:40:01Z</time></trkpt><trkpt lat="44.54215500675336" lon="8.932939450468435"><ele>309.0</ele><time>2026-04-12T16:40:02Z</time></trkpt><trkpt lat="44.54224984330247" lon="8.932797836284328"><ele>307.5</ele><time>2026-04-12T16:40:03Z</time></trkpt><trkpt lat="44.54234924020509" lon="8.932674092285792"><ele>306.0</ele><time>2026-04-12T16:40:04Z</time></trkpt><trkpt lat="44.542441712255446" lon="8.932546835968731"><ele>306.0</ele><time>2026-04-12T16:40:05Z</time></trkpt><trkpt lat="44.542548139570286" lon="8.932451390379029"><ele>306.0</ele><time>2026-04-12T16:40:06Z</time></trkpt><trkpt lat="44.54263935737972" lon="8.932340521684598"><ele>306.0</ele><time>2026-04-12T16:40:07Z</time></trkpt><trkpt lat="44.54275127213409" lon="8.932293568128548"><ele>306.0</ele><time>2026-04-12T16:40:08Z</time></trkpt><trkpt lat="44.5428685591671" lon="8.93228645187286"><ele>306.6</ele><time>2026-04-12T16:40:09Z</time></trkpt><trkpt lat="44.54298090066346" lon="8.932320072253225"><ele>307.20000000000005</ele><time>2026-04-12T16:40:10Z</time></trkpt><trkpt lat="44.54308496901315" lon="8.932381278759754"><ele>307.79999999999995</ele><time>2026-04-12T16:40:11Z</time></trkpt><trkpt lat="44.543187044137696" lon="8.932434837913553"><ele>308.4</ele><time>2026-04-12T16:40:12Z</time></trkpt><trkpt lat="44.543289399709565" lon="8.932459946252937"><ele>309.0</ele><time>2026-04-12T16:40:13Z</time></trkpt><trkpt lat="44.5433787949762" lon="8.93245765524982"><ele>309.0</ele><time>2026-04-12T16:40:14Z</time></trkpt><trkpt lat="44.5434669679305" lon="8.93243842102973"><ele>309.0</ele><time>2026-04-12T16:40:15Z</time></trkpt><trkpt lat="44.54354309810745" lon="8.932390600795225"><ele>309.0</ele><time>2026-04-12T16:40:16Z</time></trkpt><trkpt lat="44.54360278502937" lon="8.932312526834187"><ele>309.0</ele><time>2026-04-12T16:40:17Z</time></trkpt><trkpt lat="44.543636792716306" lon="8.932206183783398"><ele>309.0</ele><time>2026-04-12T16:40:18Z</time></trkpt><trkpt lat="44.54364691506483" lon="8.932085659792017"><ele>309.0</ele><time>2026-04-12T16:40:19Z</time></trkpt><trkpt lat="44.543640166118706" lon="8.931966404185156"><ele>309.0</ele><time>2026-04-12T16:40:20Z</time></trkpt><trkpt lat="44.54362965884254" lon="8.931842892471288"><ele>309.0</ele><time>2026-04-12T16:40:21Z</time></trkpt><trkpt lat="44.54362051216692" lon="8.931721514690052"><ele>309.0</ele><time>2026-04-12T16:40:22Z</time></trkpt><trkpt lat="44.543633487716676" lon="8.931606893043009"><ele>309.0</ele><time>2026-04-12T16:40:23Z</time></trkpt><trkpt lat="44.543673302231625" lon="8.931515915636293"><ele>309.0</ele><time>2026-04-12T16:40:24Z</time></trkpt><trkpt lat="44.54374925846177" lon="8.93148455439545"><ele>309.0</ele><time>2026-04-12T16:40:25Z</time></trkpt><trkpt lat="44.54382371650057" lon="8.931452076554361"><ele>309.0</ele><time>2026-04-12T16:40:26Z</time></trkpt><trkpt lat="44.54390095931812" lon="8.931467775228604"><ele>309.0</ele><time>2026-04-12T16:40:27Z</time></trkpt><trkpt lat="44.54397588020432" lon="8.93148319929152"><ele>309.0</ele><time>2026-04-12T16:40:28Z</time></trkpt><trkpt lat="44.54405425822628" lon="8.931476162143461"><ele>309.0</ele><time>2026-04-12T16:40:29Z</time></trkpt><trkpt lat="44.544127134274234" lon="8.931429775027532"><ele>309.0</ele><time>2026-04-12T16:40:30Z</time></trkpt><trkpt lat="44.54418070474706" lon="8.931342560044081"><ele>309.0</ele><time>2026-04-12T16:40:31Z</time></trkpt><trkpt lat="44.54420367195685" lon="8.931224536828976"><ele>309.0</ele><time>2026-04-12T16:40:32Z</time></trkpt><trkpt lat="44.54419788196028" lon="8.93109008604175"><ele>309.0</ele><time>2026-04-12T16:40:33Z</time></trkpt><trkpt lat="44.5441689266362" lon="8.930955074251898"><ele>309.0</ele><time>2026-04-12T16:40:34Z</time></trkpt><trkpt lat="44.544137800385606" lon="8.930818689405596"><ele>309.0</ele><time>2026-04-12T16:40:35Z</time></trkpt><trkpt lat="44.54410859668989" lon="8.930678333020522"><ele>309.0</ele><time>2026-04-12T16:40:36Z</time></trkpt><trkpt lat="44.54408181428465" lon="8.930535833660773"><ele>306.0</ele><time>2026-04-12T16:40:37Z</time></trkpt><trkpt lat="44.544053277431146" lon="8.93039357664221"><ele>303.0</ele><time>2026-04-12T16:40:38Z</time></trkpt><trkpt lat="44.544022916720195" lon="8.930255502072"><ele>300.0</ele><time>2026-04-12T16:40:39Z</time></trkpt><trkpt lat="44.5439976224344" lon="8.930122379227223"><ele>297.0</ele><time>2026-04-12T16:40:40Z</time></trkpt><trkpt lat="44.54397996968085" lon="8.929988632967367"><ele>294.0</ele><time>2026-04-12T16:40:41Z</time></trkpt><trkpt lat="44.54397486515547" lon="8.92985307737886"><ele>292.8</ele><time>2026-04-12T16:40:42Z</time></trkpt><trkpt lat="44.54398236859708" lon="8.929718408132029"><ele>291.59999999999997</ele><time>2026-04-12T16:40:43Z</time></trkpt><trkpt lat="44.54399999137169" lon="8.929587159943155"><ele>290.4</ele><time>2026-04-12T16:40:44Z</time></trkpt><trkpt lat="44.544028065225234" lon="8.929462603519026"><ele>289.2</ele><time>2026-04-12T16:40:45Z</time></trkpt><trkpt lat="44.54407697671691" lon="8.929360489686317"><ele>288.0</ele><time>2026-04-12T16:40:46Z</time></trkpt><trkpt lat="44.544151208121185" lon="8.929283202926353"><ele>288.0</ele><time>2026-04-12T16:40:47Z</time></trkpt><trkpt lat="44.544246458135504" lon="8.929240747534205"><ele>288.0</ele><time>2026-04-12T16:40:48Z</time></trkpt><trkpt lat="44.54434975296533" lon="8.929236564393008"><ele>288.0</ele><time>2026-04-12T16:40:49Z</time></trkpt><trkpt lat="44.54445146605175" lon="8.929251000834025"><ele>288.0</ele><time>2026-04-12T16:40:50Z</time></trkpt><trkpt lat="44.54454991294888" lon="8.929264567718683"><ele>288.0</ele><time>2026-04-12T16:40:51Z</time></trkpt><trkpt lat="44.54464207013088" lon="8.929260374377892"><ele>287.1666666666667</ele><time>2026-04-12T16:40:52Z</time></trkpt><trkpt lat="44.544725167874205" lon="8.929239160838971"><ele>286.3333333333333</ele><time>2026-04-12T16:40:53Z</time></trkpt><trkpt lat="44.544789877668336" lon="8.929182425833224"><ele>285.5</ele><time>2026-04-12T16:40:54Z</time></trkpt><trkpt lat="44.54484045669418" lon="8.929087598488628"><ele>284.66666666666663</ele><time>2026-04-12T16:40:55Z</time></trkpt><trkpt lat="44.544862905719626" lon="8.928968254080239"><ele>283.8333333333333</ele><time>2026-04-12T16:40:56Z</time></trkpt><trkpt lat="44.54485676077338" lon="8.928843397414699"><ele>283.0</ele><time>2026-04-12T16:40:57Z</time></trkpt><trkpt lat="44.544807684364784" lon="8.928729303455265"><ele>283.0</ele><time>2026-04-12T16:40:58Z</time></trkpt><trkpt lat="44.54472437772572" lon="8.928652403843364"><ele>283.0</ele><time>2026-04-12T16:40:59Z</time></trkpt><trkpt lat="44.54462673881976" lon="8.928601781906957"><ele>283.0</ele><time>2026-04-12T16:41:00Z</time></trkpt><trkpt lat="44.54453124179215" lon="8.928546465087843"><ele>283.0</ele><time>2026-04-12T16:41:01Z</time></trkpt><trkpt lat="44.544448007773475" lon="8.928462354877539"><ele>283.0</ele><time>2026-04-12T16:41:02Z</time></trkpt><trkpt lat="44.54437591762387" lon="8.928356042697443"><ele>279.8333333333333</ele><time>2026-04-12T16:41:03Z</time></trkpt><trkpt lat="44.5443110852011" lon="8.92824266942293"><ele>276.66666666666663</ele><time>2026-04-12T16:41:04Z</time></trkpt><trkpt lat="44.54425498236663" lon="8.928133104510028"><ele>273.5</ele><time>2026-04-12T16:41:05Z</time></trkpt><trkpt lat="44.544206107377704" lon="8.92804018937542"><ele>270.3333333333333</ele><time>2026-04-12T16:41:06Z</time></trkpt><trkpt lat="44.544140793801404" lon="8.92797625978576"><ele>267.1666666666667</ele><time>2026-04-12T16:41:07Z</time></trkpt><trkpt lat="44.544055753428" lon="8.927959784843715"><ele>264.0</ele><time>2026-04-12T16:41:08Z</time></trkpt><trkpt lat="44.54397401361371" lon="8.927988875396808"><ele>264.0</ele><time>2026-04-12T16:41:09Z</time></trkpt><trkpt lat="44.54388811639706" lon="8.928047751984018"><ele>264.0</ele><time>2026-04-12T16:41:10Z</time></trkpt><trkpt lat="44.54379717607714" lon="8.928115558282517"><ele>264.0</ele><time>2026-04-12T16:41:11Z</time></trkpt><trkpt lat="44.54370241751218" lon="8.928188708450017"><ele>264.0</ele><time>2026-04-12T16:41:12Z</time></trkpt><trkpt lat="44.54360695497529" lon="8.928260258459852"><ele>264.0</ele><time>2026-04-12T16:41:13Z</time></trkpt><trkpt lat="44.54351484213149" lon="8.928333662790196"><ele>263.0</ele><time>2026-04-12T16:41:14Z</time></trkpt><trkpt lat="44.54342510108075" lon="8.928405211768364"><ele>262.0</ele><time>2026-04-12T16:41:15Z</time></trkpt><trkpt lat="44.54335100171589" lon="8.92848703116906"><ele>261.0</ele><time>2026-04-12T16:41:16Z</time></trkpt><trkpt lat="44.54329124118453" lon="8.928585842879812"><ele>260.0</ele><time>2026-04-12T16:41:17Z</time></trkpt><trkpt lat="44.54323845004158" lon="8.928692792859403"><ele>259.0</ele><time>2026-04-12T16:41:18Z</time></trkpt><trkpt lat="44.54321056861346" lon="8.928808098484417"><ele>259.0</ele><time>2026-04-12T16:41:19Z</time></trkpt><trkpt lat="44.54318546034437" lon="8.928929125578174"><ele>259.0</ele><time>2026-04-12T16:41:20Z</time></trkpt><trkpt lat="44.54315383176596" lon="8.929047207692106"><ele>259.0</ele><time>2026-04-12T16:41:21Z</time></trkpt><trkpt lat="44.54309053518092" lon="8.929123860246564"><ele>259.0</ele><time>2026-04-12T16:41:22Z</time></trkpt><trkpt lat="44.542996163322876" lon="8.929163230022587"><ele>259.0</ele><time>2026-04-12T16:41:23Z</time></trkpt><trkpt lat="44.54289797688072" lon="8.929153613584857"><ele>257.59999999999997</ele><time>2026-04-12T16:41:24Z</time></trkpt><trkpt lat="44.54279685948953" lon="8.929129757704855"><ele>256.2</ele><time>2026-04-12T16:41:25Z</time></trkpt><trkpt lat="44.54270347468232" lon="8.929104067689803"><ele>254.79999999999998</ele><time>2026-04-12T16:41:26Z</time></trkpt><trkpt lat="44.54261259567326" lon="8.929072321657404"><ele>253.39999999999998</ele><time>2026-04-12T16:41:27Z</time></trkpt><trkpt lat="44.542526291887846" lon="8.929023241080893"><ele>252.0</ele><time>2026-04-12T16:41:28Z</time></trkpt><trkpt lat="44.54244585214017" lon="8.928962863848975"><ele>252.0</ele><time>2026-04-12T16:41:29Z</time></trkpt><trkpt lat="44.54236690865367" lon="8.928899035338993"><ele>252.0</ele><time>2026-04-12T16:41:30Z</time></trkpt><trkpt lat="44.54228086060184" lon="8.928871036052488"><ele>252.0</ele><time>2026-04-12T16:41:31Z</time></trkpt><trkpt lat="44.542171325868296" lon="8.928898799610376"><ele>252.0</ele><time>2026-04-12T16:41:32Z</time></trkpt><trkpt lat="44.54205714715384" lon="8.928975412778094"><ele>252.0</ele><time>2026-04-12T16:41:33Z</time></trkpt><trkpt lat="44.54194091087251" lon="8.92906367284708"><ele>253.75</ele><time>2026-04-12T16:41:34Z</time></trkpt><trkpt lat="44.54182264574846" lon="8.929154214383624"><ele>255.5</ele><time>2026-04-12T16:41:35Z</time></trkpt><trkpt lat="44.54171111157816" lon="8.929268999455894"><ele>257.25</ele><time>2026-04-12T16:41:36Z</time></trkpt><trkpt lat="44.54161781611019" lon="8.929396545577795"><ele>259.0</ele><time>2026-04-12T16:41:37Z</time></trkpt><trkpt lat="44.541551721250194" lon="8.929537357291814"><ele>259.0</ele><time>2026-04-12T16:41:38Z</time></trkpt><trkpt lat="44.54150468794869" lon="8.929682042495166"><ele>259.0</ele><time>2026-04-12T16:41:39Z</time></trkpt><trkpt lat="44.54149347772732" lon="8.929846055769433"><ele>259.0</ele><time>2026-04-12T16:41:40Z</time></trkpt><trkpt lat="44.54148900468939" lon="8.929995218627255"><ele>259.0</ele><time>2026-04-12T16:41:41Z</time></trkpt><trkpt lat="44.541420044968575" lon="8.930109074034634"><ele>259.0</ele><time>2026-04-12T16:41:42Z</time></trkpt><trkpt lat="44.541306520926085" lon="8.930158591484037"><ele>256.75</ele><time>2026-04-12T16:41:43Z</time></trkpt><trkpt lat="44.54117663065992" lon="8.93012312701386"><ele>254.5</ele><time>2026-04-12T16:41:44Z</time></trkpt><trkpt lat="44.541059615153735" lon="8.93002062049268"><ele>252.25</ele><time>2026-04-12T16:41:45Z</time></trkpt><trkpt lat="44.540955673392766" lon="8.929873929308151"><ele>250.0</ele><time>2026-04-12T16:41:46Z</time></trkpt><trkpt lat="44.54083067456559" lon="8.929780364659008"><ele>254.33333333333331</ele><time>2026-04-12T16:41:47Z</time></trkpt><trkpt lat="44.54068485142664" lon="8.929746658295585"><ele>258.6666666666667</ele><time>2026-04-12T16:41:48Z</time></trkpt><trkpt lat="44.54053072339671" lon="8.929723645016233"><ele>263.0</ele><time>2026-04-12T16:41:49Z</time></trkpt><trkpt lat="44.54038220518992" lon="8.929695465760684"><ele>263.0</ele><time>2026-04-12T16:41:50Z</time></trkpt><trkpt lat="44.54024976355003" lon="8.929634355760655"><ele>263.0</ele><time>2026-04-12T16:41:51Z</time></trkpt><trkpt lat="44.540136521952704" lon="8.929538985611885"><ele>263.0</ele><time>2026-04-12T16:41:52Z</time></trkpt><trkpt lat="44.54004612875582" lon="8.929432845192709"><ele>263.0</ele><time>2026-04-12T16:41:53Z</time></trkpt><trkpt lat="44.539988373066016" lon="8.92929033210388"><ele>267.33333333333337</ele><time>2026-04-12T16:41:54Z</time></trkpt><trkpt lat="44.53998360544471" lon="8.929106156517735"><ele>271.6666666666667</ele><time>2026-04-12T16:41:55Z</time></trkpt><trkpt lat="44.540022754344434" lon="8.928890339623987"><ele>276.0</ele><time>2026-04-12T16:41:56Z</time></trkpt><trkpt lat="44.54007795213315" lon="8.928667024268702"><ele>276.0</ele><time>2026-04-12T16:41:57Z</time></trkpt><trkpt lat="44.54014584453341" lon="8.928465539604467"><ele>276.0</ele><time>2026-04-12T16:41:58Z</time></trkpt><trkpt lat="44.540209906953486" lon="8.928281196307958"><ele>276.0</ele><time>2026-04-12T16:41:59Z</time></trkpt><trkpt lat="44.540260284644916" lon="8.928106484495927"><ele>276.0</ele><time>2026-04-12T16:42:00Z</time></trkpt><trkpt lat="44.54027644311188" lon="8.927922537752945"><ele>276.5</ele><time>2026-04-12T16:42:01Z</time></trkpt><trkpt lat="44.54025638463276" lon="8.927738852254263"><ele>277.0</ele><time>2026-04-12T16:42:02Z</time></trkpt><trkpt lat="44.540194822041876" lon="8.927578697579694"><ele>277.5</ele><time>2026-04-12T16:42:03Z</time></trkpt><trkpt lat="44.54008343672207" lon="8.92746771864733"><ele>278.0</ele><time>2026-04-12T16:42:04Z</time></trkpt><trkpt lat="44.53996175762218" lon="8.927393399951997"><ele>278.5</ele><time>2026-04-12T16:42:05Z</time></trkpt><trkpt lat="44.539857949618685" lon="8.927309734038342"><ele>279.0</ele><time>2026-04-12T16:42:06Z</time></trkpt><trkpt lat="44.53980726686632" lon="8.927165329684662"><ele>279.5</ele><time>2026-04-12T16:42:07Z</time></trkpt><trkpt lat="44.53978194732119" lon="8.926979443268946"><ele>280.0</ele><time>2026-04-12T16:42:08Z</time></trkpt><trkpt lat="44.539759430418144" lon="8.92679509915817"><ele>282.5</ele><time>2026-04-12T16:42:09Z</time></trkpt><trkpt lat="44.5397340662269" lon="8.926599508997967"><ele>285.0</ele><time>2026-04-12T16:42:10Z</time></trkpt><trkpt lat="44.53971973718518" lon="8.926408064950875"><ele>287.5</ele><time>2026-04-12T16:42:11Z</time></trkpt><trkpt lat="44.53971759724214" lon="8.926219278489425"><ele>290.0</ele><time>2026-04-12T16:42:12Z</time></trkpt><trkpt lat="44.539720103611586" lon="8.92603079036627"><ele>291.0</ele><time>2026-04-12T16:42:13Z</time></trkpt><trkpt lat="44.53972124579541" lon="8.925848535226963"><ele>292.0</ele><time>2026-04-12T16:42:14Z</time></trkpt><trkpt lat="44.53972340626824" lon="8.925679161709699"><ele>293.0</ele><time>2026-04-12T16:42:15Z</time></trkpt><trkpt lat="44.53973978788543" lon="8.925527045106316"><ele>294.0</ele><time>2026-04-12T16:42:16Z</time></trkpt><trkpt lat="44.539802467879014" lon="8.925391445089987"><ele>294.0</ele><time>2026-04-12T16:42:17Z</time></trkpt><trkpt lat="44.53990081140317" lon="8.925278087108936"><ele>294.0</ele><time>2026-04-12T16:42:18Z</time></trkpt><trkpt lat="44.540013946039366" lon="8.925182700768175"><ele>294.0</ele><time>2026-04-12T16:42:19Z</time></trkpt><trkpt lat="44.54013232974427" lon="8.92509947682939"><ele>294.0</ele><time>2026-04-12T16:42:20Z</time></trkpt><trkpt lat="44.54025197723497" lon="8.925046255371948"><ele>294.0</ele><time>2026-04-12T16:42:21Z</time></trkpt><trkpt lat="44.54036591109015" lon="8.92508283731322"><ele>294.0</ele><time>2026-04-12T16:42:22Z</time></trkpt><trkpt lat="44.540475208234724" lon="8.925087931119933"><ele>294.0</ele><time>2026-04-12T16:42:23Z</time></trkpt><trkpt lat="44.5405744728858" lon="8.925088560234077"><ele>294.0</ele><time>2026-04-12T16:42:24Z</time></trkpt><trkpt lat="44.54065088272112" lon="8.925036637691164"><ele>294.0</ele><time>2026-04-12T16:42:25Z</time></trkpt><trkpt lat="44.540710219063854" lon="8.924952409940994"><ele>297.0</ele><time>2026-04-12T16:42:26Z</time></trkpt><trkpt lat="44.54072615559594" lon="8.92483829204888"><ele>300.0</ele><time>2026-04-12T16:42:27Z</time></trkpt><trkpt lat="44.54069781691814" lon="8.924720854453298"><ele>303.0</ele><time>2026-04-12T16:42:28Z</time></trkpt><trkpt lat="44.540639643319786" lon="8.924611135949862"><ele>306.0</ele><time>2026-04-12T16:42:29Z</time></trkpt><trkpt lat="44.54060697184158" lon="8.924486098253283"><ele>309.0</ele><time>2026-04-12T16:42:30Z</time></trkpt><trkpt lat="44.540613922806116" lon="8.924345588461135"><ele>311.4</ele><time>2026-04-12T16:42:31Z</time></trkpt><trkpt lat="44.54064390141393" lon="8.92421908298381"><ele>313.79999999999995</ele><time>2026-04-12T16:42:32Z</time></trkpt><trkpt lat="44.540673003542196" lon="8.924102277385785"><ele>316.20000000000005</ele><time>2026-04-12T16:42:33Z</time></trkpt><trkpt lat="44.54061472845972" lon="8.923978721635876"><ele>318.6</ele><time>2026-04-12T16:42:34Z</time></trkpt><trkpt lat="44.5405457242152" lon="8.923886167116162"><ele>321.0</ele><time>2026-04-12T16:42:35Z</time></trkpt><trkpt lat="44.54047703959962" lon="8.923802197145374"><ele>321.0</ele><time>2026-04-12T16:42:36Z</time></trkpt><trkpt lat="44.54045513735119" lon="8.923687079432499"><ele>321.0</ele><time>2026-04-12T16:42:37Z</time></trkpt><trkpt lat="44.54047263930137" lon="8.923560009838464"><ele>321.0</ele><time>2026-04-12T16:42:38Z</time></trkpt><trkpt lat="44.540468070739664" lon="8.923446707156119"><ele>321.0</ele><time>2026-04-12T16:42:39Z</time></trkpt><trkpt lat="44.5404044080259" lon="8.923341159897548"><ele>321.0</ele><time>2026-04-12T16:42:40Z</time></trkpt><trkpt lat="44.54031715397338" lon="8.923268139165154"><ele>316.2</ele><time>2026-04-12T16:42:41Z</time></trkpt><trkpt lat="44.54021425472356" lon="8.923213514851911"><ele>311.40000000000003</ele><time>2026-04-12T16:42:42Z</time></trkpt><trkpt lat="44.540115367486024" lon="8.923145981692484"><ele>306.6</ele><time>2026-04-12T16:42:43Z</time></trkpt><trkpt lat="44.54004256634298" lon="8.923051078500581"><ele>301.8</ele><time>2026-04-12T16:42:44Z</time></trkpt><trkpt lat="44.540001870948146" lon="8.92294425601014"><ele>297.0</ele><time>2026-04-12T16:42:45Z</time></trkpt><trkpt lat="44.54000039404884" lon="8.922800104055826"><ele>297.0</ele><time>2026-04-12T16:42:46Z</time></trkpt><trkpt lat="44.53998192917966" lon="8.922651292404677"><ele>297.0</ele><time>2026-04-12T16:42:47Z</time></trkpt><trkpt lat="44.53992710853938" lon="8.922520621112804"><ele>297.0</ele><time>2026-04-12T16:42:48Z</time></trkpt><trkpt lat="44.53987352197763" lon="8.922417996688033"><ele>297.0</ele><time>2026-04-12T16:42:49Z</time></trkpt><trkpt lat="44.53986961680041" lon="8.922302801165806"><ele>297.0</ele><time>2026-04-12T16:42:50Z</time></trkpt><trkpt lat="44.53991341175959" lon="8.922186241397236"><ele>301.0</ele><time>2026-04-12T16:42:51Z</time></trkpt><trkpt lat="44.539982107316604" lon="8.922080244071369"><ele>305.0</ele><time>2026-04-12T16:42:52Z</time></trkpt><trkpt lat="44.540025923928155" lon="8.921958457956606"><ele>309.0</ele><time>2026-04-12T16:42:53Z</time></trkpt><trkpt lat="44.54001862886674" lon="8.921800714714344"><ele>313.0</ele><time>2026-04-12T16:42:54Z</time></trkpt><trkpt lat="44.53997287548933" lon="8.92164531636041"><ele>317.0</ele><time>2026-04-12T16:42:55Z</time></trkpt><trkpt lat="44.53990273994468" lon="8.921508310403148"><ele>320.5</ele><time>2026-04-12T16:42:56Z</time></trkpt><trkpt lat="44.53984073718823" lon="8.921367312026112"><ele>324.0</ele><time>2026-04-12T16:42:57Z</time></trkpt><trkpt lat="44.53980055430825" lon="8.921211447955368"><ele>327.5</ele><time>2026-04-12T16:42:58Z</time></trkpt><trkpt lat="44.53974656591958" lon="8.921065654355333"><ele>331.0</ele><time>2026-04-12T16:42:59Z</time></trkpt><trkpt lat="44.53965630266114" lon="8.920948101575421"><ele>328.75</ele><time>2026-04-12T16:43:00Z</time></trkpt><trkpt lat="44.53954911975867" lon="8.92085283643967"><ele>326.5</ele><time>2026-04-12T16:43:01Z</time></trkpt><trkpt lat="44.539447580789584" lon="8.920754287566254"><ele>324.25</ele><time>2026-04-12T16:43:02Z</time></trkpt><trkpt lat="44.53936297022309" lon="8.92062445224778"><ele>322.0</ele><time>2026-04-12T16:43:03Z</time></trkpt><trkpt lat="44.53928731053453" lon="8.920474267209563"><ele>322.0</ele><time>2026-04-12T16:43:04Z</time></trkpt><trkpt lat="44.53921377367541" lon="8.920327659654077"><ele>322.0</ele><time>2026-04-12T16:43:05Z</time></trkpt><trkpt lat="44.53913815054765" lon="8.92019341758666"><ele>322.0</ele><time>2026-04-12T16:43:06Z</time></trkpt><trkpt lat="44.53906551228895" lon="8.920062351002592"><ele>322.0</ele><time>2026-04-12T16:43:07Z</time></trkpt><trkpt lat="44.53899534512202" lon="8.919929837817403"><ele>322.0</ele><time>2026-04-12T16:43:08Z</time></trkpt><trkpt lat="44.53893662768359" lon="8.919797948977738"><ele>322.0</ele><time>2026-04-12T16:43:09Z</time></trkpt><trkpt lat="44.538864982409834" lon="8.91967766405469"><ele>322.0</ele><time>2026-04-12T16:43:10Z</time></trkpt><trkpt lat="44.53877888231352" lon="8.9195711900093"><ele>322.0</ele><time>2026-04-12T16:43:11Z</time></trkpt><trkpt lat="44.53869296507992" lon="8.91946961621854"><ele>322.0</ele><time>2026-04-12T16:43:12Z</time></trkpt><trkpt lat="44.53861298778528" lon="8.91937187915474"><ele>322.0</ele><time>2026-04-12T16:43:13Z</time></trkpt><trkpt lat="44.538541191241336" lon="8.919285526061957"><ele>322.0</ele><time>2026-04-12T16:43:14Z</time></trkpt><trkpt lat="44.53848441798065" lon="8.919220718276128"><ele>322.0</ele><time>2026-04-12T16:43:15Z</time></trkpt><trkpt lat="44.538453535999935" lon="8.919132859498003"><ele>322.0</ele><time>2026-04-12T16:43:17Z</time></trkpt><trkpt lat="44.53853948611161" lon="8.919192696016003"><ele>322.0</ele><time>2026-04-12T16:43:20Z</time></trkpt><trkpt lat="44.53863612876867" lon="8.919282574538668"><ele>322.0</ele><time>2026-04-12T16:43:22Z</time></trkpt><trkpt lat="44.53869994981981" lon="8.919330547430672"><ele>322.0</ele><time>2026-04-12T16:43:23Z</time></trkpt><trkpt lat="44.53875748929297" lon="8.91937223909378"><ele>322.0</ele><time>2026-04-12T16:43:24Z</time></trkpt><trkpt lat="44.538854230674744" lon="8.919403377302213"><ele>322.0</ele><time>2026-04-12T16:43:26Z</time></trkpt><trkpt lat="44.53889079070071" lon="8.919269432382688"><ele>322.0</ele><time>2026-04-12T16:43:27Z</time></trkpt><trkpt lat="44.53880225372816" lon="8.9191941765814"><ele>322.0</ele><time>2026-04-12T16:43:28Z</time></trkpt><trkpt lat="44.53874396229112" lon="8.919124435408623"><ele>326.40000000000003</ele><time>2026-04-12T16:43:29Z</time></trkpt><trkpt lat="44.53865702208696" lon="8.919067673894844"><ele>330.8</ele><time>2026-04-12T16:43:30Z</time></trkpt><trkpt lat="44.538574818079084" lon="8.918985059982154"><ele>335.2</ele><time>2026-04-12T16:43:31Z</time></trkpt><trkpt lat="44.53850391776363" lon="8.918883053949775"><ele>339.6</ele><time>2026-04-12T16:43:32Z</time></trkpt><trkpt lat="44.53845702239824" lon="8.918760560552684"><ele>344.0</ele><time>2026-04-12T16:43:33Z</time></trkpt><trkpt lat="44.538426781783976" lon="8.918619994032714"><ele>344.0</ele><time>2026-04-12T16:43:34Z</time></trkpt><trkpt lat="44.538388532129495" lon="8.918491452888395"><ele>344.0</ele><time>2026-04-12T16:43:35Z</time></trkpt><trkpt lat="44.538347388086095" lon="8.918394968743"><ele>344.0</ele><time>2026-04-12T16:43:36Z</time></trkpt><trkpt lat="44.538369525182986" lon="8.918295668364484"><ele>344.0</ele><time>2026-04-12T16:43:38Z</time></trkpt><trkpt lat="44.538437276407876" lon="8.918312323661137"><ele>344.0</ele><time>2026-04-12T16:43:39Z</time></trkpt><trkpt lat="44.53851751933565" lon="8.918398089156401"><ele>344.0</ele><time>2026-04-12T16:43:40Z</time></trkpt><trkpt lat="44.53856774528118" lon="8.918497098015422"><ele>344.0</ele><time>2026-04-12T16:43:41Z</time></trkpt><trkpt lat="44.53863016420763" lon="8.918554540478594"><ele>344.0</ele><time>2026-04-12T16:43:43Z</time></trkpt><trkpt lat="44.538663568011124" lon="8.918468926492327"><ele>344.0</ele><time>2026-04-12T16:43:44Z</time></trkpt><trkpt lat="44.538644220445484" lon="8.918363566077954"><ele>344.0</ele><time>2026-04-12T16:43:45Z</time></trkpt><trkpt lat="44.53858488050031" lon="8.918271416626819"><ele>344.0</ele><time>2026-04-12T16:43:46Z</time></trkpt><trkpt lat="44.53851580648112" lon="8.91818751624752"><ele>344.0</ele><time>2026-04-12T16:43:47Z</time></trkpt><trkpt lat="44.538458434667504" lon="8.918110281698539"><ele>347.14285714285717</ele><time>2026-04-12T16:43:48Z</time></trkpt><trkpt lat="44.53842520952109" lon="8.918026699628095"><ele>350.2857142857143</ele><time>2026-04-12T16:43:49Z</time></trkpt><trkpt lat="44.538401803918" lon="8.917922429936658"><ele>353.42857142857144</ele><time>2026-04-12T16:43:50Z</time></trkpt><trkpt lat="44.53837602311529" lon="8.91781924557007"><ele>356.57142857142856</ele><time>2026-04-12T16:43:51Z</time></trkpt><trkpt lat="44.53834119149957" lon="8.917731931544937"><ele>359.7142857142857</ele><time>2026-04-12T16:43:52Z</time></trkpt><trkpt lat="44.53827189579868" lon="8.917690480205849"><ele>362.8571428571429</ele><time>2026-04-12T16:44:42Z</time></trkpt><trkpt lat="44.53821272750367" lon="8.917650942299824"><ele>366.0</ele><time>2026-04-12T16:44:44Z</time></trkpt><trkpt lat="44.53814841916685" lon="8.917591520667505"><ele>366.0</ele><time>2026-04-12T16:44:47Z</time></trkpt><trkpt lat="44.53809674998587" lon="8.917530757953548"><ele>366.0</ele><time>2026-04-12T16:51:05Z</time></trkpt><trkpt lat="44.53810978404842" lon="8.917666234845044"><ele>366.0</ele><time>2026-04-12T16:52:28Z</time></trkpt><trkpt lat="44.538087511409294" lon="8.917508370887148"><ele>366.0</ele><time>2026-04-12T16:54:49Z</time></trkpt><trkpt lat="44.53807551935361" lon="8.917595281815084"><ele>366.0</ele><time>2026-04-12T16:55:23Z</time></trkpt><trkpt lat="44.53814948989701" lon="8.917654978235047"><ele>366.0</ele><time>2026-04-12T16:56:26Z</time></trkpt><trkpt lat="44.53811584256191" lon="8.917545348764655"><ele>366.0</ele><time>2026-04-12T16:56:40Z</time></trkpt><trkpt lat="44.538179048580886" lon="8.91751878428924"><ele>366.0</ele><time>2026-04-12T16:57:34Z</time></trkpt><trkpt lat="44.53818196950097" lon="8.91761136604375"><ele>366.0</ele><time>2026-04-12T16:57:44Z</time></trkpt><trkpt lat="44.53814650794996" lon="8.917538055763371"><ele>366.0</ele><time>2026-04-12T16:57:58Z</time></trkpt><trkpt lat="44.53817961632982" lon="8.917456615003413"><ele>366.0</ele><time>2026-04-12T16:58:23Z</time></trkpt><trkpt lat="44.538088617408754" lon="8.917561534040173"><ele>366.0</ele><time>2026-04-12T16:59:28Z</time></trkpt><trkpt lat="44.53812357653301" lon="8.917419257661564"><ele>385.0</ele><time>2026-04-12T17:05:17Z</time></trkpt><trkpt lat="44.53814414614943" lon="8.917512921028989"><ele>385.0</ele><time>2026-04-12T17:05:20Z</time></trkpt><trkpt lat="44.5380812045116" lon="8.91760554362833"><ele>366.0</ele><time>2026-04-12T17:06:12Z</time></trkpt><trkpt lat="44.53812797441457" lon="8.917543216730348"><ele>385.0</ele><time>2026-04-12T17:06:17Z</time></trkpt><trkpt lat="44.538181786520276" lon="8.917492631183126"><ele>385.0</ele><time>2026-04-12T17:06:58Z</time></trkpt></trkseg></trk></gpx>